Time,TemperatureF,DewpointF,PressureIn,WindDirection,WindDirectionDegrees,WindSpeedMPH,WindSpeedGustMPH,Humidity,HourlyPrecipIn,Conditions,Clouds,dailyrainin,SoftwareType,DateUTC
2013-01-07 00:00:00,39.7,39.2,29.74,SSE,158,0.0,0.0,98,0.05,,---,0.00,VWS V14.01,2013-01-07 08:00:00,
2013-01-07 00:01:00,39.7,39.2,29.74,SSE,158,0.0,0.0,98,0.05,,---,0.00,VWS V14.01,2013-01-07 08:01:00,
2013-01-07 00:02:00,39.7,39.2,29.74,SSE,158,0.0,0.0,98,0.05,,---,0.00,VWS V14.01,2013-01-07 08:02:00,
2013-01-07 00:03:00,39.7,39.2,29.74,SSE,158,0.0,0.0,98,0.05,,---,0.00,VWS V14.01,2013-01-07 08:03:00,
2013-01-07 00:04:00,39.7,39.2,29.74,SSE,158,0.0,0.0,98,0.05,,---,0.00,VWS V14.01,2013-01-07 08:04:00,
2013-01-07 00:05:00,39.7,39.2,29.74,SSE,158,0.0,0.0,98,0.05,,---,0.00,VWS V14.01,2013-01-07 08:05:00,
2013-01-07 00:06:00,39.7,39.2,29.74,SSE,158,0.0,0.0,98,0.05,,---,0.00,VWS V14.01,2013-01-07 08:06:00,
2013-01-07 00:07:00,39.7,39.2,29.74,SSE,158,0.0,0.0,98,0.05,,---,0.00,VWS V14.01,2013-01-07 08:07:00,
2013-01-07 00:08:00,39.7,39.2,29.74,SSE,158,0.0,0.0,98,0.05,,---,0.00,VWS V14.01,2013-01-07 08:08:00,
2013-01-07 00:09:00,39.7,39.2,29.74,SSE,158,0.0,0.0,98,0.05,,---,0.00,VWS V14.01,2013-01-07 08:09:00,
2013-01-07 00:10:00,39.7,39.2,29.74,SSE,158,0.0,0.0,98,0.05,,---,0.00,VWS V14.01,2013-01-07 08:10:00,
2013-01-07 00:11:00,39.7,39.2,29.74,SSE,158,0.0,0.0,98,0.05,,---,0.00,VWS V14.01,2013-01-07 08:11:00,
2013-01-07 00:12:00,39.7,39.2,29.74,SSE,158,0.0,0.0,98,0.05,,---,0.00,VWS V14.01,2013-01-07 08:12:00,
2013-01-07 00:13:00,39.7,39.2,29.74,SSE,158,0.0,0.0,98,0.05,,---,0.00,VWS V14.01,2013-01-07 08:13:00,
2013-01-07 00:14:00,39.7,39.2,29.74,SSE,158,0.0,0.0,98,0.05,,---,0.00,VWS V14.01,2013-01-07 08:14:00,
2013-01-07 00:15:00,39.7,39.2,29.74,SSE,158,0.0,0.0,98,0.05,,---,0.00,VWS V14.01,2013-01-07 08:15:00,
2013-01-07 00:16:00,39.7,39.2,29.74,SSE,158,0.0,0.0,98,0.05,,---,0.00,VWS V14.01,2013-01-07 08:16:00,
2013-01-07 00:17:00,39.7,39.2,29.74,SSE,158,0.0,0.0,98,0.05,,---,0.00,VWS V14.01,2013-01-07 08:17:00,
2013-01-07 00:18:00,39.7,39.2,29.74,SSE,158,0.0,0.0,98,0.05,,---,0.00,VWS V14.01,2013-01-07 08:18:00,
2013-01-07 00:19:00,39.7,39.2,29.74,SSE,158,0.0,0.0,98,0.05,,---,0.00,VWS V14.01,2013-01-07 08:19:00,
2013-01-07 00:20:00,39.7,39.2,29.74,SSE,158,0.0,0.0,98,0.05,,---,0.00,VWS V14.01,2013-01-07 08:20:00,
2013-01-07 00:21:00,39.7,39.2,29.74,SSE,158,0.0,0.0,98,0.05,,---,0.00,VWS V14.01,2013-01-07 08:21:00,
2013-01-07 00:22:00,39.7,39.2,29.74,SSE,158,0.0,0.0,98,0.05,,---,0.00,VWS V14.01,2013-01-07 08:22:00,
2013-01-07 00:23:00,39.7,39.2,29.71,SSE,158,0.0,0.0,98,0.05,,---,0.00,VWS V14.01,2013-01-07 08:23:00,
2013-01-07 00:24:00,39.7,39.2,29.71,SSE,158,0.0,0.0,98,0.05,,---,0.00,VWS V14.01,2013-01-07 08:24:00,
2013-01-07 00:25:00,39.7,39.2,29.71,SSE,158,0.0,0.0,98,0.05,,---,0.00,VWS V14.01,2013-01-07 08:25:00,
2013-01-07 00:26:00,39.7,39.2,29.71,SSE,158,0.0,0.0,98,0.05,,---,0.00,VWS V14.01,2013-01-07 08:26:00,
2013-01-07 00:27:00,39.7,39.2,29.71,SSE,158,0.0,0.0,98,0.05,,---,0.00,VWS V14.01,2013-01-07 08:27:00,
2013-01-07 00:28:00,39.7,39.2,29.71,SSE,158,0.0,0.0,98,0.05,,---,0.00,VWS V14.01,2013-01-07 08:28:00,
2013-01-07 00:29:00,39.7,39.2,29.71,SSE,158,0.0,0.0,98,0.05,,---,0.00,VWS V14.01,2013-01-07 08:29:00,
2013-01-07 00:30:00,39.7,39.2,29.71,SSE,158,0.0,0.0,98,0.05,,---,0.00,VWS V14.01,2013-01-07 08:30:00,
2013-01-07 00:31:00,39.7,39.2,29.71,SSE,158,0.0,0.0,98,0.05,,---,0.00,VWS V14.01,2013-01-07 08:31:00,
2013-01-07 00:32:00,39.7,39.2,29.71,SSE,158,0.0,0.0,98,0.05,,---,0.00,VWS V14.01,2013-01-07 08:32:00,
2013-01-07 00:33:00,39.7,39.2,29.71,SSE,158,0.0,0.0,98,0.05,,---,0.00,VWS V14.01,2013-01-07 08:33:00,
2013-01-07 00:34:00,39.7,39.2,29.71,SSE,158,0.0,0.0,98,0.05,,---,0.00,VWS V14.01,2013-01-07 08:34:00,
2013-01-07 00:35:00,39.7,39.2,29.71,SSE,158,0.0,0.0,98,0.05,,---,0.00,VWS V14.01,2013-01-07 08:35:00,
2013-01-07 00:36:00,39.7,39.2,29.71,SSE,158,0.0,0.0,98,0.05,,---,0.00,VWS V14.01,2013-01-07 08:36:00,
2013-01-07 00:37:00,39.7,39.2,29.71,ESE,112,1.6,1.6,98,0.05,,---,0.00,VWS V14.01,2013-01-07 08:37:00,
2013-01-07 00:38:00,39.7,39.2,29.74,ESE,112,0.0,1.6,98,0.05,,---,0.00,VWS V14.01,2013-01-07 08:38:00,
2013-01-07 00:39:00,39.7,39.2,29.74,South,180,1.3,1.3,98,0.05,,---,0.00,VWS V14.01,2013-01-07 08:39:00,
2013-01-07 00:40:00,39.7,39.2,29.74,SSW,202,1.1,1.1,98,0.05,,---,0.00,VWS V14.01,2013-01-07 08:40:00,
2013-01-07 00:41:00,39.7,39.2,29.74,SSW,202,0.9,1.1,98,0.05,,---,0.00,VWS V14.01,2013-01-07 08:41:00,
2013-01-07 00:42:00,39.7,39.2,29.74,SSW,202,0.0,1.1,98,0.05,,---,0.00,VWS V14.01,2013-01-07 08:42:00,
2013-01-07 00:43:00,39.7,39.2,29.74,SSW,202,0.0,0.0,98,0.09,,---,0.04,VWS V14.01,2013-01-07 08:43:00,
2013-01-07 00:44:00,39.7,39.2,29.74,SSW,202,0.0,0.0,98,0.09,,---,0.04,VWS V14.01,2013-01-07 08:44:00,
2013-01-07 00:45:00,39.7,39.2,29.74,SSW,202,0.0,0.0,98,0.09,,---,0.04,VWS V14.01,2013-01-07 08:45:00,
2013-01-07 00:46:00,39.7,39.2,29.74,SSW,202,0.0,0.0,98,0.09,,---,0.04,VWS V14.01,2013-01-07 08:46:00,
2013-01-07 00:47:00,39.7,39.2,29.74,SSW,202,0.0,0.0,98,0.09,,---,0.04,VWS V14.01,2013-01-07 08:47:00,
2013-01-07 00:48:00,39.7,39.2,29.74,SSW,202,0.0,0.0,98,0.09,,---,0.04,VWS V14.01,2013-01-07 08:48:00,
2013-01-07 00:49:00,39.7,39.2,29.74,SSW,202,0.0,0.0,98,0.09,,---,0.04,VWS V14.01,2013-01-07 08:49:00,
2013-01-07 00:50:00,39.7,39.2,29.74,SSW,202,0.0,0.0,98,0.09,,---,0.04,VWS V14.01,2013-01-07 08:50:00,
2013-01-07 00:51:00,39.7,39.2,29.74,SSW,202,0.0,0.0,98,0.09,,---,0.04,VWS V14.01,2013-01-07 08:51:00,
2013-01-07 00:52:00,39.7,39.2,29.74,South,180,0.0,0.9,98,0.09,,---,0.04,VWS V14.01,2013-01-07 08:52:00,
2013-01-07 00:53:00,39.7,39.2,29.74,SSE,158,0.0,0.0,98,0.09,,---,0.04,VWS V14.01,2013-01-07 08:53:00,
2013-01-07 00:54:00,39.7,39.2,29.74,SSE,158,0.0,0.0,98,0.09,,---,0.04,VWS V14.01,2013-01-07 08:54:00,
2013-01-07 00:55:00,39.7,39.2,29.74,SSE,158,0.0,0.0,98,0.04,,---,0.04,VWS V14.01,2013-01-07 08:55:00,
2013-01-07 00:56:00,39.7,39.2,29.74,SSE,158,0.0,0.0,98,0.09,,---,0.04,VWS V14.01,2013-01-07 08:56:00,
2013-01-07 00:57:00,39.7,39.2,29.74,SSE,158,0.0,0.0,98,0.04,,---,0.04,VWS V14.01,2013-01-07 08:57:00,
2013-01-07 00:58:00,39.7,39.2,29.74,SSE,158,0.0,0.0,98,0.04,,---,0.04,VWS V14.01,2013-01-07 08:58:00,
2013-01-07 00:59:00,39.7,39.2,29.74,SSE,158,0.0,0.0,98,0.04,,---,0.04,VWS V14.01,2013-01-07 08:59:00,
2013-01-07 01:00:00,39.7,39.2,29.74,SSE,158,0.0,0.0,98,0.04,,---,0.04,VWS V14.01,2013-01-07 09:00:00,
2013-01-07 01:01:00,39.7,39.2,29.74,SSE,158,0.0,0.0,98,0.04,,---,0.04,VWS V14.01,2013-01-07 09:01:00,
2013-01-07 01:02:00,39.7,39.2,29.74,South,180,0.0,0.0,98,0.04,,---,0.04,VWS V14.01,2013-01-07 09:02:00,
2013-01-07 01:03:00,39.7,39.2,29.74,South,180,0.0,0.0,98,0.04,,---,0.04,VWS V14.01,2013-01-07 09:03:00,
2013-01-07 01:04:00,39.7,39.2,29.74,South,180,0.0,0.0,98,0.04,,---,0.04,VWS V14.01,2013-01-07 09:04:00,
2013-01-07 01:05:00,39.7,39.2,29.74,South,180,0.0,0.0,98,0.04,,---,0.04,VWS V14.01,2013-01-07 09:05:00,
2013-01-07 01:06:00,39.7,39.2,29.74,South,180,0.0,0.0,98,0.04,,---,0.04,VWS V14.01,2013-01-07 09:06:00,
2013-01-07 01:07:00,39.7,39.2,29.74,SSW,202,0.0,0.0,98,0.04,,---,0.04,VWS V14.01,2013-01-07 09:07:00,
2013-01-07 01:08:00,39.7,39.2,29.74,SSW,202,0.0,0.0,98,0.04,,---,0.04,VWS V14.01,2013-01-07 09:08:00,
2013-01-07 01:09:00,39.7,39.2,29.74,SSW,202,0.0,0.0,98,0.04,,---,0.04,VWS V14.01,2013-01-07 09:09:00,
2013-01-07 01:10:00,39.7,39.2,29.74,SSW,202,0.0,0.0,98,0.04,,---,0.04,VWS V14.01,2013-01-07 09:10:00,
2013-01-07 01:11:00,39.7,39.2,29.74,SSW,202,0.0,0.0,98,0.04,,---,0.04,VWS V14.01,2013-01-07 09:11:00,
2013-01-07 01:12:00,39.7,39.2,29.74,SSW,202,0.0,0.0,98,0.04,,---,0.04,VWS V14.01,2013-01-07 09:12:00,
2013-01-07 01:13:00,39.7,39.2,29.74,SSW,202,0.0,0.0,98,0.04,,---,0.04,VWS V14.01,2013-01-07 09:13:00,
2013-01-07 01:14:00,39.7,39.2,29.74,SSW,202,0.0,0.0,98,0.04,,---,0.04,VWS V14.01,2013-01-07 09:14:00,
2013-01-07 01:15:00,39.7,39.2,29.74,SSW,202,0.0,0.0,98,0.04,,---,0.04,VWS V14.01,2013-01-07 09:15:00,
2013-01-07 01:16:00,39.7,39.2,29.74,SSW,202,0.0,0.0,98,0.04,,---,0.04,VWS V14.01,2013-01-07 09:16:00,
2013-01-07 01:17:00,39.7,39.2,29.74,SSW,202,0.0,0.0,98,0.04,,---,0.04,VWS V14.01,2013-01-07 09:17:00,
2013-01-07 01:18:00,39.7,39.2,29.74,SSW,202,0.9,2.0,98,0.04,,---,0.04,VWS V14.01,2013-01-07 09:18:00,
2013-01-07 01:19:00,39.7,39.2,29.74,SSW,202,0.0,0.9,98,0.04,,---,0.04,VWS V14.01,2013-01-07 09:19:00,
2013-01-07 01:20:00,39.7,39.2,29.74,WNW,292,1.3,1.6,98,0.08,,---,0.08,VWS V14.01,2013-01-07 09:20:00,
2013-01-07 01:21:00,39.7,39.2,29.74,WNW,292,1.3,1.6,98,0.08,,---,0.08,VWS V14.01,2013-01-07 09:21:00,
2013-01-07 01:22:00,39.7,39.2,29.74,WSW,248,0.0,1.3,98,0.08,,---,0.08,VWS V14.01,2013-01-07 09:22:00,
2013-01-07 01:23:00,39.7,39.2,29.71,WSW,248,0.0,1.3,98,0.08,,---,0.08,VWS V14.01,2013-01-07 09:23:00,
2013-01-07 01:24:00,39.7,39.2,29.71,WSW,248,0.0,0.0,98,0.08,,---,0.08,VWS V14.01,2013-01-07 09:24:00,
2013-01-07 01:25:00,39.7,39.2,29.71,WSW,248,0.0,0.0,98,0.08,,---,0.08,VWS V14.01,2013-01-07 09:25:00,
2013-01-07 01:26:00,39.7,39.2,29.71,WSW,248,0.0,0.0,98,0.08,,---,0.08,VWS V14.01,2013-01-07 09:26:00,
2013-01-07 01:27:00,39.7,39.2,29.71,SW,225,1.3,1.3,98,0.08,,---,0.08,VWS V14.01,2013-01-07 09:27:00,
2013-01-07 01:28:00,39.7,39.2,29.71,WSW,248,1.1,1.3,98,0.08,,---,0.08,VWS V14.01,2013-01-07 09:28:00,
2013-01-07 01:29:00,39.7,39.2,29.71,WSW,248,0.0,1.1,98,0.08,,---,0.08,VWS V14.01,2013-01-07 09:29:00,
2013-01-07 01:30:00,39.7,39.2,29.71,WNW,292,0.0,0.0,98,0.08,,---,0.08,VWS V14.01,2013-01-07 09:30:00,
2013-01-07 01:31:00,39.7,39.2,29.71,WNW,292,0.0,0.0,98,0.08,,---,0.08,VWS V14.01,2013-01-07 09:31:00,
2013-01-07 01:32:00,39.7,39.2,29.71,WSW,248,1.3,2.2,98,0.08,,---,0.08,VWS V14.01,2013-01-07 09:32:00,
2013-01-07 01:34:00,39.7,39.2,29.71,NW,315,0.0,2.0,98,0.08,,---,0.08,VWS V14.01,2013-01-07 09:34:00,
2013-01-07 01:35:00,39.7,39.2,29.71,SSE,158,0.0,2.2,98,0.08,,---,0.08,VWS V14.01,2013-01-07 09:35:00,
2013-01-07 01:36:00,39.7,39.2,29.71,SSE,158,0.0,2.2,98,0.08,,---,0.08,VWS V14.01,2013-01-07 09:36:00,
2013-01-07 01:37:00,39.7,39.2,29.71,WNW,292,0.0,0.0,98,0.08,,---,0.08,VWS V14.01,2013-01-07 09:37:00,
2013-01-07 01:38:00,39.7,39.2,29.71,WNW,292,0.0,0.9,98,0.08,,---,0.08,VWS V14.01,2013-01-07 09:38:00,
2013-01-07 01:39:00,39.7,39.2,29.71,WNW,292,0.0,0.0,98,0.08,,---,0.08,VWS V14.01,2013-01-07 09:39:00,
2013-01-07 01:40:00,39.7,39.2,29.71,West,270,0.0,1.1,98,0.08,,---,0.08,VWS V14.01,2013-01-07 09:40:00,
2013-01-07 01:41:00,39.7,39.2,29.71,West,270,0.9,1.1,98,0.08,,---,0.08,VWS V14.01,2013-01-07 09:41:00,
2013-01-07 01:42:00,39.7,39.2,29.71,SSW,202,0.0,0.9,98,0.08,,---,0.08,VWS V14.01,2013-01-07 09:42:00,
2013-01-07 01:43:00,39.7,39.2,29.71,SSW,202,0.0,0.0,98,0.08,,---,0.08,VWS V14.01,2013-01-07 09:43:00,
2013-01-07 01:44:00,39.7,39.2,29.71,SW,225,0.0,0.0,98,0.04,,---,0.08,VWS V14.01,2013-01-07 09:44:00,
2013-01-07 01:45:00,39.7,39.2,29.71,WSW,248,0.0,0.0,98,0.04,,---,0.08,VWS V14.01,2013-01-07 09:45:00,
2013-01-07 01:46:00,39.7,39.2,29.71,WSW,248,0.0,0.0,98,0.04,,---,0.08,VWS V14.01,2013-01-07 09:46:00,
2013-01-07 01:49:00,39.7,39.2,29.71,WSW,248,0.0,1.1,98,0.04,,---,0.08,VWS V14.01,2013-01-07 09:49:00,
2013-01-07 01:50:00,39.7,39.2,29.71,SSW,202,0.0,0.0,98,0.04,,---,0.08,VWS V14.01,2013-01-07 09:50:00,
2013-01-07 01:51:00,39.7,39.2,29.71,SSW,202,0.0,0.0,98,0.04,,---,0.08,VWS V14.01,2013-01-07 09:51:00,
2013-01-07 01:52:00,39.7,39.2,29.71,SSW,202,1.1,1.6,98,0.04,,---,0.08,VWS V14.01,2013-01-07 09:52:00,
2013-01-07 01:53:00,39.7,39.2,29.71,WSW,248,0.0,1.1,98,0.04,,---,0.08,VWS V14.01,2013-01-07 09:53:00,
2013-01-07 01:54:00,39.7,39.2,29.71,NNE,22,1.3,2.5,98,0.04,,---,0.08,VWS V14.01,2013-01-07 09:54:00,
2013-01-07 01:55:00,39.7,39.2,29.71,SE,135,0.0,0.0,98,0.04,,---,0.08,VWS V14.01,2013-01-07 09:55:00,
2013-01-07 01:56:00,39.7,39.2,29.71,SE,135,0.0,2.0,98,0.04,,---,0.08,VWS V14.01,2013-01-07 09:56:00,
2013-01-07 01:57:00,39.7,39.2,29.71,SSW,202,0.0,0.9,98,0.04,,---,0.08,VWS V14.01,2013-01-07 09:57:00,
2013-01-07 01:58:00,39.7,39.2,29.71,SSW,202,0.0,0.9,98,0.04,,---,0.08,VWS V14.01,2013-01-07 09:58:00,
2013-01-07 02:00:00,39.7,39.2,29.71,SSW,202,0.0,0.0,98,0.04,,---,0.08,VWS V14.01,2013-01-07 10:00:00,
2013-01-07 02:01:00,39.7,39.2,29.71,SSW,202,0.0,0.0,98,0.04,,---,0.08,VWS V14.01,2013-01-07 10:01:00,
2013-01-07 02:02:00,39.7,39.2,29.71,SSW,202,0.0,0.0,98,0.04,,---,0.08,VWS V14.01,2013-01-07 10:02:00,
2013-01-07 02:03:00,39.7,39.2,29.71,SSW,202,0.0,0.0,98,0.04,,---,0.08,VWS V14.01,2013-01-07 10:03:00,
2013-01-07 02:04:00,39.7,39.2,29.71,SSW,202,0.0,0.9,98,0.04,,---,0.08,VWS V14.01,2013-01-07 10:04:00,
2013-01-07 02:05:00,39.7,39.2,29.71,SSE,158,0.0,1.1,98,0.08,,---,0.12,VWS V14.01,2013-01-07 10:05:00,
2013-01-07 02:06:00,39.7,39.2,29.71,SSE,158,0.0,1.1,98,0.08,,---,0.12,VWS V14.01,2013-01-07 10:06:00,
2013-01-07 02:07:00,39.7,39.2,29.71,SE,135,0.0,0.9,98,0.08,,---,0.12,VWS V14.01,2013-01-07 10:07:00,
2013-01-07 02:09:00,39.7,39.2,29.71,WSW,248,0.0,0.0,98,0.08,,---,0.12,VWS V14.01,2013-01-07 10:09:00,
2013-01-07 02:10:00,39.7,39.2,29.71,WNW,292,0.0,0.0,98,0.08,,---,0.12,VWS V14.01,2013-01-07 10:10:00,
2013-01-07 02:11:00,39.7,39.2,29.71,WNW,292,0.0,0.0,98,0.08,,---,0.12,VWS V14.01,2013-01-07 10:11:00,
2013-01-07 02:12:00,39.7,39.2,29.71,West,270,0.0,0.0,98,0.08,,---,0.12,VWS V14.01,2013-01-07 10:12:00,
2013-01-07 02:13:00,39.7,39.2,29.71,East,90,0.0,0.0,98,0.08,,---,0.12,VWS V14.01,2013-01-07 10:13:00,
2013-01-07 02:14:00,39.7,39.2,29.71,South,180,1.3,1.3,98,0.08,,---,0.12,VWS V14.01,2013-01-07 10:14:00,
2013-01-07 02:15:00,39.7,39.2,29.71,ESE,112,0.0,0.0,98,0.08,,---,0.12,VWS V14.01,2013-01-07 10:15:00,
2013-01-07 02:16:00,39.7,39.2,29.71,ESE,112,0.0,0.0,98,0.08,,---,0.12,VWS V14.01,2013-01-07 10:16:00,
2013-01-07 02:17:00,39.7,39.2,29.71,WSW,248,1.3,2.5,98,0.08,,---,0.12,VWS V14.01,2013-01-07 10:17:00,
2013-01-07 02:19:00,39.9,39.4,29.71,SW,225,0.0,0.0,98,0.08,,---,0.12,VWS V14.01,2013-01-07 10:19:00,
2013-01-07 02:20:00,39.9,39.4,29.71,WSW,248,0.0,0.0,98,0.08,,---,0.12,VWS V14.01,2013-01-07 10:20:00,
2013-01-07 02:21:00,39.9,39.4,29.71,WSW,248,0.0,0.0,98,0.08,,---,0.12,VWS V14.01,2013-01-07 10:21:00,
2013-01-07 02:22:00,39.9,39.4,29.71,WSW,248,0.0,0.0,98,0.04,,---,0.12,VWS V14.01,2013-01-07 10:22:00,
2013-01-07 02:25:00,39.9,39.4,29.68,SSW,202,1.1,1.1,98,0.04,,---,0.12,VWS V14.01,2013-01-07 10:25:00,
2013-01-07 02:26:00,39.9,39.4,29.68,SSW,202,1.1,1.1,98,0.04,,---,0.12,VWS V14.01,2013-01-07 10:26:00,
2013-01-07 02:27:00,39.9,39.4,29.68,SSW,202,0.0,2.0,98,0.04,,---,0.12,VWS V14.01,2013-01-07 10:27:00,
2013-01-07 02:28:00,39.9,39.4,29.68,SW,225,0.0,0.0,98,0.04,,---,0.12,VWS V14.01,2013-01-07 10:28:00,
2013-01-07 02:29:00,39.9,39.4,29.68,SW,225,0.0,0.0,98,0.04,,---,0.12,VWS V14.01,2013-01-07 10:29:00,
2013-01-07 02:30:00,39.9,39.4,29.68,South,180,0.0,0.0,98,0.04,,---,0.12,VWS V14.01,2013-01-07 10:30:00,
2013-01-07 02:31:00,39.9,39.4,29.68,South,180,0.0,0.0,98,0.04,,---,0.12,VWS V14.01,2013-01-07 10:31:00,
2013-01-07 02:32:00,39.9,39.4,29.68,SSW,202,0.0,0.0,98,0.04,,---,0.12,VWS V14.01,2013-01-07 10:32:00,
2013-01-07 02:34:00,39.9,39.4,29.68,WSW,248,1.1,2.0,98,0.04,,---,0.12,VWS V14.01,2013-01-07 10:34:00,
2013-01-07 02:35:00,39.9,39.4,29.68,WSW,248,0.9,0.9,98,0.04,,---,0.12,VWS V14.01,2013-01-07 10:35:00,
2013-01-07 02:36:00,39.9,39.4,29.68,WSW,248,0.9,0.9,98,0.04,,---,0.12,VWS V14.01,2013-01-07 10:36:00,
2013-01-07 02:37:00,39.9,39.4,29.68,South,180,0.0,0.9,98,0.04,,---,0.12,VWS V14.01,2013-01-07 10:37:00,
2013-01-07 02:38:00,39.9,39.4,29.68,SSE,158,0.0,0.0,98,0.04,,---,0.12,VWS V14.01,2013-01-07 10:38:00,
2013-01-07 02:39:00,39.9,39.4,29.68,SSW,202,0.0,1.1,98,0.04,,---,0.12,VWS V14.01,2013-01-07 10:39:00,
2013-01-07 02:40:00,39.9,39.4,29.68,SSW,202,1.6,2.2,98,0.04,,---,0.12,VWS V14.01,2013-01-07 10:40:00,
2013-01-07 02:41:00,39.9,39.4,29.68,SSW,202,1.6,2.2,98,0.04,,---,0.12,VWS V14.01,2013-01-07 10:41:00,
2013-01-07 02:42:00,39.9,39.4,29.68,SSW,202,0.0,1.6,98,0.04,,---,0.12,VWS V14.01,2013-01-07 10:42:00,
2013-01-07 02:43:00,39.9,39.4,29.68,SSE,158,0.0,0.0,98,0.04,,---,0.12,VWS V14.01,2013-01-07 10:43:00,
2013-01-07 02:44:00,40.1,39.6,29.68,SSE,158,0.0,0.9,98,0.04,,---,0.12,VWS V14.01,2013-01-07 10:44:00,
2013-01-07 02:45:00,40.1,39.6,29.68,NNE,22,1.3,2.0,98,0.04,,---,0.12,VWS V14.01,2013-01-07 10:45:00,
2013-01-07 02:46:00,40.1,39.6,29.68,NNE,22,0.0,2.0,98,0.04,,---,0.12,VWS V14.01,2013-01-07 10:46:00,
2013-01-07 02:47:00,40.1,39.6,29.68,ESE,112,0.0,0.0,98,0.04,,---,0.12,VWS V14.01,2013-01-07 10:47:00,
2013-01-07 02:48:00,40.1,39.6,29.68,ESE,112,0.0,0.0,98,0.04,,---,0.12,VWS V14.01,2013-01-07 10:48:00,
2013-01-07 02:49:00,40.1,39.6,29.68,SSW,202,1.6,1.6,98,0.04,,---,0.12,VWS V14.01,2013-01-07 10:49:00,
2013-01-07 02:50:00,40.1,39.6,29.68,SSW,202,0.0,0.0,98,0.04,,---,0.12,VWS V14.01,2013-01-07 10:50:00,
2013-01-07 02:51:00,40.1,39.6,29.68,SSW,202,0.0,0.0,98,0.04,,---,0.12,VWS V14.01,2013-01-07 10:51:00,
2013-01-07 02:52:00,40.1,39.6,29.68,SSW,202,0.0,0.0,98,0.04,,---,0.12,VWS V14.01,2013-01-07 10:52:00,
2013-01-07 02:53:00,40.1,39.6,29.68,NE,45,1.3,2.0,98,0.04,,---,0.12,VWS V14.01,2013-01-07 10:53:00,
2013-01-07 02:54:00,40.1,39.6,29.68,ESE,112,0.0,1.3,98,0.04,,---,0.12,VWS V14.01,2013-01-07 10:54:00,
2013-01-07 02:55:00,40.3,39.8,29.68,ESE,112,1.1,1.6,98,0.04,,---,0.12,VWS V14.01,2013-01-07 10:55:00,
2013-01-07 02:56:00,40.3,39.8,29.68,ESE,112,0.0,1.6,98,0.04,,---,0.12,VWS V14.01,2013-01-07 10:56:00,
2013-01-07 02:57:00,40.3,39.8,29.68,South,180,0.0,0.0,98,0.04,,---,0.12,VWS V14.01,2013-01-07 10:57:00,
2013-01-07 02:58:00,40.3,39.8,29.68,WSW,248,0.9,1.6,98,0.04,,---,0.12,VWS V14.01,2013-01-07 10:58:00,
2013-01-07 02:59:00,40.3,39.8,29.68,WSW,248,0.0,0.9,98,0.04,,---,0.12,VWS V14.01,2013-01-07 10:59:00,
2013-01-07 03:00:00,40.5,39.9,29.68,SSE,158,1.3,1.3,98,0.04,,---,0.12,VWS V14.01,2013-01-07 11:00:00,
2013-01-07 03:01:00,40.5,39.9,29.68,SSE,158,2.0,2.0,98,0.04,,---,0.12,VWS V14.01,2013-01-07 11:01:00,
2013-01-07 03:02:00,40.6,40.1,29.68,East,90,0.0,2.7,98,0.04,,---,0.12,VWS V14.01,2013-01-07 11:02:00,
2013-01-07 03:03:00,40.8,40.3,29.68,SSW,202,0.0,1.3,98,0.04,,---,0.12,VWS V14.01,2013-01-07 11:03:00,
2013-01-07 03:04:00,41.0,40.5,29.68,WSW,248,2.5,2.5,98,0.04,,---,0.12,VWS V14.01,2013-01-07 11:04:00,
2013-01-07 03:05:00,41.0,40.5,29.68,SW,225,0.0,1.1,98,0.00,,---,0.12,VWS V14.01,2013-01-07 11:05:00,
2013-01-07 03:06:00,41.0,40.5,29.68,SW,225,0.0,1.1,98,0.00,,---,0.12,VWS V14.01,2013-01-07 11:06:00,
2013-01-07 03:07:00,41.0,40.5,29.68,ESE,112,0.9,0.9,98,0.00,,---,0.12,VWS V14.01,2013-01-07 11:07:00,
2013-01-07 03:08:00,41.0,40.5,29.68,East,90,0.0,2.5,98,0.00,,---,0.12,VWS V14.01,2013-01-07 11:08:00,
2013-01-07 03:09:00,41.2,40.7,29.68,SSE,158,0.9,1.3,98,0.00,,---,0.12,VWS V14.01,2013-01-07 11:09:00,
2013-01-07 03:10:00,41.5,41.0,29.68,SE,135,0.9,2.2,98,0.00,,---,0.12,VWS V14.01,2013-01-07 11:10:00,
2013-01-07 03:11:00,41.5,41.0,29.68,SE,135,0.9,2.2,98,0.00,,---,0.12,VWS V14.01,2013-01-07 11:11:00,
2013-01-07 03:12:00,41.7,41.2,29.68,SSE,158,0.0,0.9,98,0.00,,---,0.12,VWS V14.01,2013-01-07 11:12:00,
2013-01-07 03:13:00,41.7,41.2,29.68,ENE,68,3.1,5.8,98,0.00,,---,0.12,VWS V14.01,2013-01-07 11:13:00,
2013-01-07 03:14:00,41.9,41.4,29.68,NE,45,0.0,3.1,98,0.00,,---,0.12,VWS V14.01,2013-01-07 11:14:00,
2013-01-07 03:15:00,42.1,41.6,29.68,SSE,158,1.6,4.0,98,0.00,,---,0.12,VWS V14.01,2013-01-07 11:15:00,
2013-01-07 03:16:00,42.1,41.6,29.68,SSE,158,1.6,4.0,98,0.00,,---,0.12,VWS V14.01,2013-01-07 11:16:00,
2013-01-07 03:17:00,42.3,41.7,29.68,ESE,112,0.0,1.6,98,0.00,,---,0.12,VWS V14.01,2013-01-07 11:17:00,
2013-01-07 03:18:00,42.3,41.7,29.68,ESE,112,0.0,0.0,98,0.00,,---,0.12,VWS V14.01,2013-01-07 11:18:00,
2013-01-07 03:19:00,42.3,41.7,29.68,WSW,248,1.6,1.6,98,0.00,,---,0.12,VWS V14.01,2013-01-07 11:19:00,
2013-01-07 03:20:00,42.4,41.9,29.68,East,90,1.1,1.3,98,0.00,,---,0.12,VWS V14.01,2013-01-07 11:20:00,
2013-01-07 03:21:00,42.4,41.9,29.68,ENE,68,1.3,1.3,98,0.00,,---,0.12,VWS V14.01,2013-01-07 11:21:00,
2013-01-07 03:22:00,42.4,41.9,29.68,NNE,22,0.0,1.3,98,0.00,,---,0.12,VWS V14.01,2013-01-07 11:22:00,
2013-01-07 03:23:00,42.4,41.9,29.68,WNW,292,0.0,0.0,98,0.00,,---,0.12,VWS V14.01,2013-01-07 11:23:00,
2013-01-07 03:24:00,42.6,42.1,29.68,East,90,3.6,3.6,98,0.00,,---,0.12,VWS V14.01,2013-01-07 11:24:00,
2013-01-07 03:25:00,42.6,42.1,29.68,NE,45,1.6,1.6,98,0.00,,---,0.12,VWS V14.01,2013-01-07 11:25:00,
2013-01-07 03:26:00,42.6,42.1,29.68,SE,135,0.0,1.6,98,0.00,,---,0.12,VWS V14.01,2013-01-07 11:26:00,
2013-01-07 03:27:00,42.8,42.3,29.68,SSE,158,1.3,1.3,98,0.00,,---,0.12,VWS V14.01,2013-01-07 11:27:00,
2013-01-07 03:28:00,42.8,42.3,29.68,SSE,158,2.0,2.2,98,0.00,,---,0.12,VWS V14.01,2013-01-07 11:28:00,
2013-01-07 03:29:00,43.0,42.5,29.68,East,90,2.5,2.5,98,0.00,,---,0.12,VWS V14.01,2013-01-07 11:29:00,
2013-01-07 03:30:00,43.0,42.5,29.68,ENE,68,1.3,2.5,98,0.00,,---,0.12,VWS V14.01,2013-01-07 11:30:00,
2013-01-07 03:31:00,43.0,42.5,29.68,ESE,112,0.0,2.5,98,0.00,,---,0.12,VWS V14.01,2013-01-07 11:31:00,
2013-01-07 03:32:00,43.2,42.6,29.68,SSW,202,0.0,1.6,98,0.00,,---,0.12,VWS V14.01,2013-01-07 11:32:00,
2013-01-07 03:33:00,43.2,42.6,29.68,ESE,112,1.3,2.2,98,0.00,,---,0.12,VWS V14.01,2013-01-07 11:33:00,
2013-01-07 03:34:00,43.2,42.6,29.68,NNE,22,0.0,1.3,98,0.00,,---,0.12,VWS V14.01,2013-01-07 11:34:00,
2013-01-07 03:35:00,43.3,42.8,29.68,ENE,68,2.2,2.2,98,0.00,,---,0.12,VWS V14.01,2013-01-07 11:35:00,
2013-01-07 03:36:00,43.3,42.8,29.68,ENE,68,1.3,2.2,98,0.00,,---,0.12,VWS V14.01,2013-01-07 11:36:00,
2013-01-07 03:37:00,43.3,42.8,29.68,SSE,158,0.0,1.3,98,0.00,,---,0.12,VWS V14.01,2013-01-07 11:37:00,
2013-01-07 03:38:00,43.3,42.8,29.65,WSW,248,1.1,1.1,98,0.00,,---,0.12,VWS V14.01,2013-01-07 11:38:00,
2013-01-07 03:39:00,43.3,42.8,29.65,SSW,202,0.0,1.6,98,0.00,,---,0.12,VWS V14.01,2013-01-07 11:39:00,
2013-01-07 03:40:00,43.3,42.8,29.65,NE,45,1.1,1.6,98,0.00,,---,0.12,VWS V14.01,2013-01-07 11:40:00,
2013-01-07 03:41:00,43.3,42.8,29.65,NE,45,1.6,1.6,98,0.00,,---,0.12,VWS V14.01,2013-01-07 11:41:00,
2013-01-07 03:42:00,43.3,42.8,29.65,NE,45,0.0,1.6,98,0.00,,---,0.12,VWS V14.01,2013-01-07 11:42:00,
2013-01-07 03:43:00,43.3,42.8,29.65,SSE,158,0.0,0.0,98,0.00,,---,0.12,VWS V14.01,2013-01-07 11:43:00,
2013-01-07 03:44:00,43.5,43.0,29.65,SE,135,2.7,6.3,98,0.00,,---,0.12,VWS V14.01,2013-01-07 11:44:00,
2013-01-07 03:45:00,43.5,43.0,29.65,SSE,158,1.1,1.6,98,0.00,,---,0.12,VWS V14.01,2013-01-07 11:45:00,
2013-01-07 03:46:00,43.5,43.0,29.65,ESE,112,0.0,1.6,98,0.00,,---,0.12,VWS V14.01,2013-01-07 11:46:00,
2013-01-07 03:47:00,43.5,43.0,29.65,East,90,1.6,1.6,98,0.00,,---,0.12,VWS V14.01,2013-01-07 11:47:00,
2013-01-07 03:48:00,43.5,43.0,29.65,SSW,202,2.0,2.2,98,0.00,,---,0.12,VWS V14.01,2013-01-07 11:48:00,
2013-01-07 03:49:00,43.5,43.0,29.65,North,0,2.2,2.2,98,0.00,,---,0.12,VWS V14.01,2013-01-07 11:49:00,
2013-01-07 03:50:00,43.5,43.0,29.65,ESE,112,0.0,2.2,98,0.00,,---,0.12,VWS V14.01,2013-01-07 11:50:00,
2013-01-07 03:51:00,43.5,43.0,29.65,ESE,112,0.0,2.2,98,0.00,,---,0.12,VWS V14.01,2013-01-07 11:51:00,
2013-01-07 03:52:00,43.5,43.0,29.65,SSE,158,0.0,0.0,98,0.00,,---,0.12,VWS V14.01,2013-01-07 11:52:00,
2013-01-07 03:53:00,43.5,43.0,29.65,SSE,158,0.0,0.9,98,0.00,,---,0.12,VWS V14.01,2013-01-07 11:53:00,
2013-01-07 03:54:00,43.5,43.0,29.65,ESE,112,0.0,2.7,98,0.00,,---,0.12,VWS V14.01,2013-01-07 11:54:00,
2013-01-07 03:55:00,43.5,43.0,29.65,SSE,158,0.0,2.2,98,0.00,,---,0.12,VWS V14.01,2013-01-07 11:55:00,
2013-01-07 03:56:00,43.5,43.0,29.65,SSE,158,0.0,2.2,98,0.00,,---,0.12,VWS V14.01,2013-01-07 11:56:00,
2013-01-07 03:57:00,43.7,43.2,29.65,SE,135,6.3,6.3,98,0.00,,---,0.12,VWS V14.01,2013-01-07 11:57:00,
2013-01-07 03:58:00,43.7,43.2,29.65,SSE,158,0.0,6.3,98,0.00,,---,0.12,VWS V14.01,2013-01-07 11:58:00,
2013-01-07 03:59:00,43.7,43.2,29.65,ESE,112,1.3,1.3,98,0.00,,---,0.12,VWS V14.01,2013-01-07 11:59:00,
2013-01-07 04:00:00,43.7,43.2,29.65,SSW,202,0.9,2.7,98,0.00,,---,0.12,VWS V14.01,2013-01-07 12:00:00,
2013-01-07 04:01:00,43.7,43.2,29.65,SSW,202,0.0,2.7,98,0.00,,---,0.12,VWS V14.01,2013-01-07 12:01:00,
2013-01-07 04:02:00,43.7,43.2,29.65,SSW,202,1.6,1.6,98,0.00,,---,0.12,VWS V14.01,2013-01-07 12:02:00,
2013-01-07 04:03:00,43.7,43.2,29.65,ESE,112,1.3,1.6,98,0.00,,---,0.12,VWS V14.01,2013-01-07 12:03:00,
2013-01-07 04:04:00,43.7,43.2,29.65,SE,135,1.6,1.6,98,0.00,,---,0.12,VWS V14.01,2013-01-07 12:04:00,
2013-01-07 04:05:00,43.9,43.3,29.65,SSE,158,0.0,1.3,98,0.00,,---,0.12,VWS V14.01,2013-01-07 12:05:00,
2013-01-07 04:06:00,43.9,43.3,29.65,East,90,2.5,2.5,98,0.00,,---,0.12,VWS V14.01,2013-01-07 12:06:00,
2013-01-07 04:07:00,43.9,43.3,29.65,SSW,202,1.1,2.9,98,0.00,,---,0.12,VWS V14.01,2013-01-07 12:07:00,
2013-01-07 04:08:00,43.9,43.3,29.62,ESE,112,2.2,2.2,98,0.00,,---,0.12,VWS V14.01,2013-01-07 12:08:00,
2013-01-07 04:09:00,44.1,43.5,29.62,SW,225,3.4,3.4,98,0.00,,---,0.12,VWS V14.01,2013-01-07 12:09:00,
2013-01-07 04:10:00,44.2,43.7,29.62,SSE,158,0.0,2.7,98,0.00,,---,0.12,VWS V14.01,2013-01-07 12:10:00,
2013-01-07 04:11:00,44.2,43.7,29.62,SSE,158,1.1,2.7,98,0.00,,---,0.12,VWS V14.01,2013-01-07 12:11:00,
2013-01-07 04:12:00,44.2,43.7,29.62,ESE,112,1.1,1.1,98,0.00,,---,0.12,VWS V14.01,2013-01-07 12:12:00,
2013-01-07 04:13:00,44.2,43.7,29.62,South,180,0.0,1.1,98,0.00,,---,0.12,VWS V14.01,2013-01-07 12:13:00,
2013-01-07 04:14:00,44.2,43.7,29.62,ESE,112,2.0,2.5,98,0.00,,---,0.12,VWS V14.01,2013-01-07 12:14:00,
2013-01-07 04:15:00,44.2,43.7,29.62,East,90,2.0,2.9,98,0.00,,---,0.16,VWS V14.01,2013-01-07 12:15:00,
2013-01-07 04:16:00,44.2,43.7,29.62,SSE,158,1.1,2.9,98,0.00,,---,0.12,VWS V14.01,2013-01-07 12:16:00,
2013-01-07 04:17:00,44.2,43.7,29.62,ENE,68,2.2,3.4,98,0.00,,---,0.12,VWS V14.01,2013-01-07 12:17:00,
2013-01-07 04:18:00,44.4,43.9,29.62,South,180,2.7,2.7,98,0.00,,---,0.12,VWS V14.01,2013-01-07 12:18:00,
2013-01-07 04:19:00,44.4,43.9,29.62,SE,135,0.0,2.7,98,0.00,,---,0.12,VWS V14.01,2013-01-07 12:19:00,
2013-01-07 04:20:00,44.4,43.9,29.62,SSE,158,1.3,3.8,98,0.00,,---,0.12,VWS V14.01,2013-01-07 12:20:00,
2013-01-07 04:21:00,44.4,43.9,29.62,East,90,2.5,3.8,98,0.00,,---,0.12,VWS V14.01,2013-01-07 12:21:00,
2013-01-07 04:22:00,44.6,44.1,29.62,ESE,112,3.1,3.1,98,0.00,,---,0.12,VWS V14.01,2013-01-07 12:22:00,
2013-01-07 04:23:00,44.6,44.1,29.62,NE,45,3.1,3.6,98,0.00,,---,0.12,VWS V14.01,2013-01-07 12:23:00,
2013-01-07 04:24:00,44.6,44.1,29.62,South,180,2.9,3.1,98,0.00,,---,0.12,VWS V14.01,2013-01-07 12:24:00,
2013-01-07 04:25:00,44.6,44.1,29.62,ESE,112,1.3,2.5,98,0.00,,---,0.12,VWS V14.01,2013-01-07 12:25:00,
2013-01-07 04:26:00,44.6,44.1,29.62,SSE,158,2.7,2.7,98,0.00,,---,0.12,VWS V14.01,2013-01-07 12:26:00,
2013-01-07 04:27:00,44.8,44.2,29.62,SSW,202,3.8,3.8,98,0.00,,---,0.12,VWS V14.01,2013-01-07 12:27:00,
2013-01-07 04:28:00,44.8,44.2,29.62,SW,225,2.0,4.3,98,0.00,,---,0.12,VWS V14.01,2013-01-07 12:28:00,
2013-01-07 04:29:00,44.8,44.2,29.62,SSE,158,3.6,3.6,98,0.00,,---,0.12,VWS V14.01,2013-01-07 12:29:00,
2013-01-07 04:30:00,45.0,44.4,29.62,ESE,112,0.0,2.5,98,0.00,,---,0.16,VWS V14.01,2013-01-07 12:30:00,
2013-01-07 04:31:00,45.0,44.4,29.62,ESE,112,1.1,2.5,98,0.00,,---,0.12,VWS V14.01,2013-01-07 12:31:00,
2013-01-07 04:32:00,44.8,44.2,29.62,East,90,1.3,4.0,98,0.00,,---,0.12,VWS V14.01,2013-01-07 12:32:00,
2013-01-07 04:33:00,44.8,44.2,29.62,SE,135,2.7,2.7,98,0.00,,---,0.12,VWS V14.01,2013-01-07 12:33:00,
2013-01-07 04:34:00,44.8,44.2,29.62,WNW,292,3.1,3.1,98,0.00,,---,0.12,VWS V14.01,2013-01-07 12:34:00,
2013-01-07 04:35:00,44.8,44.2,29.62,SSE,158,2.7,4.0,98,0.00,,---,0.12,VWS V14.01,2013-01-07 12:35:00,
2013-01-07 04:36:00,45.0,44.4,29.62,SSE,158,2.7,4.0,98,0.00,,---,0.12,VWS V14.01,2013-01-07 12:36:00,
2013-01-07 04:37:00,45.0,44.4,29.62,ENE,68,2.5,3.1,98,0.00,,---,0.12,VWS V14.01,2013-01-07 12:37:00,
2013-01-07 04:38:00,45.0,44.4,29.62,NNW,338,2.7,3.8,98,0.00,,---,0.12,VWS V14.01,2013-01-07 12:38:00,
2013-01-07 04:39:00,45.0,44.4,29.62,ESE,112,0.9,2.7,98,0.00,,---,0.12,VWS V14.01,2013-01-07 12:39:00,
2013-01-07 04:40:00,45.0,44.4,29.62,SSE,158,3.4,7.6,98,0.00,,---,0.12,VWS V14.01,2013-01-07 12:40:00,
2013-01-07 04:41:00,45.0,44.4,29.62,ESE,112,3.4,7.6,98,0.00,,---,0.12,VWS V14.01,2013-01-07 12:41:00,
2013-01-07 04:42:00,45.0,44.4,29.62,SSE,158,4.0,13.2,98,0.00,,---,0.12,VWS V14.01,2013-01-07 12:42:00,
2013-01-07 04:43:00,45.1,44.6,29.62,SSE,158,2.0,4.0,98,0.00,,---,0.12,VWS V14.01,2013-01-07 12:43:00,
2013-01-07 04:44:00,45.1,44.6,29.62,SSW,202,2.5,5.6,98,0.00,,---,0.12,VWS V14.01,2013-01-07 12:44:00,
2013-01-07 04:45:00,45.3,44.8,29.62,South,180,2.7,2.7,98,0.00,,---,0.12,VWS V14.01,2013-01-07 12:45:00,
2013-01-07 04:46:00,45.1,44.6,29.62,SSW,202,1.6,3.4,98,0.00,,---,0.12,VWS V14.01,2013-01-07 12:46:00,
2013-01-07 04:47:00,45.1,44.6,29.62,SE,135,0.0,1.6,98,0.00,,---,0.12,VWS V14.01,2013-01-07 12:47:00,
2013-01-07 04:48:00,45.1,44.6,29.62,ESE,112,2.5,3.6,98,0.00,,---,0.12,VWS V14.01,2013-01-07 12:48:00,
2013-01-07 04:49:00,45.1,44.6,29.62,NE,45,3.1,3.4,98,0.00,,---,0.12,VWS V14.01,2013-01-07 12:49:00,
2013-01-07 04:50:00,45.1,44.6,29.62,SE,135,2.7,4.0,98,0.00,,---,0.12,VWS V14.01,2013-01-07 12:50:00,
2013-01-07 04:51:00,45.1,44.6,29.62,NE,45,2.5,4.0,98,0.00,,---,0.12,VWS V14.01,2013-01-07 12:51:00,
2013-01-07 04:52:00,45.1,44.6,29.62,SSE,158,2.7,2.9,98,0.00,,---,0.12,VWS V14.01,2013-01-07 12:52:00,
2013-01-07 04:53:00,45.1,44.6,29.62,SSE,158,3.4,4.0,98,0.00,,---,0.12,VWS V14.01,2013-01-07 12:53:00,
2013-01-07 04:54:00,45.1,44.6,29.62,SSE,158,2.5,3.4,98,0.00,,---,0.12,VWS V14.01,2013-01-07 12:54:00,
2013-01-07 04:55:00,45.1,44.6,29.62,ENE,68,2.5,3.8,98,0.00,,---,0.12,VWS V14.01,2013-01-07 12:55:00,
2013-01-07 04:56:00,45.1,44.6,29.62,ESE,112,2.0,3.8,98,0.00,,---,0.12,VWS V14.01,2013-01-07 12:56:00,
2013-01-07 04:57:00,45.1,44.6,29.62,SSE,158,0.0,2.5,98,0.00,,---,0.12,VWS V14.01,2013-01-07 12:57:00,
2013-01-07 04:58:00,45.1,44.6,29.62,SSE,158,1.1,2.2,98,0.00,,---,0.12,VWS V14.01,2013-01-07 12:58:00,
2013-01-07 04:59:00,45.1,44.6,29.62,ENE,68,3.6,6.5,98,0.00,,---,0.12,VWS V14.01,2013-01-07 12:59:00,
2013-01-07 05:00:00,45.1,44.6,29.62,SSW,202,2.7,3.8,98,0.00,,---,0.12,VWS V14.01,2013-01-07 13:00:00,
2013-01-07 05:01:00,45.1,44.6,29.62,SW,225,2.2,3.8,98,0.00,,---,0.12,VWS V14.01,2013-01-07 13:01:00,
2013-01-07 05:02:00,45.1,44.6,29.62,ENE,68,2.0,2.5,98,0.00,,---,0.12,VWS V14.01,2013-01-07 13:02:00,
2013-01-07 05:03:00,45.1,44.6,29.62,SE,135,4.7,4.7,98,0.00,,---,0.12,VWS V14.01,2013-01-07 13:03:00,
2013-01-07 05:04:00,45.1,44.6,29.62,West,270,9.6,9.6,98,0.00,,---,0.12,VWS V14.01,2013-01-07 13:04:00,
2013-01-07 05:05:00,45.3,44.8,29.62,East,90,1.3,5.8,98,0.00,,---,0.12,VWS V14.01,2013-01-07 13:05:00,
2013-01-07 05:06:00,45.3,44.8,29.62,ESE,112,0.9,5.8,98,0.00,,---,0.12,VWS V14.01,2013-01-07 13:06:00,
2013-01-07 05:07:00,45.3,44.8,29.62,SSW,202,2.0,2.2,98,0.00,,---,0.12,VWS V14.01,2013-01-07 13:07:00,
2013-01-07 05:09:00,45.3,44.8,29.62,South,180,2.9,2.9,98,0.00,,---,0.12,VWS V14.01,2013-01-07 13:09:00,
2013-01-07 05:10:00,45.1,44.6,29.62,SE,135,3.1,3.1,98,0.00,,---,0.12,VWS V14.01,2013-01-07 13:10:00,
2013-01-07 05:11:00,45.1,44.6,29.62,SSW,202,3.6,3.6,98,0.00,,---,0.12,VWS V14.01,2013-01-07 13:11:00,
2013-01-07 05:12:00,45.1,44.6,29.62,ESE,112,3.1,3.6,98,0.00,,---,0.12,VWS V14.01,2013-01-07 13:12:00,
2013-01-07 05:13:00,45.1,44.6,29.62,ESE,112,2.5,4.3,98,0.00,,---,0.12,VWS V14.01,2013-01-07 13:13:00,
2013-01-07 05:14:00,45.1,44.6,29.62,East,90,2.9,2.9,98,0.00,,---,0.12,VWS V14.01,2013-01-07 13:14:00,
2013-01-07 05:15:00,45.1,44.6,29.62,ESE,112,4.0,4.0,98,0.00,,---,0.12,VWS V14.01,2013-01-07 13:15:00,
2013-01-07 05:16:00,45.1,44.6,29.62,ESE,112,3.6,4.0,98,0.00,,---,0.12,VWS V14.01,2013-01-07 13:16:00,
2013-01-07 05:17:00,45.1,44.6,29.62,ESE,112,1.3,3.6,98,0.00,,---,0.12,VWS V14.01,2013-01-07 13:17:00,
2013-01-07 05:18:00,45.1,44.6,29.62,SSW,202,1.6,1.6,98,0.00,,---,0.12,VWS V14.01,2013-01-07 13:18:00,
2013-01-07 05:19:00,45.1,44.6,29.62,SSW,202,0.0,6.5,98,0.00,,---,0.12,VWS V14.01,2013-01-07 13:19:00,
2013-01-07 05:20:00,45.1,44.6,29.62,SE,135,2.0,2.0,98,0.00,,---,0.12,VWS V14.01,2013-01-07 13:20:00,
2013-01-07 05:21:00,45.1,44.6,29.62,ESE,112,3.4,3.4,98,0.00,,---,0.12,VWS V14.01,2013-01-07 13:21:00,
2013-01-07 05:23:00,45.1,44.6,29.59,SSE,158,1.6,2.5,98,0.00,,---,0.12,VWS V14.01,2013-01-07 13:23:00,
2013-01-07 05:24:00,45.1,44.6,29.59,SE,135,3.4,3.8,98,0.00,,---,0.12,VWS V14.01,2013-01-07 13:24:00,
2013-01-07 05:25:00,45.1,44.6,29.59,ESE,112,3.8,3.8,98,0.04,,---,0.16,VWS V14.01,2013-01-07 13:25:00,
2013-01-07 05:26:00,45.1,44.6,29.59,SSE,158,3.6,3.8,98,0.04,,---,0.16,VWS V14.01,2013-01-07 13:26:00,
2013-01-07 05:27:00,45.1,44.6,29.59,ESE,112,2.7,3.6,98,0.04,,---,0.16,VWS V14.01,2013-01-07 13:27:00,
2013-01-07 05:28:00,45.1,44.6,29.59,SSE,158,3.8,3.8,98,0.04,,---,0.16,VWS V14.01,2013-01-07 13:28:00,
2013-01-07 05:29:00,45.1,44.6,29.59,South,180,2.5,3.8,98,0.04,,---,0.16,VWS V14.01,2013-01-07 13:29:00,
2013-01-07 05:30:00,45.3,44.8,29.59,ESE,112,2.7,2.9,98,0.04,,---,0.16,VWS V14.01,2013-01-07 13:30:00,
2013-01-07 05:32:00,45.3,44.8,29.59,ENE,68,3.1,3.4,98,0.04,,---,0.16,VWS V14.01,2013-01-07 13:32:00,
2013-01-07 05:33:00,45.3,44.8,29.59,NE,45,1.1,3.1,98,0.04,,---,0.16,VWS V14.01,2013-01-07 13:33:00,
2013-01-07 05:34:00,45.3,44.8,29.59,SW,225,1.6,2.2,98,0.04,,---,0.16,VWS V14.01,2013-01-07 13:34:00,
2013-01-07 05:35:00,45.3,44.8,29.59,SSE,158,5.4,5.4,98,0.04,,---,0.16,VWS V14.01,2013-01-07 13:35:00,
2013-01-07 05:36:00,45.3,44.8,29.59,SSE,158,3.8,5.4,98,0.04,,---,0.16,VWS V14.01,2013-01-07 13:36:00,
2013-01-07 05:38:00,45.5,45.0,29.59,SSW,202,7.2,7.2,98,0.04,,---,0.16,VWS V14.01,2013-01-07 13:38:00,
2013-01-07 05:39:00,45.7,45.2,29.59,NNE,22,2.9,7.2,98,0.04,,---,0.16,VWS V14.01,2013-01-07 13:39:00,
2013-01-07 05:40:00,46.0,45.5,29.59,SSE,158,3.8,6.0,98,0.04,,---,0.16,VWS V14.01,2013-01-07 13:40:00,
2013-01-07 05:41:00,46.0,45.5,29.59,SSE,158,3.8,6.0,98,0.04,,---,0.16,VWS V14.01,2013-01-07 13:41:00,
2013-01-07 05:42:00,46.0,45.5,29.59,SSE,158,2.2,4.7,98,0.04,,---,0.16,VWS V14.01,2013-01-07 13:42:00,
2013-01-07 05:43:00,46.0,45.5,29.59,ESE,112,2.7,2.7,98,0.04,,---,0.16,VWS V14.01,2013-01-07 13:43:00,
2013-01-07 05:44:00,46.0,45.5,29.59,SSE,158,2.7,4.0,98,0.04,,---,0.16,VWS V14.01,2013-01-07 13:44:00,
2013-01-07 05:45:00,46.0,45.5,29.59,SSW,202,2.5,2.9,98,0.04,,---,0.16,VWS V14.01,2013-01-07 13:45:00,
2013-01-07 05:46:00,46.0,45.5,29.59,East,90,3.1,3.1,98,0.04,,---,0.16,VWS V14.01,2013-01-07 13:46:00,
2013-01-07 05:47:00,46.0,45.5,29.59,SSE,158,3.1,5.4,98,0.04,,---,0.16,VWS V14.01,2013-01-07 13:47:00,
2013-01-07 05:48:00,46.0,45.5,29.59,SSE,158,3.4,3.4,98,0.04,,---,0.16,VWS V14.01,2013-01-07 13:48:00,
2013-01-07 05:49:00,46.0,45.5,29.59,SE,135,0.9,8.1,98,0.04,,---,0.16,VWS V14.01,2013-01-07 13:49:00,
2013-01-07 05:50:00,46.0,45.5,29.59,ESE,112,0.0,2.9,98,0.04,,---,0.16,VWS V14.01,2013-01-07 13:50:00,
2013-01-07 05:51:00,46.0,45.5,29.59,NNE,22,2.9,2.9,98,0.04,,---,0.16,VWS V14.01,2013-01-07 13:51:00,
2013-01-07 05:52:00,46.0,45.5,29.59,South,180,4.9,4.9,98,0.04,,---,0.16,VWS V14.01,2013-01-07 13:52:00,
2013-01-07 05:53:00,46.0,45.5,29.59,South,180,2.2,4.9,98,0.04,,---,0.16,VWS V14.01,2013-01-07 13:53:00,
2013-01-07 05:54:00,46.0,45.5,29.59,SSE,158,1.6,2.2,98,0.04,,---,0.16,VWS V14.01,2013-01-07 13:54:00,
2013-01-07 05:55:00,46.2,45.7,29.59,ESE,112,4.3,7.8,98,0.04,,---,0.16,VWS V14.01,2013-01-07 13:55:00,
2013-01-07 05:56:00,46.2,45.7,29.59,ESE,112,3.1,7.8,98,0.04,,---,0.16,VWS V14.01,2013-01-07 13:56:00,
2013-01-07 05:57:00,46.2,45.7,29.59,East,90,4.3,7.6,98,0.04,,---,0.16,VWS V14.01,2013-01-07 13:57:00,
2013-01-07 05:58:00,46.2,45.7,29.59,SSE,158,3.1,4.3,98,0.04,,---,0.16,VWS V14.01,2013-01-07 13:58:00,
2013-01-07 05:59:00,46.2,45.7,29.59,SSW,202,2.5,3.6,98,0.04,,---,0.16,VWS V14.01,2013-01-07 13:59:00,
2013-01-07 06:00:00,46.2,45.7,29.59,ENE,68,2.0,3.1,98,0.04,,---,0.16,VWS V14.01,2013-01-07 14:00:00,
2013-01-07 06:01:00,46.2,45.7,29.59,ESE,112,1.3,3.1,98,0.04,,---,0.16,VWS V14.01,2013-01-07 14:01:00,
2013-01-07 06:02:00,46.2,45.7,29.59,NNE,22,3.4,3.4,98,0.04,,---,0.16,VWS V14.01,2013-01-07 14:02:00,
2013-01-07 06:03:00,46.2,45.7,29.59,SSE,158,4.0,4.0,98,0.04,,---,0.16,VWS V14.01,2013-01-07 14:03:00,
2013-01-07 06:04:00,46.2,45.7,29.59,ENE,68,1.3,4.0,98,0.04,,---,0.16,VWS V14.01,2013-01-07 14:04:00,
2013-01-07 06:05:00,46.0,45.5,29.59,NNE,22,2.0,2.0,98,0.04,,---,0.16,VWS V14.01,2013-01-07 14:05:00,
2013-01-07 06:06:00,46.0,45.5,29.59,SE,135,1.3,2.0,98,0.04,,---,0.16,VWS V14.01,2013-01-07 14:06:00,
2013-01-07 06:07:00,46.0,45.5,29.59,SSW,202,0.9,1.3,98,0.04,,---,0.16,VWS V14.01,2013-01-07 14:07:00,
2013-01-07 06:08:00,46.0,45.5,29.62,SSW,202,0.0,0.9,98,0.04,,---,0.16,VWS V14.01,2013-01-07 14:08:00,
2013-01-07 06:09:00,46.0,45.5,29.62,SE,135,0.0,0.0,98,0.04,,---,0.16,VWS V14.01,2013-01-07 14:09:00,
2013-01-07 06:10:00,45.9,45.3,29.62,North,0,0.9,2.0,98,0.04,,---,0.16,VWS V14.01,2013-01-07 14:10:00,
2013-01-07 06:11:00,45.9,45.3,29.62,NNE,22,2.5,2.5,98,0.04,,---,0.16,VWS V14.01,2013-01-07 14:11:00,
2013-01-07 06:12:00,45.9,45.3,29.62,NNE,22,1.3,2.5,98,0.04,,---,0.16,VWS V14.01,2013-01-07 14:12:00,
2013-01-07 06:13:00,45.9,45.3,29.62,SSE,158,1.3,2.5,98,0.04,,---,0.16,VWS V14.01,2013-01-07 14:13:00,
2013-01-07 06:14:00,45.9,45.3,29.62,ENE,68,1.6,1.6,98,0.04,,---,0.16,VWS V14.01,2013-01-07 14:14:00,
2013-01-07 06:15:00,45.9,45.3,29.62,SSW,202,1.1,1.1,98,0.04,,---,0.16,VWS V14.01,2013-01-07 14:15:00,
2013-01-07 06:16:00,45.9,45.3,29.62,SSE,158,1.3,1.3,98,0.04,,---,0.16,VWS V14.01,2013-01-07 14:16:00,
2013-01-07 06:17:00,45.9,45.3,29.62,South,180,1.6,2.7,98,0.04,,---,0.16,VWS V14.01,2013-01-07 14:17:00,
2013-01-07 06:18:00,45.9,45.3,29.62,ENE,68,0.0,2.0,98,0.04,,---,0.16,VWS V14.01,2013-01-07 14:18:00,
2013-01-07 06:19:00,45.9,45.3,29.62,NNE,22,3.1,3.1,98,0.04,,---,0.16,VWS V14.01,2013-01-07 14:19:00,
2013-01-07 06:20:00,45.9,45.3,29.62,ENE,68,3.1,5.8,98,0.04,,---,0.16,VWS V14.01,2013-01-07 14:20:00,
2013-01-07 06:21:00,45.9,45.3,29.62,ESE,112,2.0,5.8,98,0.04,,---,0.16,VWS V14.01,2013-01-07 14:21:00,
2013-01-07 06:22:00,45.9,45.3,29.62,ENE,68,2.5,6.0,98,0.04,,---,0.16,VWS V14.01,2013-01-07 14:22:00,
2013-01-07 06:23:00,45.9,45.3,29.59,East,90,2.2,2.5,98,0.04,,---,0.16,VWS V14.01,2013-01-07 14:23:00,
2013-01-07 06:24:00,46.0,45.5,29.59,SE,135,4.0,4.0,98,0.04,,---,0.16,VWS V14.01,2013-01-07 14:24:00,
2013-01-07 06:25:00,46.0,45.5,29.59,ESE,112,3.4,3.4,98,0.04,,---,0.16,VWS V14.01,2013-01-07 14:25:00,
2013-01-07 06:26:00,46.0,45.5,29.59,East,90,1.3,3.4,98,0.04,,---,0.16,VWS V14.01,2013-01-07 14:26:00,
2013-01-07 06:27:00,46.0,45.5,29.59,ESE,112,5.8,5.8,98,0.00,,---,0.16,VWS V14.01,2013-01-07 14:27:00,
2013-01-07 06:28:00,46.0,45.5,29.59,ESE,112,1.6,5.8,98,0.00,,---,0.16,VWS V14.01,2013-01-07 14:28:00,
2013-01-07 06:29:00,46.0,45.5,29.59,SE,135,0.0,1.6,98,0.00,,---,0.16,VWS V14.01,2013-01-07 14:29:00,
2013-01-07 06:30:00,46.0,45.5,29.59,ESE,112,4.7,4.7,98,0.00,,---,0.16,VWS V14.01,2013-01-07 14:30:00,
2013-01-07 06:35:00,46.0,45.5,29.59,SSW,202,1.3,1.3,98,0.00,,---,0.16,VWS V14.01,2013-01-07 14:35:00,
2013-01-07 06:36:00,46.0,45.5,29.59,WSW,248,2.0,2.0,98,0.00,,---,0.16,VWS V14.01,2013-01-07 14:36:00,
2013-01-07 06:40:00,45.9,45.3,29.59,SSW,202,3.4,3.4,98,0.00,,---,0.16,VWS V14.01,2013-01-07 14:40:00,
2013-01-07 06:42:00,45.9,45.3,29.59,ESE,112,4.0,6.0,98,0.00,,---,0.16,VWS V14.01,2013-01-07 14:42:00,
2013-01-07 06:44:00,46.0,45.5,29.59,SSE,158,1.3,3.4,98,0.00,,---,0.16,VWS V14.01,2013-01-07 14:44:00,
2013-01-07 06:45:00,45.9,45.3,29.59,South,180,2.9,2.9,98,0.00,,---,0.16,VWS V14.01,2013-01-07 14:45:00,
2013-01-07 06:49:00,46.0,45.5,29.59,SSE,158,1.3,3.1,98,0.00,,---,0.16,VWS V14.01,2013-01-07 14:49:00,
2013-01-07 06:50:00,46.0,45.5,29.59,NNE,22,2.9,2.9,98,0.00,,---,0.16,VWS V14.01,2013-01-07 14:50:00,
2013-01-07 06:51:00,46.0,45.5,29.59,SW,225,1.6,2.9,98,0.00,,---,0.16,VWS V14.01,2013-01-07 14:51:00,
2013-01-07 06:52:00,45.9,45.3,29.59,SSE,158,2.0,3.4,98,0.00,,---,0.16,VWS V14.01,2013-01-07 14:52:00,
2013-01-07 06:53:00,45.9,45.3,29.59,NE,45,2.5,2.5,98,0.00,,---,0.16,VWS V14.01,2013-01-07 14:53:00,
2013-01-07 06:55:00,45.9,45.3,29.59,East,90,1.1,2.0,98,0.00,,---,0.16,VWS V14.01,2013-01-07 14:55:00,
2013-01-07 06:56:00,45.9,45.3,29.59,East,90,1.1,2.0,98,0.00,,---,0.16,VWS V14.01,2013-01-07 14:56:00,
2013-01-07 07:00:00,46.0,45.5,29.59,East,90,3.8,11.0,98,0.00,,---,0.16,VWS V14.01,2013-01-07 15:00:00,
2013-01-07 07:02:00,46.0,45.5,29.59,SSW,202,1.3,2.2,98,0.00,,---,0.16,VWS V14.01,2013-01-07 15:02:00,
2013-01-07 07:03:00,46.0,45.5,29.59,ESE,112,3.1,3.8,98,0.00,,---,0.16,VWS V14.01,2013-01-07 15:03:00,
2013-01-07 07:04:00,46.0,45.5,29.59,ESE,112,2.7,3.4,98,0.00,,---,0.16,VWS V14.01,2013-01-07 15:04:00,
2013-01-07 07:05:00,46.0,45.5,29.59,SSE,158,4.0,4.3,98,0.00,,---,0.16,VWS V14.01,2013-01-07 15:05:00,
2013-01-07 07:06:00,46.0,45.5,29.59,South,180,3.1,4.3,98,0.00,,---,0.16,VWS V14.01,2013-01-07 15:06:00,
2013-01-07 07:07:00,46.0,45.5,29.59,ESE,112,2.7,5.4,98,0.00,,---,0.16,VWS V14.01,2013-01-07 15:07:00,
2013-01-07 07:08:00,46.2,45.7,29.59,ESE,112,5.6,5.6,98,0.00,,---,0.16,VWS V14.01,2013-01-07 15:08:00,
2013-01-07 07:09:00,46.2,45.7,29.59,South,180,9.8,9.8,98,0.00,,---,0.16,VWS V14.01,2013-01-07 15:09:00,
2013-01-07 07:10:00,46.2,45.7,29.59,SSW,202,6.0,9.2,98,0.00,,---,0.16,VWS V14.01,2013-01-07 15:10:00,
2013-01-07 07:11:00,46.2,45.7,29.59,NNW,338,3.8,9.2,98,0.00,,---,0.16,VWS V14.01,2013-01-07 15:11:00,
2013-01-07 07:12:00,46.2,45.7,29.59,SE,135,4.3,4.3,98,0.00,,---,0.16,VWS V14.01,2013-01-07 15:12:00,
2013-01-07 07:13:00,46.2,45.7,29.59,ENE,68,3.4,4.3,98,0.00,,---,0.16,VWS V14.01,2013-01-07 15:13:00,
2013-01-07 07:14:00,46.2,45.7,29.59,ESE,112,2.0,3.4,98,0.00,,---,0.16,VWS V14.01,2013-01-07 15:14:00,
2013-01-07 07:15:00,46.2,45.7,29.59,SSE,158,1.6,3.4,98,0.00,,---,0.16,VWS V14.01,2013-01-07 15:15:00,
2013-01-07 07:16:00,46.2,45.7,29.59,NNE,22,2.7,3.8,98,0.00,,---,0.16,VWS V14.01,2013-01-07 15:16:00,
2013-01-07 07:17:00,46.2,45.7,29.59,ENE,68,7.8,7.8,98,0.00,,---,0.16,VWS V14.01,2013-01-07 15:17:00,
2013-01-07 07:18:00,46.4,45.9,29.59,SE,135,1.1,7.8,98,0.00,,---,0.16,VWS V14.01,2013-01-07 15:18:00,
2013-01-07 07:19:00,46.4,45.9,29.59,ESE,112,3.1,3.1,98,0.00,,---,0.16,VWS V14.01,2013-01-07 15:19:00,
2013-01-07 07:20:00,46.4,45.9,29.59,NE,45,1.1,4.0,98,0.00,,---,0.16,VWS V14.01,2013-01-07 15:20:00,
2013-01-07 07:21:00,46.4,45.9,29.59,SSW,202,2.0,4.0,98,0.00,,---,0.16,VWS V14.01,2013-01-07 15:21:00,
2013-01-07 07:22:00,46.4,45.9,29.59,NNE,22,1.6,2.9,98,0.00,,---,0.16,VWS V14.01,2013-01-07 15:22:00,
2013-01-07 07:23:00,46.4,45.9,29.59,SSE,158,2.2,3.6,98,0.00,,---,0.16,VWS V14.01,2013-01-07 15:23:00,
2013-01-07 07:24:00,46.4,45.9,29.59,NE,45,2.7,2.7,98,0.00,,---,0.16,VWS V14.01,2013-01-07 15:24:00,
2013-01-07 07:25:00,46.4,45.9,29.59,SSW,202,4.7,4.7,98,0.00,,---,0.16,VWS V14.01,2013-01-07 15:25:00,
2013-01-07 07:26:00,46.4,45.9,29.59,ENE,68,6.9,6.9,98,0.00,,---,0.16,VWS V14.01,2013-01-07 15:26:00,
2013-01-07 07:27:00,46.4,45.9,29.59,South,180,3.1,10.3,98,0.00,,---,0.16,VWS V14.01,2013-01-07 15:27:00,
2013-01-07 07:28:00,46.4,45.9,29.59,WNW,292,1.6,3.6,98,0.00,,---,0.16,VWS V14.01,2013-01-07 15:28:00,
2013-01-07 07:29:00,46.4,45.9,29.59,ESE,112,4.0,5.4,98,0.00,,---,0.16,VWS V14.01,2013-01-07 15:29:00,
2013-01-07 07:30:00,46.6,46.0,29.59,ESE,112,2.5,4.3,98,0.00,,---,0.16,VWS V14.01,2013-01-07 15:30:00,
2013-01-07 07:31:00,46.6,46.0,29.59,NE,45,2.0,4.3,98,0.00,,---,0.16,VWS V14.01,2013-01-07 15:31:00,
2013-01-07 07:32:00,46.6,46.0,29.59,South,180,1.1,2.5,98,0.00,,---,0.16,VWS V14.01,2013-01-07 15:32:00,
2013-01-07 07:33:00,46.6,46.0,29.59,SE,135,7.8,8.7,98,0.00,,---,0.16,VWS V14.01,2013-01-07 15:33:00,
2013-01-07 07:34:00,46.6,46.0,29.59,NE,45,4.9,7.8,98,0.00,,---,0.16,VWS V14.01,2013-01-07 15:34:00,
2013-01-07 07:35:00,46.6,46.0,29.59,SSW,202,1.1,3.6,98,0.00,,---,0.16,VWS V14.01,2013-01-07 15:35:00,
2013-01-07 07:36:00,46.6,46.0,29.59,NNE,22,4.5,4.5,98,0.00,,---,0.16,VWS V14.01,2013-01-07 15:36:00,
2013-01-07 07:37:00,46.6,46.0,29.59,SSE,158,2.7,7.2,98,0.00,,---,0.16,VWS V14.01,2013-01-07 15:37:00,
2013-01-07 07:38:00,46.6,46.0,29.59,South,180,2.9,5.6,98,0.00,,---,0.16,VWS V14.01,2013-01-07 15:38:00,
2013-01-07 07:39:00,46.6,46.0,29.59,WNW,292,3.1,4.7,98,0.00,,---,0.16,VWS V14.01,2013-01-07 15:39:00,
2013-01-07 07:40:00,46.6,46.0,29.59,ENE,68,6.3,6.3,98,0.00,,---,0.16,VWS V14.01,2013-01-07 15:40:00,
2013-01-07 07:41:00,46.6,46.0,29.59,SSE,158,4.0,6.3,98,0.00,,---,0.16,VWS V14.01,2013-01-07 15:41:00,
2013-01-07 07:42:00,46.8,46.2,29.59,NNE,22,2.5,4.0,98,0.00,,---,0.16,VWS V14.01,2013-01-07 15:42:00,
2013-01-07 07:43:00,46.8,46.2,29.59,SSE,158,3.4,6.3,98,0.00,,---,0.16,VWS V14.01,2013-01-07 15:43:00,
2013-01-07 07:44:00,46.8,46.2,29.59,SE,135,2.0,5.8,98,0.00,,---,0.16,VWS V14.01,2013-01-07 15:44:00,
2013-01-07 07:45:00,46.8,46.2,29.59,SSE,158,3.4,7.4,98,0.00,,---,0.16,VWS V14.01,2013-01-07 15:45:00,
2013-01-07 07:46:00,46.8,46.2,29.59,ESE,112,6.0,7.4,98,0.00,,---,0.16,VWS V14.01,2013-01-07 15:46:00,
2013-01-07 07:47:00,46.9,46.4,29.59,SSE,158,4.3,8.1,98,0.00,,---,0.16,VWS V14.01,2013-01-07 15:47:00,
2013-01-07 07:48:00,46.9,46.4,29.59,SSE,158,2.7,4.9,98,0.00,,---,0.16,VWS V14.01,2013-01-07 15:48:00,
2013-01-07 07:49:00,46.9,46.4,29.59,South,180,3.6,3.6,98,0.00,,---,0.16,VWS V14.01,2013-01-07 15:49:00,
2013-01-07 07:50:00,46.9,46.4,29.59,SSE,158,3.6,3.6,98,0.00,,---,0.16,VWS V14.01,2013-01-07 15:50:00,
2013-01-07 07:51:00,46.9,46.4,29.59,SSW,202,2.9,3.6,98,0.00,,---,0.16,VWS V14.01,2013-01-07 15:51:00,
2013-01-07 07:52:00,46.9,46.4,29.59,ESE,112,5.4,8.1,98,0.00,,---,0.16,VWS V14.01,2013-01-07 15:52:00,
2013-01-07 07:53:00,46.9,46.4,29.59,SSE,158,4.7,5.4,98,0.00,,---,0.16,VWS V14.01,2013-01-07 15:53:00,
2013-01-07 07:54:00,46.9,46.4,29.59,South,180,2.7,4.7,98,0.00,,---,0.16,VWS V14.01,2013-01-07 15:54:00,
2013-01-07 07:55:00,46.9,46.4,29.59,SSW,202,3.4,6.5,98,0.00,,---,0.16,VWS V14.01,2013-01-07 15:55:00,
2013-01-07 07:56:00,46.9,46.4,29.59,ESE,112,1.6,6.5,98,0.00,,---,0.16,VWS V14.01,2013-01-07 15:56:00,
2013-01-07 07:57:00,47.1,46.6,29.59,ESE,112,8.5,8.5,98,0.00,,---,0.16,VWS V14.01,2013-01-07 15:57:00,
2013-01-07 07:58:00,47.1,46.6,29.59,ESE,112,3.4,8.5,98,0.00,,---,0.16,VWS V14.01,2013-01-07 15:58:00,
2013-01-07 07:59:00,47.1,46.3,29.59,SSE,158,4.7,8.1,97,0.00,,---,0.16,VWS V14.01,2013-01-07 15:59:00,
2013-01-07 08:00:00,47.1,46.3,29.59,NNE,22,4.3,4.3,97,0.00,,---,0.16,VWS V14.01,2013-01-07 16:00:00,
2013-01-07 08:01:00,47.1,46.3,29.59,SSE,158,3.4,4.3,97,0.00,,---,0.16,VWS V14.01,2013-01-07 16:01:00,
2013-01-07 08:02:00,47.3,46.5,29.59,ESE,112,8.7,8.7,97,0.00,,---,0.16,VWS V14.01,2013-01-07 16:02:00,
2013-01-07 08:03:00,47.3,46.5,29.59,South,180,6.3,8.7,97,0.00,,---,0.16,VWS V14.01,2013-01-07 16:03:00,
2013-01-07 08:04:00,47.3,46.2,29.59,SSE,158,5.4,6.3,96,0.00,,---,0.16,VWS V14.01,2013-01-07 16:04:00,
2013-01-07 08:05:00,47.5,46.4,29.59,SE,135,6.5,6.9,96,0.00,,---,0.16,VWS V14.01,2013-01-07 16:05:00,
2013-01-07 08:06:00,47.5,46.4,29.59,ESE,112,5.8,7.2,96,0.00,,---,0.16,VWS V14.01,2013-01-07 16:06:00,
2013-01-07 08:07:00,47.5,46.4,29.59,ENE,68,2.7,7.4,96,0.00,,---,0.16,VWS V14.01,2013-01-07 16:07:00,
2013-01-07 08:08:00,47.5,46.4,29.59,SW,225,2.7,9.6,96,0.00,,---,0.16,VWS V14.01,2013-01-07 16:08:00,
2013-01-07 08:09:00,47.5,46.4,29.59,South,180,6.5,17.7,96,0.00,,---,0.16,VWS V14.01,2013-01-07 16:09:00,
2013-01-07 08:10:00,47.7,46.3,29.59,ESE,112,3.1,12.1,95,0.00,,---,0.16,VWS V14.01,2013-01-07 16:10:00,
2013-01-07 08:11:00,47.7,46.3,29.59,SSE,158,3.4,12.1,95,0.00,,---,0.16,VWS V14.01,2013-01-07 16:11:00,
2013-01-07 08:12:00,47.7,46.3,29.59,ESE,112,4.9,6.3,95,0.00,,---,0.16,VWS V14.01,2013-01-07 16:12:00,
2013-01-07 08:13:00,47.7,46.3,29.59,West,270,4.0,4.9,95,0.00,,---,0.16,VWS V14.01,2013-01-07 16:13:00,
2013-01-07 08:14:00,47.8,46.5,29.59,ESE,112,2.7,6.3,95,0.00,,---,0.16,VWS V14.01,2013-01-07 16:14:00,
2013-01-07 08:15:00,47.8,46.5,29.59,WSW,248,7.2,7.2,95,0.00,,---,0.16,VWS V14.01,2013-01-07 16:15:00,
2013-01-07 08:16:00,47.8,46.5,29.59,SSE,158,2.9,7.2,95,0.00,,---,0.16,VWS V14.01,2013-01-07 16:16:00,
2013-01-07 08:17:00,47.8,46.2,29.59,ENE,68,3.8,3.8,94,0.00,,---,0.16,VWS V14.01,2013-01-07 16:17:00,
2013-01-07 08:18:00,48.0,46.4,29.59,SE,135,7.8,7.8,94,0.00,,---,0.16,VWS V14.01,2013-01-07 16:18:00,
2013-01-07 08:19:00,48.0,46.4,29.59,WSW,248,8.1,8.1,94,0.00,,---,0.16,VWS V14.01,2013-01-07 16:19:00,
2013-01-07 08:20:00,48.0,46.1,29.59,SE,135,2.5,6.3,93,0.00,,---,0.16,VWS V14.01,2013-01-07 16:20:00,
2013-01-07 08:21:00,48.0,46.1,29.59,ESE,112,3.6,6.3,93,0.00,,---,0.16,VWS V14.01,2013-01-07 16:21:00,
2013-01-07 08:22:00,48.0,46.1,29.59,SSE,158,3.1,8.1,93,0.00,,---,0.16,VWS V14.01,2013-01-07 16:22:00,
2013-01-07 08:23:00,48.2,46.0,29.59,SSE,158,8.5,8.5,92,0.00,,---,0.16,VWS V14.01,2013-01-07 16:23:00,
2013-01-07 08:24:00,48.2,46.0,29.59,SE,135,5.6,8.5,92,0.00,,---,0.16,VWS V14.01,2013-01-07 16:24:00,
2013-01-07 08:25:00,48.4,45.9,29.59,SSE,158,7.6,8.5,91,0.00,,---,0.16,VWS V14.01,2013-01-07 16:25:00,
2013-01-07 08:26:00,48.4,45.9,29.59,ESE,112,5.8,8.5,91,0.00,,---,0.16,VWS V14.01,2013-01-07 16:26:00,
2013-01-07 08:27:00,48.4,45.9,29.59,ESE,112,7.8,7.8,91,0.00,,---,0.16,VWS V14.01,2013-01-07 16:27:00,
2013-01-07 08:28:00,48.4,45.9,29.59,East,90,2.7,7.8,91,0.00,,---,0.16,VWS V14.01,2013-01-07 16:28:00,
2013-01-07 08:29:00,48.4,45.9,29.59,WSW,248,4.9,4.9,91,0.00,,---,0.16,VWS V14.01,2013-01-07 16:29:00,
2013-01-07 08:30:00,48.4,45.6,29.59,ENE,68,4.0,19.0,90,0.00,,---,0.16,VWS V14.01,2013-01-07 16:30:00,
2013-01-07 08:31:00,48.4,45.6,29.59,SSE,158,4.7,19.0,90,0.00,,---,0.16,VWS V14.01,2013-01-07 16:31:00,
2013-01-07 08:32:00,48.6,45.8,29.59,ESE,112,4.7,8.5,90,0.00,,---,0.16,VWS V14.01,2013-01-07 16:32:00,
2013-01-07 08:33:00,48.4,45.6,29.59,East,90,3.8,5.8,90,0.00,,---,0.16,VWS V14.01,2013-01-07 16:33:00,
2013-01-07 08:34:00,48.4,45.6,29.59,East,90,3.4,6.5,90,0.00,,---,0.16,VWS V14.01,2013-01-07 16:34:00,
2013-01-07 08:35:00,48.6,45.8,29.59,SE,135,4.7,9.6,90,0.00,,---,0.16,VWS V14.01,2013-01-07 16:35:00,
2013-01-07 08:36:00,48.6,45.8,29.59,SE,135,9.6,9.6,90,0.00,,---,0.16,VWS V14.01,2013-01-07 16:36:00,
2013-01-07 08:37:00,48.6,45.8,29.59,NE,45,3.6,9.6,90,0.00,,---,0.16,VWS V14.01,2013-01-07 16:37:00,
2013-01-07 08:38:00,48.6,45.8,29.59,SSE,158,4.5,5.8,90,0.00,,---,0.16,VWS V14.01,2013-01-07 16:38:00,
2013-01-07 08:39:00,48.6,45.8,29.59,East,90,3.4,6.0,90,0.00,,---,0.16,VWS V14.01,2013-01-07 16:39:00,
2013-01-07 08:40:00,48.6,45.8,29.59,ESE,112,7.4,7.4,90,0.00,,---,0.16,VWS V14.01,2013-01-07 16:40:00,
2013-01-07 08:41:00,48.6,45.8,29.59,SSE,158,3.8,7.4,90,0.00,,---,0.16,VWS V14.01,2013-01-07 16:41:00,
2013-01-07 08:42:00,48.6,45.8,29.59,SSE,158,3.8,4.9,90,0.00,,---,0.16,VWS V14.01,2013-01-07 16:42:00,
2013-01-07 08:43:00,48.6,45.8,29.59,SE,135,11.2,11.2,90,0.00,,---,0.16,VWS V14.01,2013-01-07 16:43:00,
2013-01-07 08:44:00,48.6,45.8,29.59,ESE,112,5.6,11.2,90,0.00,,---,0.16,VWS V14.01,2013-01-07 16:44:00,
2013-01-07 08:45:00,48.6,45.8,29.59,SSW,202,3.6,6.3,90,0.00,,---,0.16,VWS V14.01,2013-01-07 16:45:00,
2013-01-07 08:46:00,48.6,45.8,29.59,South,180,2.9,6.3,90,0.00,,---,0.16,VWS V14.01,2013-01-07 16:46:00,
2013-01-07 08:47:00,48.6,45.8,29.59,ENE,68,3.8,5.6,90,0.00,,---,0.16,VWS V14.01,2013-01-07 16:47:00,
2013-01-07 08:48:00,48.6,45.8,29.59,NNE,22,2.9,3.8,90,0.00,,---,0.16,VWS V14.01,2013-01-07 16:48:00,
2013-01-07 08:49:00,48.6,45.8,29.59,SSE,158,4.9,7.8,90,0.00,,---,0.16,VWS V14.01,2013-01-07 16:49:00,
2013-01-07 08:50:00,48.6,45.8,29.59,ESE,112,12.8,12.8,90,0.00,,---,0.16,VWS V14.01,2013-01-07 16:50:00,
2013-01-07 08:51:00,48.6,45.8,29.59,ESE,112,6.3,12.8,90,0.00,,---,0.16,VWS V14.01,2013-01-07 16:51:00,
2013-01-07 08:52:00,48.6,45.8,29.59,SSW,202,14.3,14.3,90,0.00,,---,0.16,VWS V14.01,2013-01-07 16:52:00,
2013-01-07 08:53:00,48.6,45.8,29.59,SSE,158,7.8,14.3,90,0.00,,---,0.16,VWS V14.01,2013-01-07 16:53:00,
2013-01-07 08:54:00,48.6,45.8,29.59,SE,135,10.3,10.3,90,0.00,,---,0.16,VWS V14.01,2013-01-07 16:54:00,
2013-01-07 08:55:00,48.6,46.3,29.59,SE,135,8.1,8.1,92,0.00,,---,0.16,VWS V14.01,2013-01-07 16:55:00,
2013-01-07 08:56:00,48.6,46.3,29.59,ESE,112,3.4,8.1,92,0.00,,---,0.16,VWS V14.01,2013-01-07 16:56:00,
2013-01-07 08:57:00,48.6,46.3,29.59,ESE,112,6.0,9.6,92,0.00,,---,0.16,VWS V14.01,2013-01-07 16:57:00,
2013-01-07 08:58:00,48.6,46.3,29.59,WSW,248,3.8,10.3,92,0.00,,---,0.16,VWS V14.01,2013-01-07 16:58:00,
2013-01-07 08:59:00,48.6,46.3,29.59,ESE,112,6.3,6.9,92,0.00,,---,0.16,VWS V14.01,2013-01-07 16:59:00,
2013-01-07 09:00:00,48.6,46.3,29.59,ESE,112,2.9,4.3,92,0.00,,---,0.16,VWS V14.01,2013-01-07 17:00:00,
2013-01-07 09:01:00,48.6,46.3,29.59,ESE,112,6.0,6.0,92,0.00,,---,0.16,VWS V14.01,2013-01-07 17:01:00,
2013-01-07 09:02:00,48.6,46.3,29.59,ESE,112,5.4,12.3,92,0.00,,---,0.16,VWS V14.01,2013-01-07 17:02:00,
2013-01-07 09:03:00,48.6,46.3,29.59,South,180,6.5,10.5,92,0.00,,---,0.16,VWS V14.01,2013-01-07 17:03:00,
2013-01-07 09:04:00,48.6,46.3,29.59,SSW,202,4.0,8.1,92,0.00,,---,0.16,VWS V14.01,2013-01-07 17:04:00,
2013-01-07 09:05:00,48.6,46.3,29.59,East,90,3.8,5.8,92,0.00,,---,0.16,VWS V14.01,2013-01-07 17:05:00,
2013-01-07 09:06:00,48.6,46.3,29.59,SSE,158,8.7,8.7,92,0.00,,---,0.16,VWS V14.01,2013-01-07 17:06:00,
2013-01-07 09:07:00,48.6,46.3,29.59,SSE,158,5.6,8.7,92,0.00,,---,0.16,VWS V14.01,2013-01-07 17:07:00,
2013-01-07 09:08:00,48.6,46.3,29.59,SSE,158,3.4,5.8,92,0.00,,---,0.16,VWS V14.01,2013-01-07 17:08:00,
2013-01-07 09:09:00,48.6,46.6,29.59,SSE,158,8.1,8.1,93,0.00,,---,0.16,VWS V14.01,2013-01-07 17:09:00,
2013-01-07 09:10:00,48.6,46.6,29.59,SSE,158,3.4,11.0,93,0.00,,---,0.16,VWS V14.01,2013-01-07 17:10:00,
2013-01-07 09:11:00,48.7,46.8,29.59,SE,135,5.6,11.0,93,0.00,,---,0.16,VWS V14.01,2013-01-07 17:11:00,
2013-01-07 09:12:00,48.7,46.8,29.59,East,90,6.0,6.0,93,0.00,,---,0.16,VWS V14.01,2013-01-07 17:12:00,
2013-01-07 09:13:00,48.6,46.6,29.59,SSE,158,2.9,6.0,93,0.00,,---,0.16,VWS V14.01,2013-01-07 17:13:00,
2013-01-07 09:14:00,48.7,46.8,29.59,ESE,112,6.0,15.4,93,0.00,,---,0.16,VWS V14.01,2013-01-07 17:14:00,
2013-01-07 09:15:00,48.7,46.8,29.59,SSE,158,3.8,3.8,93,0.00,,---,0.16,VWS V14.01,2013-01-07 17:15:00,
2013-01-07 09:16:00,48.7,46.8,29.59,SE,135,2.5,3.8,93,0.00,,---,0.16,VWS V14.01,2013-01-07 17:16:00,
2013-01-07 09:17:00,48.7,46.8,29.59,ESE,112,3.4,4.9,93,0.00,,---,0.16,VWS V14.01,2013-01-07 17:17:00,
2013-01-07 09:18:00,48.7,46.8,29.59,SSE,158,3.4,6.3,93,0.00,,---,0.16,VWS V14.01,2013-01-07 17:18:00,
2013-01-07 09:19:00,48.6,46.9,29.59,SE,135,3.6,6.3,94,0.00,,---,0.16,VWS V14.01,2013-01-07 17:19:00,
2013-01-07 09:20:00,48.6,46.9,29.59,SSW,202,3.1,7.2,94,0.00,,---,0.16,VWS V14.01,2013-01-07 17:20:00,
2013-01-07 09:21:00,48.6,46.9,29.59,SSW,202,3.1,7.2,94,0.00,,---,0.16,VWS V14.01,2013-01-07 17:21:00,
2013-01-07 09:22:00,48.6,46.9,29.59,ESE,112,3.6,4.0,94,0.00,,---,0.16,VWS V14.01,2013-01-07 17:22:00,
2013-01-07 09:23:00,48.6,46.9,29.59,SE,135,3.6,14.1,94,0.00,,---,0.16,VWS V14.01,2013-01-07 17:23:00,
2013-01-07 09:24:00,48.6,46.9,29.59,SE,135,3.1,9.8,94,0.00,,---,0.16,VWS V14.01,2013-01-07 17:24:00,
2013-01-07 09:25:00,48.6,46.9,29.59,SSW,202,3.4,3.6,94,0.00,,---,0.16,VWS V14.01,2013-01-07 17:25:00,
2013-01-07 09:26:00,48.6,47.2,29.59,ESE,112,2.7,3.6,95,0.00,,---,0.16,VWS V14.01,2013-01-07 17:26:00,
2013-01-07 09:27:00,48.6,47.2,29.59,South,180,4.9,4.9,95,0.00,,---,0.16,VWS V14.01,2013-01-07 17:27:00,
2013-01-07 09:28:00,48.6,47.2,29.59,WSW,248,3.1,8.1,95,0.00,,---,0.16,VWS V14.01,2013-01-07 17:28:00,
2013-01-07 09:29:00,48.6,47.2,29.59,NNE,22,4.3,7.4,95,0.00,,---,0.16,VWS V14.01,2013-01-07 17:29:00,
2013-01-07 09:30:00,48.6,47.2,29.59,SSE,158,3.8,6.3,95,0.00,,---,0.16,VWS V14.01,2013-01-07 17:30:00,
2013-01-07 09:31:00,48.6,47.2,29.59,SSE,158,4.3,6.3,95,0.00,,---,0.16,VWS V14.01,2013-01-07 17:31:00,
2013-01-07 09:32:00,48.7,47.4,29.59,WSW,248,4.3,7.2,95,0.00,,---,0.16,VWS V14.01,2013-01-07 17:32:00,
2013-01-07 09:33:00,48.7,47.4,29.59,ENE,68,8.1,10.1,95,0.00,,---,0.16,VWS V14.01,2013-01-07 17:33:00,
2013-01-07 09:34:00,48.7,47.4,29.59,East,90,12.1,12.1,95,0.00,,---,0.16,VWS V14.01,2013-01-07 17:34:00,
2013-01-07 09:35:00,48.7,47.1,29.59,South,180,4.3,6.0,94,0.00,,---,0.16,VWS V14.01,2013-01-07 17:35:00,
2013-01-07 09:36:00,48.7,47.1,29.59,East,90,4.0,6.0,94,0.00,,---,0.16,VWS V14.01,2013-01-07 17:36:00,
2013-01-07 09:37:00,48.7,47.4,29.59,ESE,112,2.5,6.5,95,0.00,,---,0.16,VWS V14.01,2013-01-07 17:37:00,
2013-01-07 09:38:00,48.7,47.4,29.62,ENE,68,3.8,5.4,95,0.00,,---,0.16,VWS V14.01,2013-01-07 17:38:00,
2013-01-07 09:39:00,48.7,47.4,29.62,SSE,158,15.7,15.7,95,0.00,,---,0.16,VWS V14.01,2013-01-07 17:39:00,
2013-01-07 09:40:00,48.7,47.4,29.62,East,90,3.6,6.0,95,0.00,,---,0.16,VWS V14.01,2013-01-07 17:40:00,
2013-01-07 09:41:00,48.9,47.5,29.62,SSW,202,10.5,10.5,95,0.00,,---,0.16,VWS V14.01,2013-01-07 17:41:00,
2013-01-07 09:42:00,48.7,47.4,29.62,SSW,202,4.3,10.5,95,0.00,,---,0.16,VWS V14.01,2013-01-07 17:42:00,
2013-01-07 09:43:00,48.7,47.4,29.62,ESE,112,12.5,15.4,95,0.00,,---,0.16,VWS V14.01,2013-01-07 17:43:00,
2013-01-07 09:44:00,48.7,47.4,29.62,SSE,158,3.8,12.5,95,0.00,,---,0.16,VWS V14.01,2013-01-07 17:44:00,
2013-01-07 09:45:00,48.7,47.4,29.62,SE,135,8.5,8.5,95,0.00,,---,0.16,VWS V14.01,2013-01-07 17:45:00,
2013-01-07 09:46:00,48.7,47.4,29.62,SSE,158,8.1,8.5,95,0.00,,---,0.16,VWS V14.01,2013-01-07 17:46:00,
2013-01-07 09:47:00,48.7,47.4,29.62,ESE,112,10.5,10.5,95,0.00,,---,0.16,VWS V14.01,2013-01-07 17:47:00,
2013-01-07 09:48:00,48.7,47.4,29.62,ENE,68,4.3,10.5,95,0.00,,---,0.16,VWS V14.01,2013-01-07 17:48:00,
2013-01-07 09:49:00,48.7,47.4,29.62,East,90,2.7,7.2,95,0.00,,---,0.16,VWS V14.01,2013-01-07 17:49:00,
2013-01-07 09:50:00,48.7,47.4,29.62,SSE,158,14.8,14.8,95,0.00,,---,0.16,VWS V14.01,2013-01-07 17:50:00,
2013-01-07 09:51:00,48.7,47.4,29.62,SE,135,6.3,14.8,95,0.00,,---,0.16,VWS V14.01,2013-01-07 17:51:00,
2013-01-07 09:52:00,48.7,47.4,29.62,SSE,158,9.6,9.6,95,0.00,,---,0.16,VWS V14.01,2013-01-07 17:52:00,
2013-01-07 09:53:00,48.7,47.4,29.62,South,180,3.8,9.6,95,0.00,,---,0.16,VWS V14.01,2013-01-07 17:53:00,
2013-01-07 09:54:00,48.7,47.4,29.62,ESE,112,3.8,4.0,95,0.00,,---,0.16,VWS V14.01,2013-01-07 17:54:00,
2013-01-07 09:55:00,48.7,47.7,29.62,ESE,112,7.2,7.2,96,0.00,,---,0.16,VWS V14.01,2013-01-07 17:55:00,
2013-01-07 09:56:00,48.7,47.7,29.62,SSE,158,6.5,7.2,96,0.00,,---,0.16,VWS V14.01,2013-01-07 17:56:00,
2013-01-07 09:57:00,48.7,47.7,29.62,SE,135,4.0,6.5,96,0.00,,---,0.16,VWS V14.01,2013-01-07 17:57:00,
2013-01-07 09:58:00,48.7,47.7,29.62,ESE,112,4.0,4.7,96,0.00,,---,0.16,VWS V14.01,2013-01-07 17:58:00,
2013-01-07 09:59:00,48.7,47.7,29.62,South,180,2.5,5.6,96,0.00,,---,0.16,VWS V14.01,2013-01-07 17:59:00,
2013-01-07 10:00:00,48.7,47.7,29.62,SSW,202,6.0,6.0,96,0.00,,---,0.16,VWS V14.01,2013-01-07 18:00:00,
2013-01-07 10:01:00,48.7,47.7,29.62,ENE,68,3.1,6.0,96,0.00,,---,0.16,VWS V14.01,2013-01-07 18:01:00,
2013-01-07 10:02:00,48.7,47.7,29.62,SSE,158,3.6,10.7,96,0.00,,---,0.16,VWS V14.01,2013-01-07 18:02:00,
2013-01-07 10:03:00,48.7,47.7,29.62,SE,135,4.3,8.5,96,0.00,,---,0.16,VWS V14.01,2013-01-07 18:03:00,
2013-01-07 10:04:00,48.7,47.7,29.62,ESE,112,5.6,6.5,96,0.00,,---,0.16,VWS V14.01,2013-01-07 18:04:00,
2013-01-07 10:05:00,48.7,47.7,29.62,SSW,202,5.6,5.6,96,0.00,,---,0.16,VWS V14.01,2013-01-07 18:05:00,
2013-01-07 10:06:00,48.7,47.7,29.62,South,180,4.3,5.6,96,0.00,,---,0.16,VWS V14.01,2013-01-07 18:06:00,
2013-01-07 10:07:00,48.7,47.7,29.62,SE,135,2.0,4.3,96,0.00,,---,0.16,VWS V14.01,2013-01-07 18:07:00,
2013-01-07 10:08:00,48.7,47.7,29.59,SSE,158,3.1,4.7,96,0.00,,---,0.16,VWS V14.01,2013-01-07 18:08:00,
2013-01-07 10:09:00,48.7,47.7,29.59,NE,45,4.7,5.4,96,0.00,,---,0.16,VWS V14.01,2013-01-07 18:09:00,
2013-01-07 10:10:00,48.7,47.7,29.59,ESE,112,5.8,8.5,96,0.00,,---,0.16,VWS V14.01,2013-01-07 18:10:00,
2013-01-07 10:11:00,48.7,47.7,29.59,SSE,158,5.4,8.5,96,0.00,,---,0.16,VWS V14.01,2013-01-07 18:11:00,
2013-01-07 10:12:00,48.7,47.7,29.59,SSE,158,4.0,5.4,96,0.00,,---,0.16,VWS V14.01,2013-01-07 18:12:00,
2013-01-07 10:13:00,48.7,47.7,29.59,SE,135,4.9,4.9,96,0.00,,---,0.16,VWS V14.01,2013-01-07 18:13:00,
2013-01-07 10:14:00,48.7,47.7,29.59,ENE,68,3.1,10.5,96,0.00,,---,0.16,VWS V14.01,2013-01-07 18:14:00,
2013-01-07 10:15:00,48.7,47.7,29.59,ESE,112,5.8,13.0,96,0.00,,---,0.16,VWS V14.01,2013-01-07 18:15:00,
2013-01-07 10:16:00,48.7,47.7,29.59,SSE,158,2.9,10.5,96,0.00,,---,0.16,VWS V14.01,2013-01-07 18:16:00,
2013-01-07 10:17:00,48.7,47.7,29.59,SSE,158,5.8,7.6,96,0.00,,---,0.16,VWS V14.01,2013-01-07 18:17:00,
2013-01-07 10:18:00,48.7,47.7,29.59,East,90,6.7,6.7,96,0.00,,---,0.16,VWS V14.01,2013-01-07 18:18:00,
2013-01-07 10:19:00,48.7,47.7,29.59,ESE,112,7.8,7.8,96,0.00,,---,0.16,VWS V14.01,2013-01-07 18:19:00,
2013-01-07 10:20:00,48.7,47.7,29.59,ENE,68,5.8,6.7,96,0.00,,---,0.16,VWS V14.01,2013-01-07 18:20:00,
2013-01-07 10:21:00,48.7,47.7,29.59,SSW,202,3.6,6.7,96,0.00,,---,0.16,VWS V14.01,2013-01-07 18:21:00,
2013-01-07 10:22:00,48.7,47.7,29.59,NE,45,2.5,4.0,96,0.00,,---,0.16,VWS V14.01,2013-01-07 18:22:00,
2013-01-07 10:23:00,48.7,47.7,29.62,SSE,158,4.3,5.6,96,0.00,,---,0.16,VWS V14.01,2013-01-07 18:23:00,
2013-01-07 10:24:00,48.7,47.9,29.62,SE,135,3.8,9.4,97,0.00,,---,0.16,VWS V14.01,2013-01-07 18:24:00,
2013-01-07 10:25:00,48.7,47.9,29.62,ESE,112,9.4,9.4,97,0.00,,---,0.16,VWS V14.01,2013-01-07 18:25:00,
2013-01-07 10:26:00,48.7,47.9,29.62,ENE,68,5.4,9.4,97,0.00,,---,0.16,VWS V14.01,2013-01-07 18:26:00,
2013-01-07 10:27:00,48.7,47.9,29.62,ESE,112,4.7,7.4,97,0.00,,---,0.16,VWS V14.01,2013-01-07 18:27:00,
2013-01-07 10:28:00,48.7,47.9,29.62,SE,135,4.9,7.4,97,0.00,,---,0.16,VWS V14.01,2013-01-07 18:28:00,
2013-01-07 10:29:00,48.7,47.9,29.62,East,90,9.4,9.4,97,0.00,,---,0.16,VWS V14.01,2013-01-07 18:29:00,
2013-01-07 10:30:00,48.7,47.9,29.62,SSE,158,3.4,6.3,97,0.00,,---,0.16,VWS V14.01,2013-01-07 18:30:00,
2013-01-07 10:32:00,48.7,47.9,29.62,ESE,112,8.5,8.5,97,0.00,,---,0.16,VWS V14.01,2013-01-07 18:32:00,
2013-01-07 10:33:00,48.7,47.9,29.62,SE,135,5.6,8.5,97,0.00,,---,0.16,VWS V14.01,2013-01-07 18:33:00,
2013-01-07 10:34:00,48.7,47.9,29.62,ESE,112,10.5,10.5,97,0.00,,---,0.16,VWS V14.01,2013-01-07 18:34:00,
2013-01-07 10:35:00,48.7,47.9,29.62,SSE,158,7.8,9.4,97,0.00,,---,0.16,VWS V14.01,2013-01-07 18:35:00,
2013-01-07 10:36:00,48.7,47.9,29.62,SSE,158,2.9,10.5,97,0.00,,---,0.16,VWS V14.01,2013-01-07 18:36:00,
2013-01-07 10:37:00,48.7,47.9,29.62,ESE,112,3.1,5.8,97,0.00,,---,0.16,VWS V14.01,2013-01-07 18:37:00,
2013-01-07 10:38:00,48.7,47.9,29.65,NNE,22,2.0,6.0,97,0.00,,---,0.16,VWS V14.01,2013-01-07 18:38:00,
2013-01-07 10:39:00,48.9,48.1,29.65,WNW,292,2.9,3.4,97,0.00,,---,0.16,VWS V14.01,2013-01-07 18:39:00,
2013-01-07 10:40:00,48.9,48.1,29.65,ESE,112,3.1,6.3,97,0.00,,---,0.16,VWS V14.01,2013-01-07 18:40:00,
2013-01-07 10:41:00,48.7,47.9,29.65,ESE,112,0.9,3.4,97,0.00,,---,0.16,VWS V14.01,2013-01-07 18:41:00,
2013-01-07 10:42:00,48.9,48.1,29.65,SSW,202,11.0,16.8,97,0.00,,---,0.16,VWS V14.01,2013-01-07 18:42:00,
2013-01-07 10:43:00,48.9,48.1,29.65,ESE,112,5.6,11.0,97,0.00,,---,0.16,VWS V14.01,2013-01-07 18:43:00,
2013-01-07 10:44:00,48.9,48.1,29.65,SSE,158,3.8,5.6,97,0.00,,---,0.16,VWS V14.01,2013-01-07 18:44:00,
2013-01-07 10:45:00,48.9,48.1,29.65,SSE,158,1.3,5.6,97,0.00,,---,0.16,VWS V14.01,2013-01-07 18:45:00,
2013-01-07 10:46:00,48.9,48.1,29.65,SSE,158,10.3,10.3,97,0.00,,---,0.16,VWS V14.01,2013-01-07 18:46:00,
2013-01-07 10:47:00,48.9,48.1,29.65,NNE,22,3.4,10.3,97,0.00,,---,0.16,VWS V14.01,2013-01-07 18:47:00,
2013-01-07 10:48:00,48.9,48.1,29.65,ESE,112,3.1,6.3,97,0.00,,---,0.16,VWS V14.01,2013-01-07 18:48:00,
2013-01-07 10:49:00,48.9,48.1,29.65,SSE,158,5.8,7.6,97,0.00,,---,0.16,VWS V14.01,2013-01-07 18:49:00,
2013-01-07 10:50:00,48.9,48.1,29.65,NW,315,7.6,7.6,97,0.00,,---,0.16,VWS V14.01,2013-01-07 18:50:00,
2013-01-07 10:51:00,48.9,48.1,29.65,South,180,7.2,7.6,97,0.00,,---,0.16,VWS V14.01,2013-01-07 18:51:00,
2013-01-07 10:52:00,49.1,48.3,29.65,ESE,112,4.0,7.2,97,0.00,,---,0.16,VWS V14.01,2013-01-07 18:52:00,
2013-01-07 10:53:00,49.1,48.0,29.65,ESE,112,10.3,10.3,96,0.00,,---,0.16,VWS V14.01,2013-01-07 18:53:00,
2013-01-07 10:54:00,49.1,48.0,29.65,SE,135,3.4,4.0,96,0.00,,---,0.16,VWS V14.01,2013-01-07 18:54:00,
2013-01-07 10:55:00,49.1,48.0,29.65,SW,225,4.0,9.8,96,0.00,,---,0.16,VWS V14.01,2013-01-07 18:55:00,
2013-01-07 10:56:00,49.1,48.0,29.65,SSW,202,2.7,4.0,96,0.00,,---,0.16,VWS V14.01,2013-01-07 18:56:00,
2013-01-07 10:57:00,49.1,48.0,29.65,ESE,112,2.9,6.3,96,0.00,,---,0.16,VWS V14.01,2013-01-07 18:57:00,
2013-01-07 10:58:00,49.1,48.0,29.65,South,180,2.5,6.5,96,0.00,,---,0.16,VWS V14.01,2013-01-07 18:58:00,
2013-01-07 10:59:00,49.1,48.0,29.65,East,90,2.7,6.5,96,0.00,,---,0.16,VWS V14.01,2013-01-07 18:59:00,
2013-01-07 11:00:00,49.1,48.0,29.65,East,90,6.5,6.5,96,0.00,,---,0.16,VWS V14.01,2013-01-07 19:00:00,
2013-01-07 11:01:00,49.1,48.0,29.65,SSE,158,10.1,10.1,96,0.00,,---,0.16,VWS V14.01,2013-01-07 19:01:00,
2013-01-07 11:02:00,49.1,48.0,29.65,ESE,112,4.0,10.1,96,0.00,,---,0.16,VWS V14.01,2013-01-07 19:02:00,
2013-01-07 11:03:00,49.1,48.0,29.65,NNE,22,7.8,7.8,96,0.00,,---,0.16,VWS V14.01,2013-01-07 19:03:00,
2013-01-07 11:04:00,49.1,48.0,29.65,ENE,68,9.0,9.0,96,0.00,,---,0.16,VWS V14.01,2013-01-07 19:04:00,
2013-01-07 11:05:00,49.1,48.0,29.65,SSE,158,2.5,5.4,96,0.00,,---,0.16,VWS V14.01,2013-01-07 19:05:00,
2013-01-07 11:06:00,49.3,48.2,29.65,ESE,112,4.0,9.8,96,0.00,,---,0.16,VWS V14.01,2013-01-07 19:06:00,
2013-01-07 11:07:00,49.3,48.2,29.65,WSW,248,3.6,7.6,96,0.00,,---,0.16,VWS V14.01,2013-01-07 19:07:00,
2013-01-07 11:08:00,49.3,48.2,29.65,East,90,8.1,8.1,96,0.00,,---,0.16,VWS V14.01,2013-01-07 19:08:00,
2013-01-07 11:09:00,49.3,48.2,29.65,SSE,158,2.5,4.3,96,0.00,,---,0.16,VWS V14.01,2013-01-07 19:09:00,
2013-01-07 11:10:00,49.3,48.2,29.65,NE,45,4.3,5.8,96,0.00,,---,0.16,VWS V14.01,2013-01-07 19:10:00,
2013-01-07 11:12:00,49.5,48.4,29.65,SSE,158,3.1,5.6,96,0.00,,---,0.16,VWS V14.01,2013-01-07 19:12:00,
2013-01-07 11:13:00,49.5,48.4,29.65,SSW,202,6.3,9.6,96,0.00,,---,0.16,VWS V14.01,2013-01-07 19:13:00,
2013-01-07 11:14:00,49.5,48.4,29.65,SSE,158,7.6,7.6,96,0.00,,---,0.16,VWS V14.01,2013-01-07 19:14:00,
2013-01-07 11:15:00,49.5,48.4,29.65,SSE,158,5.8,12.8,96,0.00,,---,0.16,VWS V14.01,2013-01-07 19:15:00,
2013-01-07 11:16:00,49.5,48.4,29.65,West,270,4.7,7.6,96,0.00,,---,0.16,VWS V14.01,2013-01-07 19:16:00,
2013-01-07 11:17:00,49.5,48.4,29.65,ESE,112,3.4,4.7,96,0.00,,---,0.16,VWS V14.01,2013-01-07 19:17:00,
2013-01-07 11:18:00,49.5,48.4,29.65,SSW,202,4.9,7.8,96,0.00,,---,0.16,VWS V14.01,2013-01-07 19:18:00,
2013-01-07 11:19:00,49.5,48.4,29.65,SSE,158,4.7,10.7,96,0.00,,---,0.16,VWS V14.01,2013-01-07 19:19:00,
2013-01-07 11:20:00,49.5,48.4,29.65,SE,135,10.7,10.7,96,0.00,,---,0.16,VWS V14.01,2013-01-07 19:20:00,
2013-01-07 11:21:00,49.5,48.4,29.65,SSE,158,4.0,10.7,96,0.00,,---,0.16,VWS V14.01,2013-01-07 19:21:00,
2013-01-07 11:23:00,49.6,48.5,29.65,SSE,158,2.9,4.7,96,0.00,,---,0.16,VWS V14.01,2013-01-07 19:23:00,
2013-01-07 11:24:00,49.6,48.5,29.65,SSE,158,6.5,6.5,96,0.00,,---,0.16,VWS V14.01,2013-01-07 19:24:00,
2013-01-07 11:25:00,49.6,48.5,29.65,SSE,158,3.4,5.6,96,0.00,,---,0.16,VWS V14.01,2013-01-07 19:25:00,
2013-01-07 11:26:00,49.6,48.5,29.65,ESE,112,6.5,8.7,96,0.00,,---,0.16,VWS V14.01,2013-01-07 19:26:00,
2013-01-07 11:27:00,49.6,48.5,29.65,SE,135,8.1,8.1,96,0.00,,---,0.16,VWS V14.01,2013-01-07 19:27:00,
2013-01-07 11:28:00,49.8,48.5,29.65,SE,135,6.0,11.0,95,0.00,,---,0.16,VWS V14.01,2013-01-07 19:28:00,
2013-01-07 11:29:00,49.8,48.5,29.65,SE,135,5.8,5.8,95,0.00,,---,0.16,VWS V14.01,2013-01-07 19:29:00,
2013-01-07 11:30:00,49.8,48.5,29.65,ESE,112,5.4,6.5,95,0.00,,---,0.16,VWS V14.01,2013-01-07 19:30:00,
2013-01-07 11:31:00,49.8,48.5,29.65,ESE,112,5.4,5.8,95,0.00,,---,0.16,VWS V14.01,2013-01-07 19:31:00,
2013-01-07 11:32:00,49.8,48.5,29.65,SSE,158,3.4,5.4,95,0.00,,---,0.16,VWS V14.01,2013-01-07 19:32:00,
2013-01-07 11:33:00,49.8,48.5,29.65,East,90,4.0,7.6,95,0.00,,---,0.16,VWS V14.01,2013-01-07 19:33:00,
2013-01-07 11:34:00,49.8,48.5,29.65,SSE,158,3.6,7.4,95,0.00,,---,0.16,VWS V14.01,2013-01-07 19:34:00,
2013-01-07 11:35:00,49.8,48.5,29.65,SE,135,7.4,7.4,95,0.00,,---,0.16,VWS V14.01,2013-01-07 19:35:00,
2013-01-07 11:36:00,49.8,48.5,29.65,SE,135,5.6,7.4,95,0.00,,---,0.16,VWS V14.01,2013-01-07 19:36:00,
2013-01-07 11:37:00,49.8,48.5,29.65,SE,135,6.0,6.5,95,0.00,,---,0.16,VWS V14.01,2013-01-07 19:37:00,
2013-01-07 11:38:00,49.8,48.5,29.62,ESE,112,2.7,6.0,95,0.00,,---,0.16,VWS V14.01,2013-01-07 19:38:00,
2013-01-07 11:39:00,49.6,48.3,29.62,SSE,158,7.8,7.8,95,0.00,,---,0.16,VWS V14.01,2013-01-07 19:39:00,
2013-01-07 11:40:00,49.6,48.3,29.62,East,90,3.8,8.1,95,0.00,,---,0.16,VWS V14.01,2013-01-07 19:40:00,
2013-01-07 11:41:00,49.6,48.3,29.62,South,180,6.3,7.8,95,0.00,,---,0.16,VWS V14.01,2013-01-07 19:41:00,
2013-01-07 11:42:00,49.6,48.3,29.62,SE,135,3.8,7.6,95,0.00,,---,0.16,VWS V14.01,2013-01-07 19:42:00,
2013-01-07 11:43:00,49.6,48.3,29.62,East,90,3.8,3.8,95,0.00,,---,0.16,VWS V14.01,2013-01-07 19:43:00,
2013-01-07 11:44:00,49.6,48.3,29.62,SSE,158,5.8,6.3,95,0.00,,---,0.16,VWS V14.01,2013-01-07 19:44:00,
2013-01-07 11:45:00,49.6,48.3,29.62,SSE,158,6.3,6.3,95,0.00,,---,0.16,VWS V14.01,2013-01-07 19:45:00,
2013-01-07 11:46:00,49.6,48.3,29.62,ESE,112,5.4,6.3,95,0.00,,---,0.16,VWS V14.01,2013-01-07 19:46:00,
2013-01-07 11:47:00,49.6,48.3,29.62,South,180,5.4,6.5,95,0.00,,---,0.16,VWS V14.01,2013-01-07 19:47:00,
2013-01-07 11:48:00,49.6,48.3,29.62,ENE,68,3.6,9.6,95,0.00,,---,0.16,VWS V14.01,2013-01-07 19:48:00,
2013-01-07 11:49:00,49.6,48.3,29.62,ENE,68,12.5,12.5,95,0.05,,---,0.21,VWS V14.01,2013-01-07 19:49:00,
2013-01-07 11:50:00,49.6,48.3,29.62,ENE,68,6.9,7.2,95,0.05,,---,0.21,VWS V14.01,2013-01-07 19:50:00,
2013-01-07 11:51:00,49.6,48.3,29.62,ENE,68,9.4,12.5,95,0.05,,---,0.21,VWS V14.01,2013-01-07 19:51:00,
2013-01-07 11:52:00,49.6,48.3,29.62,WSW,248,1.3,9.4,95,0.05,,---,0.21,VWS V14.01,2013-01-07 19:52:00,
2013-01-07 11:53:00,49.6,48.3,29.68,ESE,112,4.3,4.5,95,0.05,,---,0.21,VWS V14.01,2013-01-07 19:53:00,
2013-01-07 11:54:00,49.6,48.3,29.68,SSE,158,1.6,4.7,95,0.05,,---,0.21,VWS V14.01,2013-01-07 19:54:00,
2013-01-07 11:55:00,49.6,48.3,29.68,ESE,112,4.7,6.0,95,0.05,,---,0.21,VWS V14.01,2013-01-07 19:55:00,
2013-01-07 11:56:00,49.6,48.3,29.68,ESE,112,4.3,4.7,95,0.05,,---,0.21,VWS V14.01,2013-01-07 19:56:00,
2013-01-07 11:57:00,49.6,48.3,29.68,SSW,202,5.6,5.6,95,0.05,,---,0.21,VWS V14.01,2013-01-07 19:57:00,
2013-01-07 11:58:00,49.6,48.3,29.68,ESE,112,4.7,5.8,95,0.05,,---,0.21,VWS V14.01,2013-01-07 19:58:00,
2013-01-07 11:59:00,49.6,48.3,29.68,South,180,3.8,3.8,95,0.05,,---,0.21,VWS V14.01,2013-01-07 19:59:00,
2013-01-07 12:01:00,49.6,48.3,29.68,ESE,112,4.5,4.5,95,0.05,,---,0.21,VWS V14.01,2013-01-07 20:01:00,
2013-01-07 12:02:00,49.5,48.1,29.68,SE,135,4.0,4.5,95,0.05,,---,0.21,VWS V14.01,2013-01-07 20:02:00,
2013-01-07 12:03:00,49.5,48.1,29.68,NNE,22,3.8,13.0,95,0.05,,---,0.21,VWS V14.01,2013-01-07 20:03:00,
2013-01-07 12:04:00,49.6,48.3,29.68,SE,135,5.4,8.5,95,0.05,,---,0.21,VWS V14.01,2013-01-07 20:04:00,
2013-01-07 12:05:00,49.6,48.3,29.68,ESE,112,4.0,5.6,95,0.05,,---,0.21,VWS V14.01,2013-01-07 20:05:00,
2013-01-07 12:06:00,49.6,48.3,29.68,ESE,112,2.0,8.5,95,0.05,,---,0.21,VWS V14.01,2013-01-07 20:06:00,
2013-01-07 12:07:00,49.6,48.3,29.68,ESE,112,2.7,5.8,95,0.05,,---,0.21,VWS V14.01,2013-01-07 20:07:00,
2013-01-07 12:08:00,49.6,48.3,29.68,SE,135,3.4,5.8,95,0.05,,---,0.21,VWS V14.01,2013-01-07 20:08:00,
2013-01-07 12:09:00,49.6,48.3,29.68,NNE,22,4.5,4.5,95,0.05,,---,0.21,VWS V14.01,2013-01-07 20:09:00,
2013-01-07 12:10:00,49.6,48.3,29.68,NNE,22,4.5,9.8,95,0.05,,---,0.21,VWS V14.01,2013-01-07 20:10:00,
2013-01-07 12:11:00,49.6,48.3,29.68,ESE,112,3.1,5.6,95,0.05,,---,0.21,VWS V14.01,2013-01-07 20:11:00,
2013-01-07 12:12:00,49.6,48.3,29.68,NNW,338,2.7,6.0,95,0.05,,---,0.21,VWS V14.01,2013-01-07 20:12:00,
2013-01-07 12:13:00,49.6,48.3,29.68,SSE,158,4.9,6.0,95,0.05,,---,0.21,VWS V14.01,2013-01-07 20:13:00,
2013-01-07 12:14:00,49.6,48.3,29.68,ESE,112,7.4,7.4,95,0.05,,---,0.21,VWS V14.01,2013-01-07 20:14:00,
2013-01-07 12:15:00,49.6,48.3,29.68,NNE,22,3.6,4.9,95,0.05,,---,0.21,VWS V14.01,2013-01-07 20:15:00,
2013-01-07 12:16:00,49.6,48.3,29.68,SE,135,8.7,8.7,95,0.05,,---,0.21,VWS V14.01,2013-01-07 20:16:00,
2013-01-07 12:17:00,49.6,48.3,29.68,SSE,158,3.8,8.7,95,0.05,,---,0.21,VWS V14.01,2013-01-07 20:17:00,
2013-01-07 12:18:00,49.6,48.3,29.68,ESE,112,4.3,8.7,95,0.05,,---,0.21,VWS V14.01,2013-01-07 20:18:00,
2013-01-07 12:19:00,49.6,48.3,29.68,SSE,158,6.0,6.0,95,0.05,,---,0.21,VWS V14.01,2013-01-07 20:19:00,
2013-01-07 12:20:00,49.6,48.3,29.68,SSE,158,6.5,6.5,95,0.05,,---,0.21,VWS V14.01,2013-01-07 20:20:00,
2013-01-07 12:21:00,49.6,48.3,29.68,East,90,6.3,12.3,95,0.05,,---,0.21,VWS V14.01,2013-01-07 20:21:00,
2013-01-07 12:22:00,49.6,48.3,29.68,SSE,158,12.5,12.5,95,0.05,,---,0.21,VWS V14.01,2013-01-07 20:22:00,
2013-01-07 12:23:00,49.6,48.3,29.68,NNW,338,4.3,12.5,95,0.05,,---,0.21,VWS V14.01,2013-01-07 20:23:00,
2013-01-07 12:24:00,49.6,48.3,29.68,SSE,158,2.5,6.3,95,0.05,,---,0.21,VWS V14.01,2013-01-07 20:24:00,
2013-01-07 12:25:00,49.6,48.3,29.68,ENE,68,1.6,6.3,95,0.05,,---,0.21,VWS V14.01,2013-01-07 20:25:00,
2013-01-07 12:26:00,49.6,48.3,29.68,SSW,202,5.8,5.8,95,0.05,,---,0.21,VWS V14.01,2013-01-07 20:26:00,
2013-01-07 12:27:00,49.6,48.3,29.68,SSE,158,2.7,5.8,95,0.05,,---,0.21,VWS V14.01,2013-01-07 20:27:00,
2013-01-07 12:28:00,49.6,48.3,29.68,SE,135,9.8,9.8,95,0.05,,---,0.21,VWS V14.01,2013-01-07 20:28:00,
2013-01-07 12:29:00,49.6,48.3,29.68,SE,135,6.3,12.8,95,0.05,,---,0.21,VWS V14.01,2013-01-07 20:29:00,
2013-01-07 12:30:00,49.6,48.3,29.68,SE,135,6.3,12.8,95,0.05,,---,0.21,VWS V14.01,2013-01-07 20:30:00,
2013-01-07 12:31:00,49.6,48.3,29.68,SE,135,7.4,8.7,95,0.05,,---,0.21,VWS V14.01,2013-01-07 20:31:00,
2013-01-07 12:32:00,49.6,48.3,29.68,South,180,5.6,7.6,95,0.05,,---,0.21,VWS V14.01,2013-01-07 20:32:00,
2013-01-07 12:33:00,49.6,48.3,29.68,NNW,338,7.8,10.5,95,0.05,,---,0.21,VWS V14.01,2013-01-07 20:33:00,
2013-01-07 12:34:00,49.8,48.2,29.68,SE,135,6.3,8.1,94,0.05,,---,0.21,VWS V14.01,2013-01-07 20:34:00,
2013-01-07 12:35:00,49.8,48.2,29.68,SE,135,6.3,8.1,94,0.05,,---,0.21,VWS V14.01,2013-01-07 20:35:00,
2013-01-07 12:36:00,49.8,48.2,29.68,SSE,158,7.4,7.4,94,0.05,,---,0.21,VWS V14.01,2013-01-07 20:36:00,
2013-01-07 12:37:00,49.8,48.2,29.68,ESE,112,16.3,16.3,94,0.05,,---,0.21,VWS V14.01,2013-01-07 20:37:00,
2013-01-07 12:38:00,49.8,48.2,29.68,SE,135,5.8,16.3,94,0.05,,---,0.21,VWS V14.01,2013-01-07 20:38:00,
2013-01-07 12:39:00,49.8,48.2,29.68,East,90,2.0,7.2,94,0.05,,---,0.21,VWS V14.01,2013-01-07 20:39:00,
2013-01-07 12:40:00,49.8,48.2,29.68,East,90,2.0,7.2,94,0.05,,---,0.21,VWS V14.01,2013-01-07 20:40:00,
2013-01-07 12:41:00,49.8,48.2,29.68,SSE,158,7.4,7.6,94,0.05,,---,0.21,VWS V14.01,2013-01-07 20:41:00,
2013-01-07 12:42:00,49.8,48.2,29.68,ESE,112,2.9,9.4,94,0.05,,---,0.21,VWS V14.01,2013-01-07 20:42:00,
2013-01-07 12:43:00,49.8,48.2,29.68,SW,225,7.8,7.8,94,0.05,,---,0.21,VWS V14.01,2013-01-07 20:43:00,
2013-01-07 12:44:00,49.8,48.2,29.68,SE,135,4.9,8.1,94,0.05,,---,0.21,VWS V14.01,2013-01-07 20:44:00,
2013-01-07 12:45:00,49.8,48.2,29.68,SE,135,4.3,8.1,94,0.05,,---,0.21,VWS V14.01,2013-01-07 20:45:00,
2013-01-07 12:46:00,49.8,48.2,29.68,East,90,6.3,9.6,94,0.05,,---,0.21,VWS V14.01,2013-01-07 20:46:00,
2013-01-07 12:47:00,49.8,48.2,29.68,ESE,112,4.0,6.3,94,0.05,,---,0.21,VWS V14.01,2013-01-07 20:47:00,
2013-01-07 12:48:00,49.8,48.2,29.68,ENE,68,3.1,4.0,94,0.05,,---,0.21,VWS V14.01,2013-01-07 20:48:00,
2013-01-07 12:49:00,50.0,48.3,29.68,WSW,248,5.4,7.4,94,0.05,,---,0.21,VWS V14.01,2013-01-07 20:49:00,
2013-01-07 12:50:00,50.0,48.1,29.68,SSW,202,3.6,7.4,93,0.05,,---,0.21,VWS V14.01,2013-01-07 20:50:00,
2013-01-07 12:51:00,50.0,48.1,29.68,SSE,158,5.4,5.6,93,0.00,,---,0.21,VWS V14.01,2013-01-07 20:51:00,
2013-01-07 12:52:00,50.0,48.1,29.68,SSE,158,6.7,6.7,93,0.00,,---,0.21,VWS V14.01,2013-01-07 20:52:00,
2013-01-07 12:53:00,50.0,48.1,29.68,SSW,202,6.5,10.1,93,0.00,,---,0.21,VWS V14.01,2013-01-07 20:53:00,
2013-01-07 12:54:00,50.2,48.2,29.68,NE,45,3.8,4.7,93,0.00,,---,0.21,VWS V14.01,2013-01-07 20:54:00,
2013-01-07 12:55:00,50.2,48.2,29.68,SSE,158,4.3,4.7,93,0.00,,---,0.21,VWS V14.01,2013-01-07 20:55:00,
2013-01-07 12:56:00,50.2,48.2,29.68,South,180,12.8,12.8,93,0.00,,---,0.21,VWS V14.01,2013-01-07 20:56:00,
2013-01-07 12:57:00,50.2,48.2,29.68,SSE,158,6.0,12.8,93,0.00,,---,0.21,VWS V14.01,2013-01-07 20:57:00,
2013-01-07 12:58:00,50.2,48.2,29.68,SSE,158,6.9,8.5,93,0.00,,---,0.21,VWS V14.01,2013-01-07 20:58:00,
2013-01-07 12:59:00,50.2,48.0,29.68,WSW,248,4.3,9.4,92,0.00,,---,0.21,VWS V14.01,2013-01-07 20:59:00,
2013-01-07 13:00:00,50.2,48.0,29.68,West,270,5.8,9.4,92,0.00,,---,0.21,VWS V14.01,2013-01-07 21:00:00,
2013-01-07 13:01:00,50.4,47.8,29.68,ESE,112,9.8,9.8,91,0.00,,---,0.21,VWS V14.01,2013-01-07 21:01:00,
2013-01-07 13:02:00,50.4,47.8,29.68,SSW,202,3.6,9.8,91,0.00,,---,0.21,VWS V14.01,2013-01-07 21:02:00,
2013-01-07 13:03:00,50.4,47.8,29.68,SE,135,0.9,3.6,91,0.00,,---,0.21,VWS V14.01,2013-01-07 21:03:00,
2013-01-07 13:04:00,50.4,47.8,29.68,NNE,22,4.9,4.9,91,0.00,,---,0.21,VWS V14.01,2013-01-07 21:04:00,
2013-01-07 13:05:00,50.4,47.8,29.68,SSW,202,3.6,4.9,91,0.00,,---,0.21,VWS V14.01,2013-01-07 21:05:00,
2013-01-07 13:06:00,50.4,47.8,29.68,SSE,158,2.9,7.8,91,0.00,,---,0.21,VWS V14.01,2013-01-07 21:06:00,
2013-01-07 13:07:00,50.4,47.8,29.68,SSW,202,7.4,7.4,91,0.00,,---,0.21,VWS V14.01,2013-01-07 21:07:00,
2013-01-07 13:08:00,50.4,47.8,29.68,ESE,112,3.4,7.4,91,0.00,,---,0.21,VWS V14.01,2013-01-07 21:08:00,
2013-01-07 13:09:00,50.4,47.8,29.68,East,90,4.3,9.8,91,0.00,,---,0.21,VWS V14.01,2013-01-07 21:09:00,
2013-01-07 13:10:00,50.4,47.8,29.68,SSE,158,5.6,9.8,91,0.00,,---,0.21,VWS V14.01,2013-01-07 21:10:00,
2013-01-07 13:11:00,50.4,47.5,29.68,SE,135,5.8,9.8,90,0.00,,---,0.21,VWS V14.01,2013-01-07 21:11:00,
2013-01-07 13:13:00,50.4,47.5,29.68,SE,135,5.8,10.1,90,0.00,,---,0.21,VWS V14.01,2013-01-07 21:13:00,
2013-01-07 13:14:00,50.4,47.5,29.68,SSE,158,3.4,5.8,90,0.00,,---,0.21,VWS V14.01,2013-01-07 21:14:00,
2013-01-07 13:15:00,50.4,47.5,29.68,ENE,68,2.9,5.8,90,0.00,,---,0.21,VWS V14.01,2013-01-07 21:15:00,
2013-01-07 13:16:00,50.4,47.5,29.68,SSW,202,3.1,3.8,90,0.00,,---,0.21,VWS V14.01,2013-01-07 21:16:00,
2013-01-07 13:17:00,50.4,47.5,29.68,East,90,1.6,3.8,90,0.00,,---,0.21,VWS V14.01,2013-01-07 21:17:00,
2013-01-07 13:18:00,50.4,47.5,29.68,ESE,112,3.1,3.6,90,0.00,,---,0.21,VWS V14.01,2013-01-07 21:18:00,
2013-01-07 13:19:00,50.4,47.5,29.68,SSE,158,5.8,5.8,90,0.00,,---,0.21,VWS V14.01,2013-01-07 21:19:00,
2013-01-07 13:20:00,50.4,47.5,29.68,WSW,248,5.8,5.8,90,0.00,,---,0.21,VWS V14.01,2013-01-07 21:20:00,
2013-01-07 13:21:00,50.4,47.5,29.68,South,180,4.7,9.6,90,0.00,,---,0.21,VWS V14.01,2013-01-07 21:21:00,
2013-01-07 13:22:00,50.4,47.5,29.68,SSE,158,2.5,4.7,90,0.00,,---,0.21,VWS V14.01,2013-01-07 21:22:00,
2013-01-07 13:23:00,50.4,47.5,29.68,SSE,158,6.0,6.0,90,0.00,,---,0.21,VWS V14.01,2013-01-07 21:23:00,
2013-01-07 13:24:00,50.4,47.5,29.68,West,270,4.7,5.4,90,0.00,,---,0.21,VWS V14.01,2013-01-07 21:24:00,
2013-01-07 13:25:00,50.4,47.5,29.68,SSW,202,3.6,5.4,90,0.00,,---,0.21,VWS V14.01,2013-01-07 21:25:00,
2013-01-07 13:26:00,50.4,47.2,29.68,SSW,202,3.4,4.3,89,0.00,,---,0.21,VWS V14.01,2013-01-07 21:26:00,
2013-01-07 13:27:00,50.4,47.2,29.68,SSE,158,0.9,5.4,89,0.00,,---,0.21,VWS V14.01,2013-01-07 21:27:00,
2013-01-07 13:28:00,50.4,47.2,29.68,WSW,248,2.5,6.3,89,0.00,,---,0.21,VWS V14.01,2013-01-07 21:28:00,
2013-01-07 13:29:00,50.4,47.2,29.68,SSE,158,5.6,5.6,89,0.00,,---,0.21,VWS V14.01,2013-01-07 21:29:00,
2013-01-07 13:30:00,50.4,47.5,29.68,SE,135,2.7,5.6,90,0.00,,---,0.21,VWS V14.01,2013-01-07 21:30:00,
2013-01-07 13:31:00,50.4,47.5,29.68,SSW,202,5.4,5.4,90,0.00,,---,0.21,VWS V14.01,2013-01-07 21:31:00,
2013-01-07 13:32:00,50.4,47.2,29.68,South,180,3.6,5.4,89,0.00,,---,0.21,VWS V14.01,2013-01-07 21:32:00,
2013-01-07 13:33:00,50.4,47.2,29.68,WNW,292,2.7,4.9,89,0.00,,---,0.21,VWS V14.01,2013-01-07 21:33:00,
2013-01-07 13:34:00,50.5,47.4,29.68,East,90,2.0,3.4,89,0.00,,---,0.21,VWS V14.01,2013-01-07 21:34:00,
2013-01-07 13:35:00,50.5,47.4,29.68,SE,135,5.8,6.0,89,0.00,,---,0.21,VWS V14.01,2013-01-07 21:35:00,
2013-01-07 13:36:00,50.5,47.1,29.68,SSW,202,3.6,9.4,88,0.00,,---,0.21,VWS V14.01,2013-01-07 21:36:00,
2013-01-07 13:37:00,50.5,47.1,29.68,WNW,292,3.8,4.0,88,0.00,,---,0.21,VWS V14.01,2013-01-07 21:37:00,
2013-01-07 13:38:00,50.5,47.1,29.71,SSW,202,1.3,3.8,88,0.00,,---,0.21,VWS V14.01,2013-01-07 21:38:00,
2013-01-07 13:39:00,50.5,47.1,29.71,SW,225,1.3,3.6,88,0.00,,---,0.21,VWS V14.01,2013-01-07 21:39:00,
2013-01-07 13:40:00,50.5,47.1,29.71,SE,135,1.6,3.6,88,0.00,,---,0.21,VWS V14.01,2013-01-07 21:40:00,
2013-01-07 13:41:00,50.5,47.4,29.71,SE,135,3.8,7.4,89,0.00,,---,0.21,VWS V14.01,2013-01-07 21:41:00,
2013-01-07 13:42:00,50.5,47.1,29.71,ENE,68,6.0,6.0,88,0.00,,---,0.21,VWS V14.01,2013-01-07 21:42:00,
2013-01-07 13:43:00,50.5,47.1,29.71,ESE,112,3.4,6.0,88,0.00,,---,0.21,VWS V14.01,2013-01-07 21:43:00,
2013-01-07 13:44:00,50.5,47.1,29.71,ENE,68,3.4,3.4,88,0.00,,---,0.21,VWS V14.01,2013-01-07 21:44:00,
2013-01-07 13:45:00,50.5,47.1,29.71,SSW,202,4.0,5.4,88,0.00,,---,0.21,VWS V14.01,2013-01-07 21:45:00,
2013-01-07 13:46:00,50.5,47.1,29.71,NNE,22,2.2,5.6,88,0.00,,---,0.21,VWS V14.01,2013-01-07 21:46:00,
2013-01-07 13:47:00,50.5,47.1,29.71,SSW,202,4.7,6.0,88,0.00,,---,0.21,VWS V14.01,2013-01-07 21:47:00,
2013-01-07 13:48:00,50.5,47.4,29.71,NNE,22,4.9,4.9,89,0.00,,---,0.21,VWS V14.01,2013-01-07 21:48:00,
2013-01-07 13:49:00,50.5,47.1,29.71,WNW,292,0.0,1.3,88,0.00,,---,0.21,VWS V14.01,2013-01-07 21:49:00,
2013-01-07 13:50:00,50.5,47.4,29.71,NNE,22,2.5,4.9,89,0.00,,---,0.21,VWS V14.01,2013-01-07 21:50:00,
2013-01-07 13:51:00,50.5,47.4,29.71,South,180,3.8,3.8,89,0.00,,---,0.21,VWS V14.01,2013-01-07 21:51:00,
2013-01-07 13:52:00,50.5,47.4,29.71,SSW,202,4.9,8.7,89,0.00,,---,0.21,VWS V14.01,2013-01-07 21:52:00,
2013-01-07 13:53:00,50.5,47.4,29.71,West,270,1.3,3.6,89,0.00,,---,0.21,VWS V14.01,2013-01-07 21:53:00,
2013-01-07 13:54:00,50.5,47.4,29.71,SSW,202,3.4,6.0,89,0.00,,---,0.21,VWS V14.01,2013-01-07 21:54:00,
2013-01-07 13:55:00,50.5,47.4,29.71,SSE,158,5.6,5.6,89,0.00,,---,0.21,VWS V14.01,2013-01-07 21:55:00,
2013-01-07 13:56:00,50.5,47.4,29.71,West,270,1.6,10.1,89,0.00,,---,0.21,VWS V14.01,2013-01-07 21:56:00,
2013-01-07 13:57:00,50.5,47.4,29.71,ENE,68,2.5,2.7,89,0.00,,---,0.21,VWS V14.01,2013-01-07 21:57:00,
2013-01-07 13:58:00,50.5,47.4,29.71,North,0,3.1,3.6,89,0.00,,---,0.21,VWS V14.01,2013-01-07 21:58:00,
2013-01-07 13:59:00,50.5,47.4,29.71,SSE,158,3.4,3.4,89,0.00,,---,0.21,VWS V14.01,2013-01-07 21:59:00,
2013-01-07 14:00:00,50.5,47.4,29.71,ESE,112,5.6,5.6,89,0.00,,---,0.21,VWS V14.01,2013-01-07 22:00:00,
2013-01-07 14:01:00,50.5,47.4,29.71,SSW,202,6.5,6.5,89,0.00,,---,0.21,VWS V14.01,2013-01-07 22:01:00,
2013-01-07 14:02:00,50.5,47.4,29.71,SE,135,4.9,6.5,89,0.00,,---,0.21,VWS V14.01,2013-01-07 22:02:00,
2013-01-07 14:03:00,50.5,47.4,29.71,SSE,158,3.6,3.6,89,0.00,,---,0.21,VWS V14.01,2013-01-07 22:03:00,
2013-01-07 14:04:00,50.5,47.4,29.71,SSW,202,1.3,4.0,89,0.00,,---,0.21,VWS V14.01,2013-01-07 22:04:00,
2013-01-07 14:05:00,50.5,47.4,29.71,SSE,158,3.1,3.6,89,0.00,,---,0.21,VWS V14.01,2013-01-07 22:05:00,
2013-01-07 14:06:00,50.5,47.4,29.71,SSE,158,3.1,3.1,89,0.00,,---,0.21,VWS V14.01,2013-01-07 22:06:00,
2013-01-07 14:07:00,50.5,47.4,29.71,South,180,4.0,4.7,89,0.00,,---,0.21,VWS V14.01,2013-01-07 22:07:00,
2013-01-07 14:08:00,50.4,47.2,29.71,NNE,22,3.4,3.4,89,0.00,,---,0.21,VWS V14.01,2013-01-07 22:08:00,
2013-01-07 14:09:00,50.4,47.2,29.71,ESE,112,2.7,4.7,89,0.00,,---,0.21,VWS V14.01,2013-01-07 22:09:00,
2013-01-07 14:10:00,50.4,47.2,29.71,SE,135,2.9,5.6,89,0.00,,---,0.21,VWS V14.01,2013-01-07 22:10:00,
2013-01-07 14:11:00,50.4,47.2,29.71,SE,135,2.7,4.9,89,0.00,,---,0.21,VWS V14.01,2013-01-07 22:11:00,
2013-01-07 14:12:00,50.4,47.2,29.71,WSW,248,4.0,5.8,89,0.00,,---,0.21,VWS V14.01,2013-01-07 22:12:00,
2013-01-07 14:13:00,50.4,47.2,29.71,SSW,202,4.3,4.3,89,0.00,,---,0.21,VWS V14.01,2013-01-07 22:13:00,
2013-01-07 14:14:00,50.4,47.2,29.71,SSW,202,3.8,5.4,89,0.00,,---,0.21,VWS V14.01,2013-01-07 22:14:00,
2013-01-07 14:15:00,50.4,47.2,29.71,SSW,202,2.7,4.3,89,0.00,,---,0.21,VWS V14.01,2013-01-07 22:15:00,
2013-01-07 14:16:00,50.4,47.2,29.71,South,180,2.9,5.6,89,0.00,,---,0.21,VWS V14.01,2013-01-07 22:16:00,
2013-01-07 14:17:00,50.4,47.2,29.71,ESE,112,3.1,7.8,89,0.00,,---,0.21,VWS V14.01,2013-01-07 22:17:00,
2013-01-07 14:18:00,50.4,47.2,29.71,ESE,112,10.1,10.1,89,0.00,,---,0.21,VWS V14.01,2013-01-07 22:18:00,
2013-01-07 14:19:00,50.4,47.2,29.71,South,180,6.7,6.7,89,0.00,,---,0.21,VWS V14.01,2013-01-07 22:19:00,
2013-01-07 14:20:00,50.4,47.2,29.71,WSW,248,4.0,10.1,89,0.00,,---,0.21,VWS V14.01,2013-01-07 22:20:00,
2013-01-07 14:21:00,50.4,47.0,29.71,SSW,202,7.6,7.6,88,0.00,,---,0.21,VWS V14.01,2013-01-07 22:21:00,
2013-01-07 14:22:00,50.4,47.0,29.71,SSW,202,2.5,7.8,88,0.00,,---,0.21,VWS V14.01,2013-01-07 22:22:00,
2013-01-07 14:23:00,50.2,46.8,29.74,East,90,2.5,2.9,88,0.00,,---,0.21,VWS V14.01,2013-01-07 22:23:00,
2013-01-07 14:24:00,50.2,46.8,29.74,SSW,202,2.9,4.0,88,0.00,,---,0.21,VWS V14.01,2013-01-07 22:24:00,
2013-01-07 14:25:00,50.2,46.8,29.74,SSE,158,3.4,5.4,88,0.00,,---,0.21,VWS V14.01,2013-01-07 22:25:00,
2013-01-07 14:26:00,50.2,46.8,29.74,SSE,158,1.3,3.4,88,0.00,,---,0.21,VWS V14.01,2013-01-07 22:26:00,
2013-01-07 14:27:00,50.2,46.8,29.74,SW,225,6.0,8.5,88,0.00,,---,0.21,VWS V14.01,2013-01-07 22:27:00,
2013-01-07 14:28:00,50.2,46.8,29.74,ESE,112,2.0,2.5,88,0.00,,---,0.21,VWS V14.01,2013-01-07 22:28:00,
2013-01-07 14:29:00,50.2,46.8,29.74,SSW,202,2.2,7.4,88,0.00,,---,0.21,VWS V14.01,2013-01-07 22:29:00,
2013-01-07 14:30:00,50.2,46.8,29.74,SSW,202,3.8,4.9,88,0.00,,---,0.21,VWS V14.01,2013-01-07 22:30:00,
2013-01-07 14:31:00,50.2,46.8,29.74,South,180,1.1,3.8,88,0.00,,---,0.21,VWS V14.01,2013-01-07 22:31:00,
2013-01-07 14:32:00,50.2,46.8,29.74,East,90,3.4,3.4,88,0.00,,---,0.21,VWS V14.01,2013-01-07 22:32:00,
2013-01-07 14:33:00,50.2,46.5,29.74,SSE,158,2.0,2.7,87,0.00,,---,0.21,VWS V14.01,2013-01-07 22:33:00,
2013-01-07 14:34:00,50.2,46.5,29.74,NNE,22,2.7,5.8,87,0.00,,---,0.21,VWS V14.01,2013-01-07 22:34:00,
2013-01-07 14:35:00,50.2,46.5,29.74,SSE,158,2.0,2.7,87,0.00,,---,0.21,VWS V14.01,2013-01-07 22:35:00,
2013-01-07 14:36:00,50.0,46.6,29.74,ESE,112,1.6,2.9,88,0.00,,---,0.21,VWS V14.01,2013-01-07 22:36:00,
2013-01-07 14:37:00,50.0,46.6,29.74,ESE,112,3.1,4.0,88,0.00,,---,0.21,VWS V14.01,2013-01-07 22:37:00,
2013-01-07 14:38:00,50.0,46.3,29.74,SSE,158,3.4,9.4,87,0.00,,---,0.21,VWS V14.01,2013-01-07 22:38:00,
2013-01-07 14:39:00,50.0,46.6,29.74,WSW,248,3.6,3.6,88,0.00,,---,0.21,VWS V14.01,2013-01-07 22:39:00,
2013-01-07 14:40:00,50.0,46.3,29.74,East,90,3.1,11.0,87,0.00,,---,0.21,VWS V14.01,2013-01-07 22:40:00,
2013-01-07 14:41:00,50.0,46.3,29.74,SE,135,2.0,3.1,87,0.00,,---,0.21,VWS V14.01,2013-01-07 22:41:00,
2013-01-07 14:42:00,50.0,46.3,29.74,SSE,158,2.7,5.6,87,0.00,,---,0.21,VWS V14.01,2013-01-07 22:42:00,
2013-01-07 14:43:00,50.0,46.3,29.74,SSE,158,2.0,2.5,87,0.00,,---,0.21,VWS V14.01,2013-01-07 22:43:00,
2013-01-07 14:44:00,50.0,46.3,29.74,South,180,2.0,4.7,87,0.00,,---,0.21,VWS V14.01,2013-01-07 22:44:00,
2013-01-07 14:45:00,50.0,46.3,29.74,NNE,22,2.5,2.9,87,0.00,,---,0.21,VWS V14.01,2013-01-07 22:45:00,
2013-01-07 14:46:00,50.0,46.3,29.74,SSE,158,3.4,3.4,87,0.00,,---,0.21,VWS V14.01,2013-01-07 22:46:00,
2013-01-07 14:47:00,49.8,46.1,29.74,South,180,2.5,4.9,87,0.00,,---,0.21,VWS V14.01,2013-01-07 22:47:00,
2013-01-07 14:48:00,49.8,46.1,29.74,SSE,158,1.1,3.4,87,0.00,,---,0.21,VWS V14.01,2013-01-07 22:48:00,
2013-01-07 14:49:00,49.8,46.1,29.74,SE,135,1.1,4.3,87,0.00,,---,0.21,VWS V14.01,2013-01-07 22:49:00,
2013-01-07 14:50:00,49.8,46.1,29.74,SSE,158,2.0,3.4,87,0.00,,---,0.21,VWS V14.01,2013-01-07 22:50:00,
2013-01-07 14:51:00,49.8,46.1,29.74,WSW,248,3.1,4.9,87,0.00,,---,0.21,VWS V14.01,2013-01-07 22:51:00,
2013-01-07 14:52:00,49.8,46.1,29.74,NNE,22,2.7,4.3,87,0.00,,---,0.21,VWS V14.01,2013-01-07 22:52:00,
2013-01-07 14:53:00,49.8,46.1,29.74,South,180,5.6,5.6,87,0.00,,---,0.21,VWS V14.01,2013-01-07 22:53:00,
2013-01-07 14:54:00,49.8,46.1,29.74,NNE,22,2.7,4.9,87,0.00,,---,0.21,VWS V14.01,2013-01-07 22:54:00,
2013-01-07 14:55:00,49.8,46.1,29.74,ESE,112,3.6,5.6,87,0.00,,---,0.21,VWS V14.01,2013-01-07 22:55:00,
2013-01-07 14:56:00,49.8,46.1,29.74,WSW,248,1.6,3.6,87,0.00,,---,0.21,VWS V14.01,2013-01-07 22:56:00,
2013-01-07 14:57:00,49.8,46.1,29.74,SE,135,1.3,2.2,87,0.00,,---,0.21,VWS V14.01,2013-01-07 22:57:00,
2013-01-07 14:58:00,49.8,46.1,29.74,SSW,202,3.1,3.1,87,0.00,,---,0.21,VWS V14.01,2013-01-07 22:58:00,
2013-01-07 14:59:00,49.8,46.1,29.74,SE,135,2.9,3.1,87,0.00,,---,0.21,VWS V14.01,2013-01-07 22:59:00,
2013-01-07 15:00:00,49.8,46.1,29.74,SSE,158,3.8,3.8,87,0.00,,---,0.21,VWS V14.01,2013-01-07 23:00:00,
2013-01-07 15:01:00,49.8,46.1,29.74,South,180,4.0,6.9,87,0.00,,---,0.21,VWS V14.01,2013-01-07 23:01:00,
2013-01-07 15:02:00,49.8,45.8,29.74,SSW,202,5.8,5.8,86,0.00,,---,0.21,VWS V14.01,2013-01-07 23:02:00,
2013-01-07 15:03:00,49.6,45.6,29.74,ESE,112,2.2,3.6,86,0.00,,---,0.21,VWS V14.01,2013-01-07 23:03:00,
2013-01-07 15:04:00,49.6,45.6,29.74,SSW,202,2.7,4.9,86,0.00,,---,0.21,VWS V14.01,2013-01-07 23:04:00,
2013-01-07 15:05:00,49.6,45.6,29.74,SSE,158,3.4,3.6,86,0.00,,---,0.21,VWS V14.01,2013-01-07 23:05:00,
2013-01-07 15:06:00,49.6,45.9,29.74,ESE,112,1.3,4.3,87,0.00,,---,0.21,VWS V14.01,2013-01-07 23:06:00,
2013-01-07 15:07:00,49.6,45.6,29.74,ESE,112,5.4,5.4,86,0.00,,---,0.21,VWS V14.01,2013-01-07 23:07:00,
2013-01-07 15:08:00,49.6,45.6,29.74,SSW,202,2.0,3.6,86,0.00,,---,0.21,VWS V14.01,2013-01-07 23:08:00,
2013-01-07 15:09:00,49.6,45.6,29.74,SSE,158,3.6,5.4,86,0.00,,---,0.21,VWS V14.01,2013-01-07 23:09:00,
2013-01-07 15:10:00,49.6,45.6,29.74,South,180,1.6,3.6,86,0.00,,---,0.21,VWS V14.01,2013-01-07 23:10:00,
2013-01-07 15:11:00,49.6,45.6,29.74,SSE,158,4.9,4.9,86,0.00,,---,0.21,VWS V14.01,2013-01-07 23:11:00,
2013-01-07 15:12:00,49.6,45.6,29.74,SE,135,3.1,6.5,86,0.00,,---,0.21,VWS V14.01,2013-01-07 23:12:00,
2013-01-07 15:13:00,49.6,45.6,29.74,SSW,202,6.0,6.0,86,0.00,,---,0.21,VWS V14.01,2013-01-07 23:13:00,
2013-01-07 15:14:00,49.6,45.6,29.74,SSE,158,2.9,5.4,86,0.00,,---,0.21,VWS V14.01,2013-01-07 23:14:00,
2013-01-07 15:15:00,49.6,45.6,29.74,ENE,68,3.4,6.0,86,0.00,,---,0.21,VWS V14.01,2013-01-07 23:15:00,
2013-01-07 15:16:00,49.5,45.5,29.74,WNW,292,3.1,3.6,86,0.00,,---,0.21,VWS V14.01,2013-01-07 23:16:00,
2013-01-07 15:17:00,49.5,45.5,29.74,SSE,158,1.6,3.1,86,0.00,,---,0.21,VWS V14.01,2013-01-07 23:17:00,
2013-01-07 15:18:00,49.5,45.5,29.74,SSE,158,6.5,6.5,86,0.00,,---,0.21,VWS V14.01,2013-01-07 23:18:00,
2013-01-07 15:19:00,49.5,45.5,29.74,SSE,158,2.7,6.5,86,0.00,,---,0.21,VWS V14.01,2013-01-07 23:19:00,
2013-01-07 15:20:00,49.5,45.5,29.74,SSW,202,7.6,10.1,86,0.00,,---,0.21,VWS V14.01,2013-01-07 23:20:00,
2013-01-07 15:21:00,49.5,45.5,29.74,NNE,22,4.0,7.6,86,0.00,,---,0.21,VWS V14.01,2013-01-07 23:21:00,
2013-01-07 15:22:00,49.5,45.2,29.74,South,180,6.3,6.3,85,0.00,,---,0.21,VWS V14.01,2013-01-07 23:22:00,
2013-01-07 15:23:00,49.5,45.5,29.74,South,180,4.9,4.9,86,0.00,,---,0.21,VWS V14.01,2013-01-07 23:23:00,
2013-01-07 15:24:00,49.5,45.5,29.74,NNE,22,4.9,4.9,86,0.00,,---,0.21,VWS V14.01,2013-01-07 23:24:00,
2013-01-07 15:25:00,49.5,45.5,29.74,NE,45,5.4,5.4,86,0.00,,---,0.21,VWS V14.01,2013-01-07 23:25:00,
2013-01-07 15:26:00,49.5,45.5,29.74,SE,135,1.6,6.3,86,0.00,,---,0.21,VWS V14.01,2013-01-07 23:26:00,
2013-01-07 15:27:00,49.5,45.5,29.74,ENE,68,4.9,4.9,86,0.00,,---,0.21,VWS V14.01,2013-01-07 23:27:00,
2013-01-07 15:28:00,49.5,45.5,29.74,NNW,338,0.9,2.7,86,0.00,,---,0.21,VWS V14.01,2013-01-07 23:28:00,
2013-01-07 15:29:00,49.5,45.5,29.74,WSW,248,2.7,3.8,86,0.00,,---,0.21,VWS V14.01,2013-01-07 23:29:00,
2013-01-07 15:30:00,49.5,45.5,29.74,ESE,112,1.6,2.7,86,0.00,,---,0.21,VWS V14.01,2013-01-07 23:30:00,
2013-01-07 15:31:00,49.5,45.5,29.74,NE,45,2.2,4.7,86,0.00,,---,0.21,VWS V14.01,2013-01-07 23:31:00,
2013-01-07 15:32:00,49.5,45.5,29.74,SSE,158,4.3,4.3,86,0.00,,---,0.21,VWS V14.01,2013-01-07 23:32:00,
2013-01-07 15:33:00,49.5,45.5,29.74,ESE,112,4.9,4.9,86,0.00,,---,0.21,VWS V14.01,2013-01-07 23:33:00,
2013-01-07 15:34:00,49.5,45.5,29.74,WSW,248,3.4,4.0,86,0.00,,---,0.21,VWS V14.01,2013-01-07 23:34:00,
2013-01-07 15:35:00,49.5,45.5,29.74,SSW,202,2.7,4.9,86,0.00,,---,0.21,VWS V14.01,2013-01-07 23:35:00,
2013-01-07 15:36:00,49.5,45.5,29.74,SSE,158,1.6,2.7,86,0.00,,---,0.21,VWS V14.01,2013-01-07 23:36:00,
2013-01-07 15:37:00,49.5,45.5,29.74,SE,135,3.6,5.4,86,0.00,,---,0.21,VWS V14.01,2013-01-07 23:37:00,
2013-01-07 15:38:00,49.5,45.5,29.76,WNW,292,2.9,4.0,86,0.00,,---,0.21,VWS V14.01,2013-01-07 23:38:00,
2013-01-07 15:39:00,49.5,45.5,29.76,ESE,112,4.0,4.0,86,0.00,,---,0.21,VWS V14.01,2013-01-07 23:39:00,
2013-01-07 15:40:00,49.5,45.5,29.76,ESE,112,1.1,4.0,86,0.00,,---,0.21,VWS V14.01,2013-01-07 23:40:00,
2013-01-07 15:41:00,49.5,45.5,29.76,ESE,112,4.7,4.7,86,0.00,,---,0.21,VWS V14.01,2013-01-07 23:41:00,
2013-01-07 15:42:00,49.5,45.5,29.76,SSE,158,3.8,4.7,86,0.00,,---,0.21,VWS V14.01,2013-01-07 23:42:00,
2013-01-07 15:43:00,49.5,45.5,29.76,SE,135,2.0,2.9,86,0.00,,---,0.21,VWS V14.01,2013-01-07 23:43:00,
2013-01-07 15:44:00,49.5,45.5,29.76,ENE,68,2.7,3.8,86,0.00,,---,0.21,VWS V14.01,2013-01-07 23:44:00,
2013-01-07 15:45:00,49.5,45.5,29.76,SE,135,2.0,2.9,86,0.00,,---,0.21,VWS V14.01,2013-01-07 23:45:00,
2013-01-07 15:46:00,49.5,45.5,29.76,SE,135,3.1,3.1,86,0.00,,---,0.21,VWS V14.01,2013-01-07 23:46:00,
2013-01-07 15:47:00,49.5,45.5,29.76,NNE,22,2.2,5.6,86,0.00,,---,0.21,VWS V14.01,2013-01-07 23:47:00,
2013-01-07 15:48:00,49.5,45.5,29.76,NNW,338,2.7,2.7,86,0.00,,---,0.21,VWS V14.01,2013-01-07 23:48:00,
2013-01-07 15:49:00,49.5,45.5,29.76,ESE,112,2.7,3.6,86,0.00,,---,0.21,VWS V14.01,2013-01-07 23:49:00,
2013-01-07 15:50:00,49.5,45.5,29.76,NNW,338,1.3,2.7,86,0.00,,---,0.21,VWS V14.01,2013-01-07 23:50:00,
2013-01-07 15:51:00,49.5,45.5,29.76,ESE,112,3.1,3.6,86,0.00,,---,0.21,VWS V14.01,2013-01-07 23:51:00,
2013-01-07 15:52:00,49.5,45.5,29.76,ESE,112,2.5,6.0,86,0.00,,---,0.21,VWS V14.01,2013-01-07 23:52:00,
2013-01-07 15:53:00,49.5,45.5,29.79,SSE,158,2.0,2.0,86,0.00,,---,0.21,VWS V14.01,2013-01-07 23:53:00,
2013-01-07 15:54:00,49.5,45.5,29.80,SSW,202,0.9,3.6,86,0.00,,---,0.21,VWS V14.01,2013-01-07 23:54:00,
2013-01-07 15:55:00,49.5,45.5,29.80,ENE,68,2.5,2.5,86,0.00,,---,0.21,VWS V14.01,2013-01-07 23:55:00,
2013-01-07 15:56:00,49.5,45.5,29.80,SW,225,3.6,5.8,86,0.00,,---,0.21,VWS V14.01,2013-01-07 23:56:00,
2013-01-07 15:57:00,49.5,45.5,29.80,SSE,158,2.9,3.6,86,0.00,,---,0.21,VWS V14.01,2013-01-07 23:57:00,
2013-01-07 15:58:00,49.5,45.5,29.79,South,180,2.5,2.5,86,0.00,,---,0.21,VWS V14.01,2013-01-07 23:58:00,
2013-01-07 15:59:00,49.5,45.5,29.80,NNE,22,1.3,5.6,86,0.00,,---,0.21,VWS V14.01,2013-01-07 23:59:00,
2013-01-07 16:00:00,49.5,45.5,29.80,ESE,112,2.0,3.6,86,0.00,,---,0.21,VWS V14.01,2013-01-08 00:00:00,
2013-01-07 16:01:00,49.5,45.5,29.80,WSW,248,3.6,7.2,86,0.00,,---,0.21,VWS V14.01,2013-01-08 00:01:00,
2013-01-07 16:02:00,49.5,45.5,29.80,ESE,112,1.6,4.9,86,0.00,,---,0.21,VWS V14.01,2013-01-08 00:02:00,
2013-01-07 16:03:00,49.5,45.5,29.79,East,90,4.5,4.5,86,0.00,,---,0.21,VWS V14.01,2013-01-08 00:03:00,
2013-01-07 16:04:00,49.5,45.5,29.80,South,180,4.0,4.0,86,0.00,,---,0.21,VWS V14.01,2013-01-08 00:04:00,
2013-01-07 16:05:00,49.5,45.5,29.80,West,270,4.3,4.5,86,0.00,,---,0.21,VWS V14.01,2013-01-08 00:05:00,
2013-01-07 16:06:00,49.5,45.5,29.80,ENE,68,3.6,4.3,86,0.00,,---,0.21,VWS V14.01,2013-01-08 00:06:00,
2013-01-07 16:07:00,49.5,45.2,29.80,South,180,4.9,4.9,85,0.00,,---,0.21,VWS V14.01,2013-01-08 00:07:00,
2013-01-07 16:08:00,49.5,45.2,29.79,ESE,112,2.2,2.2,85,0.00,,---,0.21,VWS V14.01,2013-01-08 00:08:00,
2013-01-07 16:09:00,49.5,45.2,29.80,NNE,22,1.3,2.0,85,0.00,,---,0.21,VWS V14.01,2013-01-08 00:09:00,
2013-01-07 16:10:00,49.5,45.2,29.80,SSE,158,2.7,3.1,85,0.00,,---,0.21,VWS V14.01,2013-01-08 00:10:00,
2013-01-07 16:11:00,49.5,45.5,29.80,ESE,112,0.0,2.7,86,0.00,,---,0.21,VWS V14.01,2013-01-08 00:11:00,
2013-01-07 16:12:00,49.3,45.3,29.80,SW,225,1.6,2.7,86,0.00,,---,0.21,VWS V14.01,2013-01-08 00:12:00,
2013-01-07 16:13:00,49.3,45.0,29.79,SSW,202,2.7,3.8,85,0.00,,---,0.21,VWS V14.01,2013-01-08 00:13:00,
2013-01-07 16:14:00,49.3,45.0,29.80,ESE,112,2.0,6.0,85,0.00,,---,0.21,VWS V14.01,2013-01-08 00:14:00,
2013-01-07 16:15:00,49.3,45.0,29.80,NNE,22,1.6,3.8,85,0.00,,---,0.21,VWS V14.01,2013-01-08 00:15:00,
2013-01-07 16:18:00,49.3,45.0,29.79,West,270,2.5,2.7,85,0.00,,---,0.21,VWS V14.01,2013-01-08 00:18:00,
2013-01-07 16:19:00,49.3,45.0,29.80,SSE,158,2.7,2.7,85,0.00,,---,0.21,VWS V14.01,2013-01-08 00:19:00,
2013-01-07 16:20:00,49.3,45.0,29.80,WNW,292,2.9,2.9,85,0.00,,---,0.21,VWS V14.01,2013-01-08 00:20:00,
2013-01-07 16:21:00,49.3,45.0,29.80,SSW,202,2.5,3.4,85,0.00,,---,0.21,VWS V14.01,2013-01-08 00:21:00,
2013-01-07 16:22:00,49.3,45.0,29.80,ESE,112,1.3,3.1,85,0.00,,---,0.21,VWS V14.01,2013-01-08 00:22:00,
2013-01-07 16:23:00,49.3,45.0,29.79,WSW,248,2.9,2.9,85,0.00,,---,0.21,VWS V14.01,2013-01-08 00:23:00,
2013-01-07 16:24:00,49.3,45.0,29.80,North,0,2.7,3.8,85,0.00,,---,0.21,VWS V14.01,2013-01-08 00:24:00,
2013-01-07 16:25:00,49.3,45.0,29.80,West,270,2.5,4.0,85,0.00,,---,0.21,VWS V14.01,2013-01-08 00:25:00,
2013-01-07 16:27:00,49.3,45.0,29.80,East,90,2.0,2.5,85,0.00,,---,0.21,VWS V14.01,2013-01-08 00:27:00,
2013-01-07 16:28:00,49.3,45.0,29.79,North,0,0.9,2.5,85,0.00,,---,0.21,VWS V14.01,2013-01-08 00:28:00,
2013-01-07 16:30:00,49.3,45.0,29.80,NNE,22,2.0,2.5,85,0.00,,---,0.21,VWS V14.01,2013-01-08 00:30:00,
2013-01-07 16:31:00,49.3,45.0,29.80,NNW,338,1.1,2.0,85,0.00,,---,0.21,VWS V14.01,2013-01-08 00:31:00,
2013-01-07 16:32:00,49.3,45.0,29.80,ESE,112,9.6,9.6,85,0.00,,---,0.21,VWS V14.01,2013-01-08 00:32:00,
2013-01-07 16:33:00,49.3,45.0,29.79,ESE,112,2.7,2.7,85,0.00,,---,0.16,VWS V14.01,2013-01-08 00:33:00,
2013-01-07 16:34:00,49.3,45.0,29.80,ESE,112,2.7,2.7,85,0.00,,---,0.21,VWS V14.01,2013-01-08 00:34:00,
2013-01-07 16:35:00,49.3,45.0,29.80,SE,135,2.9,2.9,85,0.00,,---,0.21,VWS V14.01,2013-01-08 00:35:00,
2013-01-07 16:36:00,49.3,45.0,29.80,ESE,112,7.4,7.4,85,0.00,,---,0.21,VWS V14.01,2013-01-08 00:36:00,
2013-01-07 16:37:00,49.1,44.8,29.80,SSE,158,3.4,7.4,85,0.00,,---,0.21,VWS V14.01,2013-01-08 00:37:00,
2013-01-07 16:38:00,49.1,44.8,29.79,SSE,158,1.1,2.0,85,0.00,,---,0.21,VWS V14.01,2013-01-08 00:38:00,
2013-01-07 16:39:00,49.1,44.8,29.80,SSW,202,2.0,5.4,85,0.00,,---,0.21,VWS V14.01,2013-01-08 00:39:00,
2013-01-07 16:40:00,49.1,44.8,29.80,WSW,248,3.8,5.4,85,0.00,,---,0.21,VWS V14.01,2013-01-08 00:40:00,
2013-01-07 16:41:00,49.1,44.8,29.80,SW,225,2.9,3.8,85,0.00,,---,0.21,VWS V14.01,2013-01-08 00:41:00,
2013-01-07 16:42:00,49.1,44.8,29.80,SE,135,1.3,2.9,85,0.00,,---,0.21,VWS V14.01,2013-01-08 00:42:00,
2013-01-07 16:43:00,49.1,44.8,29.79,SSE,158,2.5,4.9,85,0.00,,---,0.21,VWS V14.01,2013-01-08 00:43:00,
2013-01-07 16:44:00,49.1,44.8,29.80,NNE,22,1.6,3.1,85,0.00,,---,0.21,VWS V14.01,2013-01-08 00:44:00,
2013-01-07 16:45:00,49.1,44.8,29.80,WNW,292,3.4,6.0,85,0.00,,---,0.21,VWS V14.01,2013-01-08 00:45:00,
2013-01-07 16:46:00,49.1,44.8,29.80,ENE,68,2.5,3.4,85,0.00,,---,0.21,VWS V14.01,2013-01-08 00:46:00,
2013-01-07 16:47:00,49.1,44.8,29.80,NNE,22,2.9,2.9,85,0.00,,---,0.21,VWS V14.01,2013-01-08 00:47:00,
2013-01-07 16:48:00,48.9,44.6,29.79,SE,135,2.2,2.5,85,0.00,,---,0.21,VWS V14.01,2013-01-08 00:48:00,
2013-01-07 16:49:00,49.1,44.8,29.80,NNE,22,2.5,3.1,85,0.00,,---,0.21,VWS V14.01,2013-01-08 00:49:00,
2013-01-07 16:50:00,48.9,44.6,29.80,SSE,158,0.9,2.5,85,0.00,,---,0.21,VWS V14.01,2013-01-08 00:50:00,
2013-01-07 16:51:00,48.9,44.6,29.80,SSW,202,3.8,6.0,85,0.00,,---,0.21,VWS V14.01,2013-01-08 00:51:00,
2013-01-07 16:52:00,48.9,44.6,29.80,WSW,248,1.3,3.8,85,0.00,,---,0.21,VWS V14.01,2013-01-08 00:52:00,
2013-01-07 16:53:00,48.9,44.6,29.79,South,180,1.3,2.7,85,0.00,,---,0.21,VWS V14.01,2013-01-08 00:53:00,
2013-01-07 16:54:00,48.9,44.6,29.80,SSW,202,2.0,5.8,85,0.00,,---,0.21,VWS V14.01,2013-01-08 00:54:00,
2013-01-07 16:55:00,48.9,44.6,29.80,ESE,112,0.0,2.7,85,0.00,,---,0.21,VWS V14.01,2013-01-08 00:55:00,
2013-01-07 16:56:00,48.9,44.6,29.80,SSE,158,0.0,2.5,85,0.00,,---,0.21,VWS V14.01,2013-01-08 00:56:00,
2013-01-07 16:57:00,48.9,44.6,29.80,South,180,2.7,3.6,85,0.00,,---,0.21,VWS V14.01,2013-01-08 00:57:00,
2013-01-07 16:58:00,48.9,44.6,29.79,SSW,202,4.3,4.3,85,0.00,,---,0.21,VWS V14.01,2013-01-08 00:58:00,
2013-01-07 16:59:00,48.9,44.6,29.80,NW,315,2.2,3.1,85,0.00,,---,0.21,VWS V14.01,2013-01-08 00:59:00,
2013-01-07 17:00:00,48.9,44.6,29.80,North,0,2.5,5.6,85,0.00,,---,0.21,VWS V14.01,2013-01-08 01:00:00,
2013-01-07 17:01:00,48.9,44.6,29.80,East,90,1.3,2.7,85,0.00,,---,0.21,VWS V14.01,2013-01-08 01:01:00,
2013-01-07 17:02:00,48.9,44.6,29.80,ENE,68,2.7,2.7,85,0.00,,---,0.21,VWS V14.01,2013-01-08 01:02:00,
2013-01-07 17:03:00,48.9,44.6,29.79,SSW,202,3.6,3.8,85,0.00,,---,0.21,VWS V14.01,2013-01-08 01:03:00,
2013-01-07 17:04:00,48.9,44.6,29.80,SSW,202,3.8,4.9,85,0.00,,---,0.21,VWS V14.01,2013-01-08 01:04:00,
2013-01-07 17:05:00,48.9,44.6,29.80,SSW,202,0.0,3.8,85,0.00,,---,0.21,VWS V14.01,2013-01-08 01:05:00,
2013-01-07 17:06:00,48.9,44.6,29.80,East,90,0.0,0.0,85,0.00,,---,0.21,VWS V14.01,2013-01-08 01:06:00,
2013-01-07 17:07:00,48.9,44.6,29.80,SSW,202,2.0,3.6,85,0.00,,---,0.21,VWS V14.01,2013-01-08 01:07:00,
2013-01-07 17:08:00,48.9,44.6,29.79,ESE,112,6.3,6.3,85,0.00,,---,0.21,VWS V14.01,2013-01-08 01:08:00,
2013-01-07 17:09:00,48.9,44.6,29.80,ENE,68,4.0,4.0,85,0.00,,---,0.21,VWS V14.01,2013-01-08 01:09:00,
2013-01-07 17:10:00,48.9,44.6,29.80,SSE,158,2.9,6.3,85,0.00,,---,0.21,VWS V14.01,2013-01-08 01:10:00,
2013-01-07 17:11:00,48.7,44.8,29.80,SSE,158,2.7,3.8,86,0.00,,---,0.21,VWS V14.01,2013-01-08 01:11:00,
2013-01-07 17:12:00,48.7,44.8,29.80,ESE,112,2.5,2.7,86,0.00,,---,0.21,VWS V14.01,2013-01-08 01:12:00,
2013-01-07 17:13:00,48.7,44.8,29.79,SSE,158,7.4,7.4,86,0.00,,---,0.21,VWS V14.01,2013-01-08 01:13:00,
2013-01-07 17:14:00,48.7,44.8,29.80,SE,135,6.3,6.3,86,0.00,,---,0.21,VWS V14.01,2013-01-08 01:14:00,
2013-01-07 17:15:00,48.7,44.8,29.80,WNW,292,1.1,7.4,86,0.00,,---,0.21,VWS V14.01,2013-01-08 01:15:00,
2013-01-07 17:16:00,48.7,44.8,29.80,ESE,112,3.8,3.8,86,0.00,,---,0.21,VWS V14.01,2013-01-08 01:16:00,
2013-01-07 17:17:00,48.7,44.8,29.80,East,90,2.5,3.8,86,0.00,,---,0.21,VWS V14.01,2013-01-08 01:17:00,
2013-01-07 17:18:00,48.7,44.8,29.79,SSE,158,1.3,2.5,86,0.00,,---,0.21,VWS V14.01,2013-01-08 01:18:00,
2013-01-07 17:19:00,48.7,44.8,29.80,ESE,112,1.3,2.0,86,0.00,,---,0.21,VWS V14.01,2013-01-08 01:19:00,
2013-01-07 17:20:00,48.7,44.8,29.80,ENE,68,2.5,2.5,86,0.00,,---,0.21,VWS V14.01,2013-01-08 01:20:00,
2013-01-07 17:21:00,48.7,44.8,29.80,South,180,2.7,3.1,86,0.00,,---,0.21,VWS V14.01,2013-01-08 01:21:00,
2013-01-07 17:22:00,48.7,44.8,29.80,SSW,202,2.9,4.0,86,0.00,,---,0.21,VWS V14.01,2013-01-08 01:22:00,
2013-01-07 17:23:00,48.6,44.6,29.79,NE,45,1.6,1.6,86,0.00,,---,0.21,VWS V14.01,2013-01-08 01:23:00,
2013-01-07 17:24:00,48.6,44.6,29.80,SSE,158,1.1,2.9,86,0.00,,---,0.21,VWS V14.01,2013-01-08 01:24:00,
2013-01-07 17:25:00,48.6,44.6,29.80,SSE,158,3.8,3.8,86,0.00,,---,0.21,VWS V14.01,2013-01-08 01:25:00,
2013-01-07 17:26:00,48.6,44.6,29.80,NE,45,5.8,5.8,86,0.00,,---,0.21,VWS V14.01,2013-01-08 01:26:00,
2013-01-07 17:27:00,48.6,44.6,29.80,SSW,202,4.9,5.8,86,0.00,,---,0.21,VWS V14.01,2013-01-08 01:27:00,
2013-01-07 17:28:00,48.6,44.6,29.79,SE,135,1.3,1.3,86,0.00,,---,0.21,VWS V14.01,2013-01-08 01:28:00,
2013-01-07 17:29:00,48.6,44.6,29.80,NNW,338,0.9,3.1,86,0.00,,---,0.21,VWS V14.01,2013-01-08 01:29:00,
2013-01-07 17:30:00,48.6,44.6,29.80,ESE,112,0.9,2.2,86,0.00,,---,0.21,VWS V14.01,2013-01-08 01:30:00,
2013-01-07 17:31:00,48.6,44.6,29.80,NE,45,1.1,1.6,86,0.00,,---,0.21,VWS V14.01,2013-01-08 01:31:00,
2013-01-07 17:32:00,48.6,44.6,29.80,SSW,202,3.1,3.8,86,0.00,,---,0.21,VWS V14.01,2013-01-08 01:32:00,
2013-01-07 17:33:00,48.6,44.6,29.79,NNE,22,1.6,1.6,86,0.00,,---,0.21,VWS V14.01,2013-01-08 01:33:00,
2013-01-07 17:34:00,48.6,44.6,29.80,SSW,202,1.6,6.3,86,0.00,,---,0.21,VWS V14.01,2013-01-08 01:34:00,
2013-01-07 17:35:00,48.6,44.6,29.80,WSW,248,2.5,3.8,86,0.00,,---,0.21,VWS V14.01,2013-01-08 01:35:00,
2013-01-07 17:36:00,48.6,44.6,29.80,WNW,292,1.1,4.7,86,0.00,,---,0.21,VWS V14.01,2013-01-08 01:36:00,
2013-01-07 17:37:00,48.4,44.4,29.80,WNW,292,2.0,3.4,86,0.00,,---,0.21,VWS V14.01,2013-01-08 01:37:00,
2013-01-07 17:38:00,48.4,44.7,29.79,North,0,2.5,2.7,87,0.00,,---,0.21,VWS V14.01,2013-01-08 01:38:00,
2013-01-07 17:39:00,48.4,44.7,29.80,NNE,22,2.7,2.7,87,0.00,,---,0.21,VWS V14.01,2013-01-08 01:39:00,
2013-01-07 17:40:00,48.4,44.7,29.80,ENE,68,2.5,2.7,87,0.00,,---,0.21,VWS V14.01,2013-01-08 01:40:00,
2013-01-07 17:41:00,48.4,44.7,29.80,East,90,0.0,2.5,87,0.00,,---,0.21,VWS V14.01,2013-01-08 01:41:00,
2013-01-07 17:42:00,48.4,44.7,29.80,ESE,112,1.3,2.0,87,0.00,,---,0.21,VWS V14.01,2013-01-08 01:42:00,
2013-01-07 17:43:00,48.4,44.7,29.79,WNW,292,0.9,1.3,87,0.00,,---,0.21,VWS V14.01,2013-01-08 01:43:00,
2013-01-07 17:44:00,48.4,44.7,29.80,NNW,338,1.3,3.6,87,0.00,,---,0.21,VWS V14.01,2013-01-08 01:44:00,
2013-01-07 17:45:00,48.4,44.7,29.80,South,180,4.0,4.0,87,0.00,,---,0.21,VWS V14.01,2013-01-08 01:45:00,
2013-01-07 17:46:00,48.4,44.7,29.80,NE,45,2.0,4.0,87,0.00,,---,0.21,VWS V14.01,2013-01-08 01:46:00,
2013-01-07 17:47:00,48.4,44.7,29.80,ESE,112,2.0,2.0,87,0.00,,---,0.21,VWS V14.01,2013-01-08 01:47:00,
2013-01-07 17:48:00,48.4,44.7,29.79,WSW,248,2.0,2.0,87,0.00,,---,0.21,VWS V14.01,2013-01-08 01:48:00,
2013-01-07 17:49:00,48.4,44.7,29.80,SSE,158,1.6,2.0,87,0.00,,---,0.21,VWS V14.01,2013-01-08 01:49:00,
2013-01-07 17:50:00,48.4,44.7,29.80,North,0,3.6,5.4,87,0.00,,---,0.21,VWS V14.01,2013-01-08 01:50:00,
2013-01-07 17:51:00,48.4,44.7,29.80,WSW,248,2.0,3.6,87,0.00,,---,0.21,VWS V14.01,2013-01-08 01:51:00,
2013-01-07 17:52:00,48.4,44.7,29.80,ENE,68,2.7,7.4,87,0.00,,---,0.21,VWS V14.01,2013-01-08 01:52:00,
2013-01-07 17:53:00,48.2,44.5,29.79,SSW,202,3.8,3.8,87,0.00,,---,0.21,VWS V14.01,2013-01-08 01:53:00,
2013-01-07 17:54:00,48.2,44.5,29.80,SSE,158,2.5,8.5,87,0.00,,---,0.21,VWS V14.01,2013-01-08 01:54:00,
2013-01-07 17:55:00,48.2,44.5,29.80,ESE,112,3.8,3.8,87,0.00,,---,0.21,VWS V14.01,2013-01-08 01:55:00,
2013-01-07 17:56:00,48.2,44.5,29.80,East,90,3.4,5.4,87,0.00,,---,0.21,VWS V14.01,2013-01-08 01:56:00,
2013-01-07 17:57:00,48.2,44.5,29.80,ESE,112,1.6,4.9,87,0.00,,---,0.21,VWS V14.01,2013-01-08 01:57:00,
2013-01-07 17:58:00,48.2,44.2,29.79,South,180,1.3,2.7,86,0.00,,---,0.21,VWS V14.01,2013-01-08 01:58:00,
2013-01-07 17:59:00,48.4,44.4,29.80,NW,315,2.7,3.1,86,0.00,,---,0.21,VWS V14.01,2013-01-08 01:59:00,
2013-01-07 18:00:00,48.2,44.2,29.80,WSW,248,1.6,2.7,86,0.00,,---,0.21,VWS V14.01,2013-01-08 02:00:00,
2013-01-07 18:01:00,48.2,44.2,29.80,SSE,158,2.7,2.7,86,0.00,,---,0.21,VWS V14.01,2013-01-08 02:01:00,
2013-01-07 18:02:00,48.2,44.2,29.80,WSW,248,1.6,4.3,86,0.00,,---,0.21,VWS V14.01,2013-01-08 02:02:00,
2013-01-07 18:03:00,48.2,44.2,29.79,ENE,68,2.5,2.5,86,0.00,,---,0.21,VWS V14.01,2013-01-08 02:03:00,
2013-01-07 18:04:00,48.2,44.2,29.80,North,0,1.1,6.7,86,0.00,,---,0.21,VWS V14.01,2013-01-08 02:04:00,
2013-01-07 18:05:00,48.2,44.2,29.80,SSE,158,5.6,5.6,86,0.00,,---,0.21,VWS V14.01,2013-01-08 02:05:00,
2013-01-07 18:06:00,48.2,44.2,29.80,West,270,0.9,5.6,86,0.00,,---,0.21,VWS V14.01,2013-01-08 02:06:00,
2013-01-07 18:07:00,48.2,44.2,29.80,NNW,338,1.1,2.5,86,0.00,,---,0.21,VWS V14.01,2013-01-08 02:07:00,
2013-01-07 18:08:00,48.2,44.2,29.82,WNW,292,3.4,3.4,86,0.00,,---,0.21,VWS V14.01,2013-01-08 02:08:00,
2013-01-07 18:09:00,48.2,44.2,29.82,ESE,112,1.3,2.9,86,0.00,,---,0.21,VWS V14.01,2013-01-08 02:09:00,
2013-01-07 18:10:00,48.2,44.2,29.82,NNE,22,2.5,3.4,86,0.00,,---,0.21,VWS V14.01,2013-01-08 02:10:00,
2013-01-07 18:11:00,48.2,44.2,29.82,SSE,158,1.3,2.5,86,0.00,,---,0.21,VWS V14.01,2013-01-08 02:11:00,
2013-01-07 18:12:00,48.2,44.2,29.82,NNE,22,1.3,2.7,86,0.00,,---,0.21,VWS V14.01,2013-01-08 02:12:00,
2013-01-07 18:13:00,48.2,44.5,29.82,WNW,292,5.4,5.4,87,0.00,,---,0.21,VWS V14.01,2013-01-08 02:13:00,
2013-01-07 18:14:00,48.2,44.2,29.82,SSW,202,2.7,4.0,86,0.00,,---,0.21,VWS V14.01,2013-01-08 02:14:00,
2013-01-07 18:15:00,48.2,44.5,29.82,SE,135,2.9,6.0,87,0.00,,---,0.21,VWS V14.01,2013-01-08 02:15:00,
2013-01-07 18:16:00,48.2,44.5,29.82,NE,45,5.6,5.6,87,0.00,,---,0.21,VWS V14.01,2013-01-08 02:16:00,
2013-01-07 18:17:00,48.2,44.5,29.82,ESE,112,1.3,5.6,87,0.00,,---,0.21,VWS V14.01,2013-01-08 02:17:00,
2013-01-07 18:18:00,48.2,44.2,29.82,NNE,22,2.7,2.7,86,0.00,,---,0.21,VWS V14.01,2013-01-08 02:18:00,
2013-01-07 18:19:00,48.2,44.2,29.82,ESE,112,2.0,8.5,86,0.00,,---,0.21,VWS V14.01,2013-01-08 02:19:00,
2013-01-07 18:20:00,48.2,44.2,29.82,East,90,1.6,2.9,86,0.00,,---,0.21,VWS V14.01,2013-01-08 02:20:00,
2013-01-07 18:21:00,48.2,44.2,29.82,WNW,292,1.6,2.5,86,0.00,,---,0.21,VWS V14.01,2013-01-08 02:21:00,
2013-01-07 18:22:00,48.2,44.2,29.82,NE,45,2.9,2.9,86,0.00,,---,0.21,VWS V14.01,2013-01-08 02:22:00,
2013-01-07 18:23:00,48.0,44.0,29.82,NNW,338,2.9,2.9,86,0.00,,---,0.21,VWS V14.01,2013-01-08 02:23:00,
2013-01-07 18:24:00,48.0,44.0,29.82,South,180,1.6,3.4,86,0.00,,---,0.21,VWS V14.01,2013-01-08 02:24:00,
2013-01-07 18:25:00,48.2,44.2,29.82,NE,45,2.5,3.4,86,0.00,,---,0.21,VWS V14.01,2013-01-08 02:25:00,
2013-01-07 18:26:00,48.2,43.9,29.82,North,0,5.6,5.6,85,0.00,,---,0.21,VWS V14.01,2013-01-08 02:26:00,
2013-01-07 18:27:00,48.2,43.9,29.82,SSE,158,3.8,5.6,85,0.00,,---,0.21,VWS V14.01,2013-01-08 02:27:00,
2013-01-07 18:28:00,48.0,43.7,29.82,SSE,158,0.0,1.3,85,0.00,,---,0.21,VWS V14.01,2013-01-08 02:28:00,
2013-01-07 18:29:00,48.2,43.9,29.82,SSE,158,1.3,2.9,85,0.00,,---,0.21,VWS V14.01,2013-01-08 02:29:00,
2013-01-07 18:30:00,48.0,43.7,29.82,ESE,112,3.8,3.8,85,0.00,,---,0.21,VWS V14.01,2013-01-08 02:30:00,
2013-01-07 18:31:00,48.0,43.7,29.82,ENE,68,3.4,5.4,85,0.00,,---,0.21,VWS V14.01,2013-01-08 02:31:00,
2013-01-07 18:32:00,48.0,43.7,29.82,SSW,202,4.9,5.8,85,0.00,,---,0.21,VWS V14.01,2013-01-08 02:32:00,
2013-01-07 18:33:00,48.0,43.7,29.82,SSE,158,5.6,10.1,85,0.00,,---,0.21,VWS V14.01,2013-01-08 02:33:00,
2013-01-07 18:34:00,48.0,43.7,29.82,SSE,158,10.1,10.1,85,0.00,,---,0.21,VWS V14.01,2013-01-08 02:34:00,
2013-01-07 18:35:00,48.0,43.7,29.82,WSW,248,1.1,10.1,85,0.00,,---,0.21,VWS V14.01,2013-01-08 02:35:00,
2013-01-07 18:36:00,48.0,43.7,29.82,WNW,292,1.3,2.7,85,0.00,,---,0.21,VWS V14.01,2013-01-08 02:36:00,
2013-01-07 18:37:00,48.0,43.7,29.82,NNE,22,2.5,2.5,85,0.00,,---,0.21,VWS V14.01,2013-01-08 02:37:00,
2013-01-07 18:38:00,48.0,43.7,29.82,ENE,68,2.0,5.8,85,0.00,,---,0.21,VWS V14.01,2013-01-08 02:38:00,
2013-01-07 18:39:00,48.0,43.7,29.82,SSE,158,5.8,5.8,85,0.00,,---,0.21,VWS V14.01,2013-01-08 02:39:00,
2013-01-07 18:40:00,48.0,43.7,29.82,WNW,292,2.9,5.8,85,0.00,,---,0.21,VWS V14.01,2013-01-08 02:40:00,
2013-01-07 18:41:00,48.0,43.7,29.82,SSW,202,2.9,2.9,85,0.00,,---,0.21,VWS V14.01,2013-01-08 02:41:00,
2013-01-07 18:42:00,48.0,43.4,29.82,West,270,2.0,3.1,84,0.00,,---,0.21,VWS V14.01,2013-01-08 02:42:00,
2013-01-07 18:43:00,48.0,43.4,29.82,ESE,112,2.5,2.5,84,0.00,,---,0.21,VWS V14.01,2013-01-08 02:43:00,
2013-01-07 18:44:00,48.0,43.4,29.82,NNE,22,2.5,3.8,84,0.00,,---,0.21,VWS V14.01,2013-01-08 02:44:00,
2013-01-07 18:45:00,48.0,43.4,29.82,East,90,1.6,6.5,84,0.00,,---,0.21,VWS V14.01,2013-01-08 02:45:00,
2013-01-07 18:46:00,48.0,43.4,29.82,ENE,68,2.5,2.5,84,0.00,,---,0.21,VWS V14.01,2013-01-08 02:46:00,
2013-01-07 18:47:00,48.0,43.4,29.82,ESE,112,2.0,4.5,84,0.00,,---,0.21,VWS V14.01,2013-01-08 02:47:00,
2013-01-07 18:48:00,48.0,43.4,29.82,East,90,4.0,4.0,84,0.00,,---,0.21,VWS V14.01,2013-01-08 02:48:00,
2013-01-07 18:49:00,48.0,43.4,29.82,NE,45,3.4,3.4,84,0.00,,---,0.21,VWS V14.01,2013-01-08 02:49:00,
2013-01-07 18:50:00,48.0,43.4,29.82,NNW,338,1.6,5.4,84,0.00,,---,0.21,VWS V14.01,2013-01-08 02:50:00,
2013-01-07 18:51:00,48.0,43.4,29.82,NNE,22,2.9,2.9,84,0.00,,---,0.21,VWS V14.01,2013-01-08 02:51:00,
2013-01-07 18:52:00,47.8,43.2,29.82,ESE,112,4.9,9.0,84,0.00,,---,0.21,VWS V14.01,2013-01-08 02:52:00,
2013-01-07 18:53:00,47.8,43.2,29.82,SSE,158,1.6,2.7,84,0.00,,---,0.21,VWS V14.01,2013-01-08 02:53:00,
2013-01-07 18:54:00,47.8,43.2,29.82,WSW,248,2.7,3.6,84,0.00,,---,0.21,VWS V14.01,2013-01-08 02:54:00,
2013-01-07 18:55:00,47.8,43.2,29.82,ESE,112,4.0,5.6,84,0.00,,---,0.21,VWS V14.01,2013-01-08 02:55:00,
2013-01-07 18:56:00,47.8,42.9,29.82,SSE,158,1.6,4.7,83,0.00,,---,0.21,VWS V14.01,2013-01-08 02:56:00,
2013-01-07 18:57:00,47.8,42.9,29.82,ESE,112,0.9,3.8,83,0.00,,---,0.21,VWS V14.01,2013-01-08 02:57:00,
2013-01-07 18:58:00,47.8,42.9,29.82,East,90,2.0,2.0,83,0.00,,---,0.21,VWS V14.01,2013-01-08 02:58:00,
2013-01-07 18:59:00,47.8,42.9,29.82,ESE,112,1.1,3.8,83,0.00,,---,0.21,VWS V14.01,2013-01-08 02:59:00,
2013-01-07 19:00:00,47.8,42.9,29.82,ENE,68,2.5,3.4,83,0.00,,---,0.21,VWS V14.01,2013-01-08 03:00:00,
2013-01-07 19:01:00,47.8,42.9,29.82,ENE,68,2.9,2.9,83,0.00,,---,0.21,VWS V14.01,2013-01-08 03:01:00,
2013-01-07 19:02:00,47.8,42.9,29.82,North,0,2.9,3.6,83,0.00,,---,0.21,VWS V14.01,2013-01-08 03:02:00,
2013-01-07 19:03:00,47.8,42.9,29.82,SSE,158,4.3,4.3,83,0.00,,---,0.21,VWS V14.01,2013-01-08 03:03:00,
2013-01-07 19:04:00,47.8,42.9,29.82,SSE,158,3.1,4.3,83,0.00,,---,0.21,VWS V14.01,2013-01-08 03:04:00,
2013-01-07 19:05:00,47.8,42.9,29.82,WSW,248,2.0,4.3,83,0.00,,---,0.21,VWS V14.01,2013-01-08 03:05:00,
2013-01-07 19:06:00,47.8,42.9,29.82,SSE,158,2.5,4.9,83,0.00,,---,0.21,VWS V14.01,2013-01-08 03:06:00,
2013-01-07 19:07:00,47.8,42.9,29.82,East,90,2.7,2.9,83,0.00,,---,0.21,VWS V14.01,2013-01-08 03:07:00,
2013-01-07 19:08:00,47.7,42.8,29.82,SE,135,1.3,1.3,83,0.00,,---,0.21,VWS V14.01,2013-01-08 03:08:00,
2013-01-07 19:09:00,47.7,42.8,29.82,SE,135,1.3,2.7,83,0.00,,---,0.21,VWS V14.01,2013-01-08 03:09:00,
2013-01-07 19:10:00,47.7,42.8,29.82,ENE,68,1.3,1.3,83,0.00,,---,0.21,VWS V14.01,2013-01-08 03:10:00,
2013-01-07 19:11:00,47.7,42.8,29.82,West,270,2.9,5.4,83,0.00,,---,0.21,VWS V14.01,2013-01-08 03:11:00,
2013-01-07 19:13:00,47.7,42.4,29.82,WSW,248,4.0,4.9,82,0.00,,---,0.21,VWS V14.01,2013-01-08 03:13:00,
2013-01-07 19:14:00,47.7,42.4,29.82,SSW,202,4.9,4.9,82,0.00,,---,0.21,VWS V14.01,2013-01-08 03:14:00,
2013-01-07 19:15:00,47.7,42.4,29.82,NNE,22,1.1,4.9,82,0.00,,---,0.21,VWS V14.01,2013-01-08 03:15:00,
2013-01-07 19:16:00,47.7,42.8,29.82,ENE,68,2.9,3.1,83,0.00,,---,0.21,VWS V14.01,2013-01-08 03:16:00,
2013-01-07 19:17:00,47.5,42.6,29.82,NE,45,1.3,2.9,83,0.00,,---,0.21,VWS V14.01,2013-01-08 03:17:00,
2013-01-07 19:18:00,47.5,42.6,29.82,ESE,112,1.3,1.3,83,0.00,,---,0.21,VWS V14.01,2013-01-08 03:18:00,
2013-01-07 19:19:00,47.5,42.6,29.82,ESE,112,1.1,2.7,83,0.00,,---,0.21,VWS V14.01,2013-01-08 03:19:00,
2013-01-07 19:20:00,47.5,42.6,29.82,NNE,22,2.2,2.5,83,0.00,,---,0.21,VWS V14.01,2013-01-08 03:20:00,
2013-01-07 19:22:00,47.5,42.6,29.82,SSE,158,1.6,3.6,83,0.00,,---,0.21,VWS V14.01,2013-01-08 03:22:00,
2013-01-07 19:23:00,47.5,42.6,29.82,East,90,0.0,0.9,83,0.00,,---,0.21,VWS V14.01,2013-01-08 03:23:00,
2013-01-07 19:25:00,47.5,42.6,29.82,South,180,1.1,1.1,83,0.00,,---,0.21,VWS V14.01,2013-01-08 03:25:00,
2013-01-07 19:26:00,47.5,42.6,29.82,NNE,22,3.1,3.1,83,0.00,,---,0.21,VWS V14.01,2013-01-08 03:26:00,
2013-01-07 19:27:00,47.3,42.4,29.82,SSE,158,1.6,4.7,83,0.00,,---,0.21,VWS V14.01,2013-01-08 03:27:00,
2013-01-07 19:28:00,47.3,42.4,29.82,West,270,2.5,2.5,83,0.00,,---,0.21,VWS V14.01,2013-01-08 03:28:00,
2013-01-07 19:29:00,47.3,42.4,29.82,North,0,0.0,1.6,83,0.00,,---,0.21,VWS V14.01,2013-01-08 03:29:00,
2013-01-07 19:30:00,47.3,42.4,29.82,West,270,2.5,2.5,83,0.00,,---,0.21,VWS V14.01,2013-01-08 03:30:00,
2013-01-07 19:31:00,47.3,42.4,29.82,ENE,68,4.9,4.9,83,0.00,,---,0.21,VWS V14.01,2013-01-08 03:31:00,
2013-01-07 19:32:00,47.3,42.1,29.82,ESE,112,2.5,4.9,82,0.00,,---,0.21,VWS V14.01,2013-01-08 03:32:00,
2013-01-07 19:33:00,47.5,42.0,29.82,SSE,158,2.5,2.5,81,0.00,,---,0.21,VWS V14.01,2013-01-08 03:33:00,
2013-01-07 19:34:00,47.5,42.0,29.82,ESE,112,2.0,3.8,81,0.00,,---,0.21,VWS V14.01,2013-01-08 03:34:00,
2013-01-07 19:35:00,47.5,42.3,29.82,ESE,112,4.9,4.9,82,0.00,,---,0.21,VWS V14.01,2013-01-08 03:35:00,
2013-01-07 19:36:00,47.5,42.0,29.82,ESE,112,3.1,4.9,81,0.00,,---,0.21,VWS V14.01,2013-01-08 03:36:00,
2013-01-07 19:37:00,47.5,42.0,29.82,SSE,158,3.8,4.0,81,0.00,,---,0.21,VWS V14.01,2013-01-08 03:37:00,
2013-01-07 19:38:00,47.5,42.3,29.85,NE,45,3.1,3.1,82,0.00,,---,0.21,VWS V14.01,2013-01-08 03:38:00,
2013-01-07 19:39:00,47.5,42.3,29.85,ENE,68,0.9,2.7,82,0.00,,---,0.21,VWS V14.01,2013-01-08 03:39:00,
2013-01-07 19:40:00,47.5,42.3,29.85,NNE,22,3.4,3.4,82,0.00,,---,0.21,VWS V14.01,2013-01-08 03:40:00,
2013-01-07 19:41:00,47.3,42.1,29.85,SSW,202,5.6,5.6,82,0.00,,---,0.21,VWS V14.01,2013-01-08 03:41:00,
2013-01-07 19:42:00,47.3,41.8,29.85,ESE,112,2.5,6.3,81,0.00,,---,0.21,VWS V14.01,2013-01-08 03:42:00,
2013-01-07 19:43:00,47.3,42.1,29.85,ENE,68,2.0,2.0,82,0.00,,---,0.21,VWS V14.01,2013-01-08 03:43:00,
2013-01-07 19:44:00,47.3,41.8,29.85,South,180,2.0,2.0,81,0.00,,---,0.21,VWS V14.01,2013-01-08 03:44:00,
2013-01-07 19:45:00,47.3,42.1,29.85,SSE,158,1.3,2.0,82,0.00,,---,0.21,VWS V14.01,2013-01-08 03:45:00,
2013-01-07 19:46:00,47.3,41.8,29.85,SSW,202,3.1,3.8,81,0.00,,---,0.21,VWS V14.01,2013-01-08 03:46:00,
2013-01-07 19:47:00,47.3,41.8,29.85,ESE,112,1.6,3.4,81,0.00,,---,0.21,VWS V14.01,2013-01-08 03:47:00,
2013-01-07 19:48:00,47.3,41.8,29.85,ENE,68,1.6,1.6,81,0.00,,---,0.21,VWS V14.01,2013-01-08 03:48:00,
2013-01-07 19:49:00,47.3,41.8,29.85,ENE,68,1.6,2.5,81,0.00,,---,0.21,VWS V14.01,2013-01-08 03:49:00,
2013-01-07 19:51:00,47.3,41.8,29.85,SSW,202,2.2,2.9,81,0.00,,---,0.21,VWS V14.01,2013-01-08 03:51:00,
2013-01-07 19:52:00,47.3,41.8,29.85,WNW,292,1.6,2.2,81,0.00,,---,0.21,VWS V14.01,2013-01-08 03:52:00,
2013-01-07 19:53:00,47.3,41.5,29.85,ENE,68,2.0,2.0,80,0.00,,---,0.21,VWS V14.01,2013-01-08 03:53:00,
2013-01-07 19:54:00,47.3,41.5,29.85,SSE,158,2.0,5.6,80,0.00,,---,0.21,VWS V14.01,2013-01-08 03:54:00,
2013-01-07 19:55:00,47.3,41.5,29.85,NNE,22,1.6,2.7,80,0.00,,---,0.21,VWS V14.01,2013-01-08 03:55:00,
2013-01-07 19:56:00,47.3,41.5,29.85,East,90,1.3,1.6,80,0.00,,---,0.21,VWS V14.01,2013-01-08 03:56:00,
2013-01-07 19:57:00,47.3,41.5,29.85,SSE,158,2.5,2.9,80,0.00,,---,0.21,VWS V14.01,2013-01-08 03:57:00,
2013-01-07 19:58:00,47.3,41.8,29.85,SSE,158,1.6,2.2,81,0.00,,---,0.21,VWS V14.01,2013-01-08 03:58:00,
2013-01-07 19:59:00,47.3,41.5,29.85,ENE,68,2.2,3.4,80,0.00,,---,0.21,VWS V14.01,2013-01-08 03:59:00,
2013-01-07 20:00:00,47.3,41.8,29.85,SSW,202,0.0,2.2,81,0.00,,---,0.21,VWS V14.01,2013-01-08 04:00:00,
2013-01-07 20:01:00,47.3,41.8,29.85,ENE,68,2.5,2.5,81,0.00,,---,0.21,VWS V14.01,2013-01-08 04:01:00,
2013-01-07 20:02:00,47.3,41.8,29.85,ESE,112,0.0,2.5,81,0.00,,---,0.21,VWS V14.01,2013-01-08 04:02:00,
2013-01-07 20:03:00,47.3,41.8,29.85,WSW,248,1.6,1.6,81,0.00,,---,0.21,VWS V14.01,2013-01-08 04:03:00,
2013-01-07 20:04:00,47.3,41.8,29.85,South,180,1.3,3.4,81,0.00,,---,0.21,VWS V14.01,2013-01-08 04:04:00,
2013-01-07 20:05:00,47.3,41.8,29.85,South,180,2.9,4.0,81,0.00,,---,0.21,VWS V14.01,2013-01-08 04:05:00,
2013-01-07 20:06:00,47.3,41.8,29.85,ENE,68,2.0,2.9,81,0.00,,---,0.21,VWS V14.01,2013-01-08 04:06:00,
2013-01-07 20:07:00,47.1,41.6,29.85,NNE,22,3.1,3.1,81,0.00,,---,0.21,VWS V14.01,2013-01-08 04:07:00,
2013-01-07 20:08:00,47.3,41.5,29.85,ESE,112,2.9,4.3,80,0.00,,---,0.21,VWS V14.01,2013-01-08 04:08:00,
2013-01-07 20:09:00,47.3,41.5,29.85,SSE,158,4.3,4.3,80,0.00,,---,0.21,VWS V14.01,2013-01-08 04:09:00,
2013-01-07 20:10:00,47.3,41.5,29.85,SSW,202,1.6,4.3,80,0.00,,---,0.21,VWS V14.01,2013-01-08 04:10:00,
2013-01-07 20:11:00,47.1,41.3,29.85,ESE,112,2.5,2.5,80,0.00,,---,0.21,VWS V14.01,2013-01-08 04:11:00,
2013-01-07 20:12:00,47.1,41.3,29.85,ESE,112,2.7,2.7,80,0.00,,---,0.21,VWS V14.01,2013-01-08 04:12:00,
2013-01-07 20:13:00,47.3,41.1,29.85,SSE,158,2.9,6.3,79,0.00,,---,0.21,VWS V14.01,2013-01-08 04:13:00,
2013-01-07 20:14:00,47.3,41.1,29.85,SSE,158,6.3,6.3,79,0.00,,---,0.21,VWS V14.01,2013-01-08 04:14:00,
2013-01-07 20:15:00,47.1,41.0,29.85,SSE,158,2.9,6.3,79,0.00,,---,0.21,VWS V14.01,2013-01-08 04:15:00,
2013-01-07 20:16:00,47.3,41.1,29.85,SSE,158,3.4,4.0,79,0.00,,---,0.21,VWS V14.01,2013-01-08 04:16:00,
2013-01-07 20:17:00,47.1,41.0,29.85,SSW,202,2.7,4.7,79,0.00,,---,0.21,VWS V14.01,2013-01-08 04:17:00,
2013-01-07 20:18:00,47.1,41.0,29.85,ESE,112,1.6,1.6,79,0.00,,---,0.21,VWS V14.01,2013-01-08 04:18:00,
2013-01-07 20:19:00,47.1,41.0,29.85,South,180,1.6,3.1,79,0.00,,---,0.21,VWS V14.01,2013-01-08 04:19:00,
2013-01-07 20:20:00,47.1,41.0,29.85,SE,135,2.7,2.9,79,0.00,,---,0.21,VWS V14.01,2013-01-08 04:20:00,
2013-01-07 20:21:00,47.1,41.0,29.85,ESE,112,6.5,6.5,79,0.00,,---,0.21,VWS V14.01,2013-01-08 04:21:00,
2013-01-07 20:22:00,47.1,41.0,29.85,SE,135,1.6,6.5,79,0.00,,---,0.21,VWS V14.01,2013-01-08 04:22:00,
2013-01-07 20:23:00,47.1,41.0,29.85,ESE,112,4.3,6.5,79,0.00,,---,0.21,VWS V14.01,2013-01-08 04:23:00,
2013-01-07 20:24:00,47.1,41.0,29.85,SSE,158,6.5,6.5,79,0.00,,---,0.21,VWS V14.01,2013-01-08 04:24:00,
2013-01-07 20:25:00,47.1,41.0,29.85,SSW,202,3.1,6.5,79,0.00,,---,0.21,VWS V14.01,2013-01-08 04:25:00,
2013-01-07 20:26:00,47.1,41.0,29.85,ENE,68,2.0,4.0,79,0.00,,---,0.21,VWS V14.01,2013-01-08 04:26:00,
2013-01-07 20:27:00,47.1,41.0,29.85,ESE,112,2.9,7.2,79,0.00,,---,0.21,VWS V14.01,2013-01-08 04:27:00,
2013-01-07 20:28:00,47.3,40.8,29.85,SSW,202,2.5,3.1,78,0.00,,---,0.21,VWS V14.01,2013-01-08 04:28:00,
2013-01-07 20:29:00,47.3,40.8,29.85,South,180,3.1,8.7,78,0.00,,---,0.21,VWS V14.01,2013-01-08 04:29:00,
2013-01-07 20:30:00,47.3,40.8,29.85,NE,45,2.5,5.6,78,0.00,,---,0.21,VWS V14.01,2013-01-08 04:30:00,
2013-01-07 20:31:00,47.3,40.8,29.85,SE,135,2.9,2.9,78,0.00,,---,0.21,VWS V14.01,2013-01-08 04:31:00,
2013-01-07 20:33:00,47.1,40.6,29.85,East,90,2.5,2.5,78,0.00,,---,0.21,VWS V14.01,2013-01-08 04:33:00,
2013-01-07 20:34:00,47.1,40.6,29.85,East,90,2.5,2.7,78,0.00,,---,0.21,VWS V14.01,2013-01-08 04:34:00,
2013-01-07 20:35:00,47.1,40.6,29.85,ESE,112,5.6,5.6,78,0.00,,---,0.21,VWS V14.01,2013-01-08 04:35:00,
2013-01-07 20:36:00,47.1,40.6,29.85,SSE,158,4.0,5.6,78,0.00,,---,0.21,VWS V14.01,2013-01-08 04:36:00,
2013-01-07 20:37:00,47.1,40.6,29.85,South,180,2.7,4.0,78,0.00,,---,0.21,VWS V14.01,2013-01-08 04:37:00,
2013-01-07 20:38:00,47.1,40.6,29.82,SSE,158,5.4,5.4,78,0.00,,---,0.21,VWS V14.01,2013-01-08 04:38:00,
2013-01-07 20:39:00,47.1,40.6,29.82,SSE,158,2.5,3.6,78,0.00,,---,0.21,VWS V14.01,2013-01-08 04:39:00,
2013-01-07 20:42:00,47.1,40.3,29.82,SSE,158,3.8,7.6,77,0.00,,---,0.21,VWS V14.01,2013-01-08 04:42:00,
2013-01-07 20:43:00,47.1,40.3,29.82,ESE,112,2.7,3.6,77,0.00,,---,0.21,VWS V14.01,2013-01-08 04:43:00,
2013-01-07 20:44:00,47.1,40.3,29.82,NNE,22,3.6,4.0,77,0.00,,---,0.21,VWS V14.01,2013-01-08 04:44:00,
2013-01-07 20:45:00,47.1,40.3,29.82,South,180,2.9,3.6,77,0.00,,---,0.21,VWS V14.01,2013-01-08 04:45:00,
2013-01-07 20:46:00,47.1,40.3,29.82,SE,135,2.5,3.6,77,0.00,,---,0.21,VWS V14.01,2013-01-08 04:46:00,
2013-01-07 20:47:00,47.1,40.3,29.82,SSE,158,3.8,3.8,77,0.00,,---,0.21,VWS V14.01,2013-01-08 04:47:00,
2013-01-07 20:48:00,47.1,40.6,29.82,ENE,68,4.7,4.7,78,0.00,,---,0.21,VWS V14.01,2013-01-08 04:48:00,
2013-01-07 20:49:00,47.1,40.6,29.82,ENE,68,3.8,3.8,78,0.00,,---,0.21,VWS V14.01,2013-01-08 04:49:00,
2013-01-07 20:50:00,47.1,40.6,29.82,NW,315,2.7,4.7,78,0.00,,---,0.21,VWS V14.01,2013-01-08 04:50:00,
2013-01-07 20:51:00,47.1,40.6,29.82,ESE,112,1.3,2.7,78,0.00,,---,0.21,VWS V14.01,2013-01-08 04:51:00,
2013-01-07 20:52:00,47.1,40.3,29.82,SSE,158,3.1,4.0,77,0.00,,---,0.21,VWS V14.01,2013-01-08 04:52:00,
2013-01-07 20:53:00,47.1,40.6,29.85,ESE,112,3.8,3.8,78,0.00,,---,0.21,VWS V14.01,2013-01-08 04:53:00,
2013-01-07 20:54:00,47.1,40.6,29.85,ESE,112,3.8,4.3,78,0.00,,---,0.21,VWS V14.01,2013-01-08 04:54:00,
2013-01-07 20:55:00,47.1,40.6,29.85,ESE,112,3.1,3.8,78,0.00,,---,0.21,VWS V14.01,2013-01-08 04:55:00,
2013-01-07 20:56:00,47.1,40.3,29.85,NNW,338,3.1,3.1,77,0.00,,---,0.21,VWS V14.01,2013-01-08 04:56:00,
2013-01-07 20:57:00,47.1,40.3,29.85,ESE,112,2.9,3.1,77,0.00,,---,0.21,VWS V14.01,2013-01-08 04:57:00,
2013-01-07 20:58:00,47.1,40.3,29.85,ESE,112,4.0,4.0,77,0.00,,---,0.21,VWS V14.01,2013-01-08 04:58:00,
2013-01-07 20:59:00,47.1,40.3,29.85,ESE,112,4.0,4.0,77,0.00,,---,0.21,VWS V14.01,2013-01-08 04:59:00,
2013-01-07 21:00:00,47.1,40.6,29.85,NNE,22,2.9,2.9,78,0.00,,---,0.21,VWS V14.01,2013-01-08 05:00:00,
2013-01-07 21:01:00,46.9,40.5,29.85,SSE,158,2.7,3.4,78,0.00,,---,0.21,VWS V14.01,2013-01-08 05:01:00,
2013-01-07 21:03:00,46.9,40.1,29.85,SSE,158,3.6,4.9,77,0.00,,---,0.21,VWS V14.01,2013-01-08 05:03:00,
2013-01-07 21:04:00,46.9,40.1,29.85,SSE,158,3.6,4.9,77,0.00,,---,0.21,VWS V14.01,2013-01-08 05:04:00,
2013-01-07 21:05:00,46.9,40.5,29.85,SSE,158,3.1,3.8,78,0.00,,---,0.21,VWS V14.01,2013-01-08 05:05:00,
2013-01-07 21:06:00,46.9,40.5,29.85,SSW,202,5.8,5.8,78,0.00,,---,0.21,VWS V14.01,2013-01-08 05:06:00,
2013-01-07 21:07:00,46.9,40.5,29.85,SE,135,3.1,5.8,78,0.00,,---,0.21,VWS V14.01,2013-01-08 05:07:00,
2013-01-07 21:08:00,46.9,40.5,29.85,South,180,5.6,9.0,78,0.00,,---,0.21,VWS V14.01,2013-01-08 05:08:00,
2013-01-07 21:09:00,46.9,40.5,29.85,NNW,338,3.4,9.0,78,0.00,,---,0.21,VWS V14.01,2013-01-08 05:09:00,
2013-01-07 21:10:00,46.9,40.5,29.85,SE,135,2.5,3.4,78,0.00,,---,0.21,VWS V14.01,2013-01-08 05:10:00,
2013-01-07 21:11:00,46.9,40.5,29.85,ENE,68,2.5,5.8,78,0.00,,---,0.21,VWS V14.01,2013-01-08 05:11:00,
2013-01-07 21:12:00,46.9,40.5,29.85,SSW,202,6.9,6.9,78,0.00,,---,0.21,VWS V14.01,2013-01-08 05:12:00,
2013-01-07 21:13:00,46.9,40.1,29.85,ESE,112,3.1,5.8,77,0.00,,---,0.21,VWS V14.01,2013-01-08 05:13:00,
2013-01-07 21:14:00,46.9,40.1,29.85,ESE,112,3.1,5.8,77,0.00,,---,0.21,VWS V14.01,2013-01-08 05:14:00,
2013-01-07 21:15:00,46.9,40.1,29.85,SSE,158,2.7,4.9,77,0.00,,---,0.21,VWS V14.01,2013-01-08 05:15:00,
2013-01-07 21:16:00,46.9,40.1,29.85,NNE,22,4.9,4.9,77,0.00,,---,0.21,VWS V14.01,2013-01-08 05:16:00,
2013-01-07 21:17:00,46.9,40.1,29.85,ESE,112,1.3,4.9,77,0.00,,---,0.21,VWS V14.01,2013-01-08 05:17:00,
2013-01-07 21:18:00,46.9,40.1,29.85,ENE,68,2.9,5.6,77,0.00,,---,0.21,VWS V14.01,2013-01-08 05:18:00,
2013-01-07 21:19:00,46.9,40.1,29.85,ESE,112,2.0,5.6,77,0.00,,---,0.21,VWS V14.01,2013-01-08 05:19:00,
2013-01-07 21:20:00,46.9,40.1,29.85,SE,135,1.3,2.0,77,0.00,,---,0.21,VWS V14.01,2013-01-08 05:20:00,
2013-01-07 21:21:00,46.9,40.1,29.85,NNE,22,5.6,5.6,77,0.00,,---,0.21,VWS V14.01,2013-01-08 05:21:00,
2013-01-07 21:22:00,46.9,40.1,29.85,ESE,112,5.8,5.8,77,0.00,,---,0.21,VWS V14.01,2013-01-08 05:22:00,
2013-01-07 21:23:00,46.9,40.1,29.85,East,90,3.8,3.8,77,0.00,,---,0.21,VWS V14.01,2013-01-08 05:23:00,
2013-01-07 21:24:00,46.9,40.1,29.85,ESE,112,3.6,3.8,77,0.00,,---,0.21,VWS V14.01,2013-01-08 05:24:00,
2013-01-07 21:25:00,46.9,40.1,29.85,NNE,22,3.1,3.6,77,0.00,,---,0.21,VWS V14.01,2013-01-08 05:25:00,
2013-01-07 21:26:00,46.9,40.1,29.85,SSE,158,1.6,3.6,77,0.00,,---,0.21,VWS V14.01,2013-01-08 05:26:00,
2013-01-07 21:27:00,46.9,40.1,29.85,SSW,202,4.0,6.0,77,0.00,,---,0.21,VWS V14.01,2013-01-08 05:27:00,
2013-01-07 21:28:00,46.9,40.1,29.85,SSE,158,4.3,6.9,77,0.00,,---,0.21,VWS V14.01,2013-01-08 05:28:00,
2013-01-07 21:29:00,46.9,40.1,29.85,SSE,158,4.3,6.9,77,0.00,,---,0.21,VWS V14.01,2013-01-08 05:29:00,
2013-01-07 21:30:00,46.9,40.1,29.85,SSW,202,2.9,10.3,77,0.00,,---,0.21,VWS V14.01,2013-01-08 05:30:00,
2013-01-07 21:31:00,46.9,40.1,29.85,SSW,202,2.2,3.6,77,0.00,,---,0.21,VWS V14.01,2013-01-08 05:31:00,
2013-01-07 21:32:00,46.9,40.1,29.85,NNW,338,1.6,2.9,77,0.00,,---,0.21,VWS V14.01,2013-01-08 05:32:00,
2013-01-07 21:33:00,46.9,40.1,29.85,NNE,22,2.7,3.1,77,0.00,,---,0.21,VWS V14.01,2013-01-08 05:33:00,
2013-01-07 21:34:00,46.9,40.1,29.85,NNE,22,2.7,3.1,77,0.00,,---,0.21,VWS V14.01,2013-01-08 05:34:00,
2013-01-07 21:35:00,46.9,40.1,29.85,ENE,68,4.9,4.9,77,0.00,,---,0.21,VWS V14.01,2013-01-08 05:35:00,
2013-01-07 21:36:00,46.9,40.1,29.85,South,180,2.9,4.9,77,0.00,,---,0.21,VWS V14.01,2013-01-08 05:36:00,
2013-01-07 21:37:00,46.9,40.1,29.85,ESE,112,2.9,2.9,77,0.00,,---,0.21,VWS V14.01,2013-01-08 05:37:00,
2013-01-07 21:38:00,46.9,39.8,29.88,SSW,202,2.0,4.0,76,0.00,,---,0.21,VWS V14.01,2013-01-08 05:38:00,
2013-01-07 21:39:00,46.9,39.8,29.88,SSW,202,2.0,4.0,76,0.00,,---,0.21,VWS V14.01,2013-01-08 05:39:00,
2013-01-07 21:40:00,46.9,39.8,29.88,South,180,6.0,6.0,76,0.00,,---,0.21,VWS V14.01,2013-01-08 05:40:00,
2013-01-07 21:41:00,46.9,39.8,29.88,East,90,1.6,6.0,76,0.00,,---,0.21,VWS V14.01,2013-01-08 05:41:00,
2013-01-07 21:42:00,46.9,39.8,29.88,SSE,158,5.6,5.6,76,0.00,,---,0.21,VWS V14.01,2013-01-08 05:42:00,
2013-01-07 21:43:00,46.9,40.1,29.88,SSE,158,1.6,3.6,77,0.00,,---,0.21,VWS V14.01,2013-01-08 05:43:00,
2013-01-07 21:44:00,46.9,40.1,29.88,SSE,158,2.5,3.6,77,0.00,,---,0.21,VWS V14.01,2013-01-08 05:44:00,
2013-01-07 21:48:00,46.9,39.8,29.88,ESE,112,2.9,5.8,76,0.00,,---,0.21,VWS V14.01,2013-01-08 05:48:00,
2013-01-07 21:49:00,46.9,39.8,29.88,ESE,112,3.1,5.8,76,0.00,,---,0.21,VWS V14.01,2013-01-08 05:49:00,
2013-01-07 21:50:00,46.9,39.8,29.88,ESE,112,6.5,6.5,76,0.00,,---,0.21,VWS V14.01,2013-01-08 05:50:00,
2013-01-07 21:51:00,46.9,39.8,29.88,SSE,158,9.2,12.5,76,0.00,,---,0.21,VWS V14.01,2013-01-08 05:51:00,
2013-01-07 21:52:00,46.9,39.8,29.88,SE,135,2.7,9.2,76,0.00,,---,0.21,VWS V14.01,2013-01-08 05:52:00,
2013-01-07 21:53:00,46.9,39.8,29.88,ENE,68,1.6,2.5,76,0.00,,---,0.21,VWS V14.01,2013-01-08 05:53:00,
2013-01-07 21:54:00,46.9,39.8,29.88,ENE,68,3.1,3.1,76,0.00,,---,0.21,VWS V14.01,2013-01-08 05:54:00,
2013-01-07 21:55:00,46.9,39.8,29.88,East,90,1.3,3.1,76,0.00,,---,0.21,VWS V14.01,2013-01-08 05:55:00,
2013-01-07 21:56:00,46.9,39.8,29.88,ESE,112,2.9,2.9,76,0.00,,---,0.21,VWS V14.01,2013-01-08 05:56:00,
2013-01-07 21:57:00,46.9,39.8,29.88,ESE,112,2.9,2.9,76,0.00,,---,0.21,VWS V14.01,2013-01-08 05:57:00,
2013-01-07 21:58:00,46.9,39.8,29.88,NNE,22,2.7,4.3,76,0.00,,---,0.21,VWS V14.01,2013-01-08 05:58:00,
2013-01-07 21:59:00,46.9,39.8,29.88,NNE,22,2.7,4.3,76,0.00,,---,0.21,VWS V14.01,2013-01-08 05:59:00,
2013-01-07 22:00:00,46.9,39.8,29.88,ESE,112,5.4,6.5,76,0.00,,---,0.21,VWS V14.01,2013-01-08 06:00:00,
2013-01-07 22:01:00,46.9,39.8,29.88,SE,135,5.4,5.4,76,0.00,,---,0.21,VWS V14.01,2013-01-08 06:01:00,
2013-01-07 22:02:00,46.9,39.8,29.88,SE,135,2.7,5.4,76,0.00,,---,0.21,VWS V14.01,2013-01-08 06:02:00,
2013-01-07 22:03:00,46.9,39.8,29.88,SSE,158,4.7,4.7,76,0.00,,---,0.21,VWS V14.01,2013-01-08 06:03:00,
2013-01-07 22:04:00,46.9,39.8,29.88,SSE,158,3.1,4.7,76,0.00,,---,0.21,VWS V14.01,2013-01-08 06:04:00,
2013-01-07 22:05:00,46.9,39.8,29.88,South,180,3.6,5.6,76,0.00,,---,0.21,VWS V14.01,2013-01-08 06:05:00,
2013-01-07 22:06:00,46.9,39.8,29.88,SSE,158,3.4,4.0,76,0.00,,---,0.21,VWS V14.01,2013-01-08 06:06:00,
2013-01-07 22:07:00,46.9,39.8,29.88,SSE,158,3.1,3.6,76,0.00,,---,0.21,VWS V14.01,2013-01-08 06:07:00,
2013-01-07 22:08:00,46.9,39.8,29.91,ENE,68,1.6,2.7,76,0.00,,---,0.21,VWS V14.01,2013-01-08 06:08:00,
2013-01-07 22:09:00,46.9,39.8,29.91,ENE,68,2.5,2.7,76,0.00,,---,0.21,VWS V14.01,2013-01-08 06:09:00,
2013-01-07 22:10:00,46.9,39.8,29.91,ESE,112,3.8,8.1,76,0.00,,---,0.21,VWS V14.01,2013-01-08 06:10:00,
2013-01-07 22:11:00,46.9,39.8,29.91,ESE,112,2.5,3.8,76,0.00,,---,0.21,VWS V14.01,2013-01-08 06:11:00,
2013-01-07 22:12:00,46.9,39.8,29.91,ESE,112,3.1,5.4,76,0.00,,---,0.21,VWS V14.01,2013-01-08 06:12:00,
2013-01-07 22:13:00,46.9,39.8,29.91,SSE,158,5.4,8.7,76,0.00,,---,0.21,VWS V14.01,2013-01-08 06:13:00,
2013-01-07 22:14:00,46.9,39.8,29.91,SSE,158,6.3,8.7,76,0.00,,---,0.21,VWS V14.01,2013-01-08 06:14:00,
2013-01-07 22:15:00,46.9,39.8,29.91,NNE,22,8.1,8.1,76,0.00,,---,0.21,VWS V14.01,2013-01-08 06:15:00,
2013-01-07 22:16:00,46.9,39.8,29.91,SSE,158,5.4,8.1,76,0.00,,---,0.21,VWS V14.01,2013-01-08 06:16:00,
2013-01-07 22:18:00,46.9,39.8,29.91,ESE,112,3.8,3.8,76,0.00,,---,0.21,VWS V14.01,2013-01-08 06:18:00,
2013-01-07 22:19:00,46.9,39.8,29.91,ESE,112,1.6,3.8,76,0.00,,---,0.21,VWS V14.01,2013-01-08 06:19:00,
2013-01-07 22:20:00,46.9,39.8,29.91,SE,135,4.0,4.0,76,0.00,,---,0.21,VWS V14.01,2013-01-08 06:20:00,
2013-01-07 22:21:00,46.9,39.8,29.91,ESE,112,2.9,5.4,76,0.00,,---,0.21,VWS V14.01,2013-01-08 06:21:00,
2013-01-07 22:22:00,46.9,39.8,29.91,SE,135,4.0,4.0,76,0.00,,---,0.21,VWS V14.01,2013-01-08 06:22:00,
2013-01-07 22:23:00,46.9,39.8,29.91,NE,45,3.6,3.6,76,0.00,,---,0.21,VWS V14.01,2013-01-08 06:23:00,
2013-01-07 22:24:00,46.9,39.8,29.91,NE,45,3.6,3.6,76,0.00,,---,0.21,VWS V14.01,2013-01-08 06:24:00,
2013-01-07 22:25:00,46.9,39.4,29.91,ESE,112,3.6,3.8,75,0.00,,---,0.21,VWS V14.01,2013-01-08 06:25:00,
2013-01-07 22:26:00,46.9,39.4,29.91,SSE,158,6.3,6.3,75,0.00,,---,0.21,VWS V14.01,2013-01-08 06:26:00,
2013-01-07 22:27:00,46.9,39.4,29.91,East,90,2.0,6.3,75,0.00,,---,0.21,VWS V14.01,2013-01-08 06:27:00,
2013-01-07 22:28:00,46.9,39.4,29.91,ESE,112,2.9,3.6,75,0.00,,---,0.21,VWS V14.01,2013-01-08 06:28:00,
2013-01-07 22:29:00,46.9,39.4,29.91,East,90,4.9,4.9,75,0.00,,---,0.21,VWS V14.01,2013-01-08 06:29:00,
2013-01-07 22:30:00,46.9,39.4,29.91,SSE,158,3.8,4.9,75,0.00,,---,0.21,VWS V14.01,2013-01-08 06:30:00,
2013-01-07 22:31:00,46.9,39.4,29.91,SW,225,4.0,4.0,75,0.00,,---,0.21,VWS V14.01,2013-01-08 06:31:00,
2013-01-07 22:32:00,46.9,39.4,29.91,SSE,158,3.1,4.0,75,0.00,,---,0.21,VWS V14.01,2013-01-08 06:32:00,
2013-01-07 22:33:00,46.8,39.3,29.91,ESE,112,2.9,3.4,75,0.00,,---,0.21,VWS V14.01,2013-01-08 06:33:00,
2013-01-07 22:34:00,46.8,39.3,29.91,SSW,202,3.8,3.8,75,0.00,,---,0.21,VWS V14.01,2013-01-08 06:34:00,
2013-01-07 22:35:00,46.8,39.3,29.91,East,90,2.7,3.8,75,0.00,,---,0.21,VWS V14.01,2013-01-08 06:35:00,
2013-01-07 22:36:00,46.8,39.3,29.91,SSE,158,3.1,3.6,75,0.00,,---,0.21,VWS V14.01,2013-01-08 06:36:00,
2013-01-07 22:37:00,46.8,39.3,29.91,SSE,158,1.6,3.4,75,0.00,,---,0.21,VWS V14.01,2013-01-08 06:37:00,
2013-01-07 22:38:00,46.8,39.3,29.88,South,180,6.5,6.5,75,0.00,,---,0.21,VWS V14.01,2013-01-08 06:38:00,
2013-01-07 22:39:00,46.8,39.3,29.88,South,180,6.5,6.5,75,0.00,,---,0.21,VWS V14.01,2013-01-08 06:39:00,
2013-01-07 22:40:00,46.8,39.3,29.88,SSW,202,3.4,6.5,75,0.00,,---,0.21,VWS V14.01,2013-01-08 06:40:00,
2013-01-07 22:41:00,46.8,39.3,29.88,ESE,112,2.9,5.4,75,0.00,,---,0.21,VWS V14.01,2013-01-08 06:41:00,
2013-01-07 22:42:00,46.8,39.3,29.88,ESE,112,1.3,2.9,75,0.00,,---,0.21,VWS V14.01,2013-01-08 06:42:00,
2013-01-07 22:43:00,46.8,39.3,29.88,ESE,112,5.4,5.4,75,0.00,,---,0.21,VWS V14.01,2013-01-08 06:43:00,
2013-01-07 22:44:00,46.8,39.3,29.88,ESE,112,5.4,5.4,75,0.00,,---,0.21,VWS V14.01,2013-01-08 06:44:00,
2013-01-07 22:45:00,46.8,39.3,29.88,SSE,158,3.8,5.4,75,0.00,,---,0.21,VWS V14.01,2013-01-08 06:45:00,
2013-01-07 22:46:00,46.8,39.3,29.88,SSW,202,5.4,5.4,75,0.00,,---,0.21,VWS V14.01,2013-01-08 06:46:00,
2013-01-07 22:47:00,46.8,39.3,29.88,South,180,4.3,5.4,75,0.00,,---,0.21,VWS V14.01,2013-01-08 06:47:00,
2013-01-07 22:48:00,46.8,39.3,29.88,ENE,68,3.1,3.1,75,0.00,,---,0.21,VWS V14.01,2013-01-08 06:48:00,
2013-01-07 22:49:00,46.8,38.9,29.88,SSE,158,3.8,3.8,74,0.00,,---,0.21,VWS V14.01,2013-01-08 06:49:00,
2013-01-07 22:50:00,46.8,39.3,29.88,SSW,202,1.1,4.9,75,0.00,,---,0.21,VWS V14.01,2013-01-08 06:50:00,
2013-01-07 22:52:00,46.6,39.1,29.88,ESE,112,3.8,3.8,75,0.00,,---,0.21,VWS V14.01,2013-01-08 06:52:00,
2013-01-07 22:53:00,46.6,39.1,29.91,ESE,112,4.9,4.9,75,0.00,,---,0.21,VWS V14.01,2013-01-08 06:53:00,
2013-01-07 22:54:00,46.6,39.1,29.91,ESE,112,2.5,4.9,75,0.00,,---,0.21,VWS V14.01,2013-01-08 06:54:00,
2013-01-07 22:55:00,46.6,39.1,29.91,ESE,112,2.9,8.1,75,0.00,,---,0.21,VWS V14.01,2013-01-08 06:55:00,
2013-01-07 22:57:00,46.6,39.1,29.91,East,90,2.5,5.4,75,0.00,,---,0.21,VWS V14.01,2013-01-08 06:57:00,
2013-01-07 22:58:00,46.6,39.1,29.91,ENE,68,2.0,4.3,75,0.00,,---,0.21,VWS V14.01,2013-01-08 06:58:00,
2013-01-07 22:59:00,46.6,39.1,29.91,NNE,22,2.0,4.3,75,0.00,,---,0.21,VWS V14.01,2013-01-08 06:59:00,
2013-01-07 23:00:00,46.6,39.1,29.91,WSW,248,3.4,4.7,75,0.00,,---,0.21,VWS V14.01,2013-01-08 07:00:00,
2013-01-07 23:01:00,46.6,39.1,29.91,NE,45,5.6,5.6,75,0.00,,---,0.21,VWS V14.01,2013-01-08 07:01:00,
2013-01-07 23:02:00,46.8,38.9,29.91,ESE,112,6.5,9.0,74,0.00,,---,0.21,VWS V14.01,2013-01-08 07:02:00,
2013-01-07 23:03:00,46.8,38.9,29.91,SSE,158,5.4,5.8,74,0.00,,---,0.21,VWS V14.01,2013-01-08 07:03:00,
2013-01-07 23:04:00,46.8,38.9,29.91,ESE,112,2.7,5.8,74,0.00,,---,0.21,VWS V14.01,2013-01-08 07:04:00,
2013-01-07 23:05:00,46.8,38.9,29.91,SSW,202,4.0,4.0,74,0.00,,---,0.21,VWS V14.01,2013-01-08 07:05:00,
2013-01-07 23:06:00,46.8,38.9,29.91,ENE,68,2.9,4.0,74,0.00,,---,0.21,VWS V14.01,2013-01-08 07:06:00,
2013-01-07 23:07:00,46.8,38.9,29.91,SSE,158,1.1,2.9,74,0.00,,---,0.21,VWS V14.01,2013-01-08 07:07:00,
2013-01-07 23:08:00,46.8,38.9,29.91,ENE,68,1.6,1.6,74,0.00,,---,0.21,VWS V14.01,2013-01-08 07:08:00,
2013-01-07 23:09:00,46.8,38.9,29.91,ENE,68,1.6,1.6,74,0.00,,---,0.21,VWS V14.01,2013-01-08 07:09:00,
2013-01-07 23:11:00,46.8,38.9,29.91,SSE,158,5.6,5.6,74,0.00,,---,0.21,VWS V14.01,2013-01-08 07:11:00,
2013-01-07 23:12:00,46.8,38.9,29.91,SSE,158,2.5,5.6,74,0.00,,---,0.21,VWS V14.01,2013-01-08 07:12:00,
2013-01-07 23:13:00,46.8,38.9,29.91,SSE,158,3.1,3.4,74,0.00,,---,0.21,VWS V14.01,2013-01-08 07:13:00,
2013-01-07 23:14:00,46.8,38.9,29.91,SSE,158,2.7,3.4,74,0.00,,---,0.21,VWS V14.01,2013-01-08 07:14:00,
2013-01-07 23:15:00,46.8,38.9,29.91,ESE,112,2.5,3.8,74,0.00,,---,0.21,VWS V14.01,2013-01-08 07:15:00,
2013-01-07 23:16:00,46.8,38.9,29.91,East,90,2.9,2.9,74,0.00,,---,0.21,VWS V14.01,2013-01-08 07:16:00,
2013-01-07 23:17:00,46.8,38.9,29.91,SE,135,0.9,2.9,74,0.00,,---,0.21,VWS V14.01,2013-01-08 07:17:00,
2013-01-07 23:18:00,46.8,38.9,29.91,SSW,202,0.0,1.3,74,0.00,,---,0.21,VWS V14.01,2013-01-08 07:18:00,
2013-01-07 23:19:00,46.6,39.1,29.91,SSW,202,0.0,1.3,75,0.00,,---,0.21,VWS V14.01,2013-01-08 07:19:00,
2013-01-07 23:20:00,46.6,39.1,29.91,South,180,1.3,2.2,75,0.00,,---,0.21,VWS V14.01,2013-01-08 07:20:00,
2013-01-07 23:21:00,46.6,39.1,29.91,SSW,202,1.1,2.2,75,0.00,,---,0.21,VWS V14.01,2013-01-08 07:21:00,
2013-01-07 23:22:00,46.6,39.1,29.91,SSE,158,1.1,1.1,75,0.00,,---,0.21,VWS V14.01,2013-01-08 07:22:00,
2013-01-07 23:23:00,46.6,39.1,29.91,SSE,158,3.1,6.3,75,0.00,,---,0.21,VWS V14.01,2013-01-08 07:23:00,
2013-01-07 23:24:00,46.6,39.1,29.91,South,180,1.6,6.3,75,0.00,,---,0.21,VWS V14.01,2013-01-08 07:24:00,
2013-01-07 23:25:00,46.6,39.1,29.91,SSE,158,5.4,5.4,75,0.00,,---,0.21,VWS V14.01,2013-01-08 07:25:00,
2013-01-07 23:26:00,46.6,39.1,29.91,SSE,158,7.6,7.6,75,0.00,,---,0.21,VWS V14.01,2013-01-08 07:26:00,
2013-01-07 23:27:00,46.6,38.8,29.91,ESE,112,2.5,7.6,74,0.00,,---,0.21,VWS V14.01,2013-01-08 07:27:00,
2013-01-07 23:28:00,46.6,38.8,29.91,SE,135,3.6,3.6,74,0.00,,---,0.21,VWS V14.01,2013-01-08 07:28:00,
2013-01-07 23:29:00,46.6,38.8,29.91,SSE,158,4.9,4.9,74,0.00,,---,0.21,VWS V14.01,2013-01-08 07:29:00,
2013-01-07 23:30:00,46.6,38.8,29.91,SSE,158,4.9,4.9,74,0.00,,---,0.21,VWS V14.01,2013-01-08 07:30:00,
2013-01-07 23:31:00,46.6,38.8,29.91,NE,45,2.5,4.9,74,0.00,,---,0.21,VWS V14.01,2013-01-08 07:31:00,
2013-01-07 23:32:00,46.6,39.1,29.91,SE,135,2.7,2.9,75,0.00,,---,0.21,VWS V14.01,2013-01-08 07:32:00,
2013-01-07 23:33:00,46.6,39.1,29.91,East,90,1.6,3.1,75,0.00,,---,0.21,VWS V14.01,2013-01-08 07:33:00,
2013-01-07 23:34:00,46.6,39.1,29.91,ESE,112,1.6,3.1,75,0.00,,---,0.21,VWS V14.01,2013-01-08 07:34:00,
2013-01-07 23:35:00,46.6,39.1,29.91,NNE,22,2.5,2.9,75,0.00,,---,0.21,VWS V14.01,2013-01-08 07:35:00,
2013-01-07 23:36:00,46.6,39.1,29.91,ESE,112,3.4,5.6,75,0.00,,---,0.21,VWS V14.01,2013-01-08 07:36:00,
2013-01-07 23:37:00,46.6,39.1,29.91,ESE,112,2.0,3.4,75,0.00,,---,0.21,VWS V14.01,2013-01-08 07:37:00,
2013-01-07 23:38:00,46.6,39.1,29.91,ESE,112,2.9,3.4,75,0.00,,---,0.21,VWS V14.01,2013-01-08 07:38:00,
2013-01-07 23:39:00,46.6,39.1,29.91,ESE,112,3.1,3.4,75,0.00,,---,0.21,VWS V14.01,2013-01-08 07:39:00,
2013-01-07 23:40:00,46.8,39.3,29.91,ENE,68,2.5,5.6,75,0.00,,---,0.21,VWS V14.01,2013-01-08 07:40:00,
2013-01-07 23:41:00,46.6,39.1,29.91,East,90,1.6,2.5,75,0.00,,---,0.21,VWS V14.01,2013-01-08 07:41:00,
2013-01-07 23:42:00,46.6,39.1,29.91,SSE,158,2.7,2.7,75,0.00,,---,0.21,VWS V14.01,2013-01-08 07:42:00,
2013-01-07 23:43:00,46.6,39.1,29.91,SSE,158,2.9,3.6,75,0.00,,---,0.21,VWS V14.01,2013-01-08 07:43:00,
2013-01-07 23:44:00,46.6,39.1,29.91,SSW,202,1.3,3.6,75,0.00,,---,0.21,VWS V14.01,2013-01-08 07:44:00,
2013-01-07 23:45:00,46.6,39.1,29.91,WSW,248,2.5,2.9,75,0.00,,---,0.21,VWS V14.01,2013-01-08 07:45:00,
2013-01-07 23:46:00,46.6,39.1,29.91,ESE,112,2.0,2.5,75,0.00,,---,0.21,VWS V14.01,2013-01-08 07:46:00,
2013-01-07 23:47:00,46.6,39.1,29.91,ESE,112,1.6,2.0,75,0.00,,---,0.21,VWS V14.01,2013-01-08 07:47:00,
2013-01-07 23:48:00,46.6,39.1,29.91,SSE,158,2.0,2.0,75,0.00,,---,0.21,VWS V14.01,2013-01-08 07:48:00,
2013-01-07 23:49:00,46.6,39.1,29.91,SSE,158,1.1,2.0,75,0.00,,---,0.21,VWS V14.01,2013-01-08 07:49:00,
2013-01-07 23:50:00,46.6,39.1,29.91,ESE,112,2.7,2.7,75,0.00,,---,0.21,VWS V14.01,2013-01-08 07:50:00,
2013-01-07 23:51:00,46.6,39.1,29.91,NE,45,2.7,2.7,75,0.00,,---,0.21,VWS V14.01,2013-01-08 07:51:00,
2013-01-07 23:52:00,46.6,39.1,29.91,WSW,248,2.2,2.7,75,0.00,,---,0.21,VWS V14.01,2013-01-08 07:52:00,
2013-01-07 23:53:00,46.6,39.4,29.91,NNE,22,1.6,2.9,76,0.00,,---,0.21,VWS V14.01,2013-01-08 07:53:00,
2013-01-07 23:54:00,46.6,39.4,29.91,NNE,22,1.6,2.9,76,0.00,,---,0.21,VWS V14.01,2013-01-08 07:54:00,
2013-01-07 23:55:00,46.6,39.4,29.91,SSW,202,2.0,2.9,76,0.00,,---,0.21,VWS V14.01,2013-01-08 07:55:00,
2013-01-07 23:56:00,46.6,39.4,29.91,SSE,158,3.1,6.0,76,0.00,,---,0.21,VWS V14.01,2013-01-08 07:56:00,
2013-01-07 23:57:00,46.6,39.4,29.91,ENE,68,1.6,3.1,76,0.00,,---,0.21,VWS V14.01,2013-01-08 07:57:00,
2013-01-07 23:58:00,46.6,39.4,29.91,NNE,22,1.3,3.6,76,0.00,,---,0.21,VWS V14.01,2013-01-08 07:58:00,
2013-01-07 23:59:00,46.6,39.4,29.91,NW,315,2.0,3.6,76,0.00,,---,0.21,VWS V14.01,2013-01-08 07:59:00,